<?xml version="1.0" encoding="UTF-8" standalone="no" ?>
<gpx xmlns="http://www.topografix.com/GPX/1/1" xmlns:xsi="http://www.w3.org/2001/XMLSchema-instance" xsi:schemaLocation="http://www.topografix.com/GPX/1/1 http://www.topografix.com/GPX/1/1/gpx.xsd" version="1.1" creator="VisuGPX - https://www.visugpx.com">
  <metadata>
    <name>02-SEP-20 03:41:23 PM</name>
    <desc><![CDATA[Tour des Monts d'Aubrac.4ème étape St Chely d'Aubrac vers Laguiole.]]></desc>
  </metadata>
  <trk>
    <name><![CDATA[02-SEP-20 03:41:23 PM]]></name>
    <trkseg>
      <trkpt lat="44.59305" lon="2.929">
        <ele>837.45</ele>
        <time>2020-09-02T05:53:49Z</time>
      </trkpt>
      <trkpt lat="44.59303" lon="2.92897">
        <ele>836.96</ele>
        <time>2020-09-02T05:54:04Z</time>
      </trkpt>
      <trkpt lat="44.59307" lon="2.92895">
        <ele>841.29</ele>
        <time>2020-09-02T05:54:19Z</time>
      </trkpt>
      <trkpt lat="44.59308" lon="2.92897">
        <ele>844.66</ele>
        <time>2020-09-02T05:54:34Z</time>
      </trkpt>
      <trkpt lat="44.5931" lon="2.92899">
        <ele>845.62</ele>
        <time>2020-09-02T05:54:49Z</time>
      </trkpt>
      <trkpt lat="44.59309" lon="2.929">
        <ele>845.62</ele>
        <time>2020-09-02T05:55:04Z</time>
      </trkpt>
      <trkpt lat="44.59306" lon="2.929">
        <ele>845.14</ele>
        <time>2020-09-02T05:55:19Z</time>
      </trkpt>
      <trkpt lat="44.59303" lon="2.92901">
        <ele>845.14</ele>
        <time>2020-09-02T05:55:33Z</time>
      </trkpt>
      <trkpt lat="44.59303" lon="2.92896">
        <ele>845.14</ele>
        <time>2020-09-02T05:55:49Z</time>
      </trkpt>
      <trkpt lat="44.59302" lon="2.92892">
        <ele>845.14</ele>
        <time>2020-09-02T05:56:04Z</time>
      </trkpt>
      <trkpt lat="44.59305" lon="2.92893">
        <ele>845.14</ele>
        <time>2020-09-02T05:56:19Z</time>
      </trkpt>
      <trkpt lat="44.59308" lon="2.92894">
        <ele>845.14</ele>
        <time>2020-09-02T05:56:34Z</time>
      </trkpt>
      <trkpt lat="44.59305" lon="2.92896">
        <ele>845.62</ele>
        <time>2020-09-02T05:56:49Z</time>
      </trkpt>
      <trkpt lat="44.59306" lon="2.92895">
        <ele>845.62</ele>
        <time>2020-09-02T05:57:04Z</time>
      </trkpt>
      <trkpt lat="44.59308" lon="2.92895">
        <ele>845.62</ele>
        <time>2020-09-02T05:57:19Z</time>
      </trkpt>
      <trkpt lat="44.59312" lon="2.92898">
        <ele>845.14</ele>
        <time>2020-09-02T05:57:34Z</time>
      </trkpt>
      <trkpt lat="44.59306" lon="2.92898">
        <ele>846.1</ele>
        <time>2020-09-02T05:57:49Z</time>
      </trkpt>
      <trkpt lat="44.59305" lon="2.92899">
        <ele>846.1</ele>
        <time>2020-09-02T05:58:04Z</time>
      </trkpt>
      <trkpt lat="44.59307" lon="2.92893">
        <ele>846.1</ele>
        <time>2020-09-02T05:58:19Z</time>
      </trkpt>
      <trkpt lat="44.59308" lon="2.92883">
        <ele>845.62</ele>
        <time>2020-09-02T05:58:34Z</time>
      </trkpt>
      <trkpt lat="44.59308" lon="2.92882">
        <ele>846.1</ele>
        <time>2020-09-02T05:58:49Z</time>
      </trkpt>
      <trkpt lat="44.59311" lon="2.92883">
        <ele>846.1</ele>
        <time>2020-09-02T05:59:04Z</time>
      </trkpt>
      <trkpt lat="44.59309" lon="2.92883">
        <ele>846.1</ele>
        <time>2020-09-02T05:59:19Z</time>
      </trkpt>
      <trkpt lat="44.59309" lon="2.92882">
        <ele>845.62</ele>
        <time>2020-09-02T05:59:34Z</time>
      </trkpt>
      <trkpt lat="44.59308" lon="2.92881">
        <ele>845.62</ele>
        <time>2020-09-02T05:59:49Z</time>
      </trkpt>
      <trkpt lat="44.59307" lon="2.92882">
        <ele>845.62</ele>
        <time>2020-09-02T06:00:04Z</time>
      </trkpt>
      <trkpt lat="44.59305" lon="2.92882">
        <ele>846.1</ele>
        <time>2020-09-02T06:00:19Z</time>
      </trkpt>
      <trkpt lat="44.59302" lon="2.92862">
        <ele>844.18</ele>
        <time>2020-09-02T06:00:34Z</time>
      </trkpt>
      <trkpt lat="44.59301" lon="2.92844">
        <ele>843.21</ele>
        <time>2020-09-02T06:00:49Z</time>
      </trkpt>
      <trkpt lat="44.59293" lon="2.92826">
        <ele>842.73</ele>
        <time>2020-09-02T06:01:04Z</time>
      </trkpt>
      <trkpt lat="44.59288" lon="2.9282">
        <ele>843.21</ele>
        <time>2020-09-02T06:01:19Z</time>
      </trkpt>
      <trkpt lat="44.59287" lon="2.9282">
        <ele>843.21</ele>
        <time>2020-09-02T06:01:34Z</time>
      </trkpt>
      <trkpt lat="44.59293" lon="2.9281">
        <ele>846.1</ele>
        <time>2020-09-02T06:01:49Z</time>
      </trkpt>
      <trkpt lat="44.59301" lon="2.92811">
        <ele>848.98</ele>
        <time>2020-09-02T06:02:04Z</time>
      </trkpt>
      <trkpt lat="44.59305" lon="2.92804">
        <ele>851.38</ele>
        <time>2020-09-02T06:02:19Z</time>
      </trkpt>
      <trkpt lat="44.59313" lon="2.92805">
        <ele>854.27</ele>
        <time>2020-09-02T06:02:34Z</time>
      </trkpt>
      <trkpt lat="44.59317" lon="2.92814">
        <ele>855.23</ele>
        <time>2020-09-02T06:02:49Z</time>
      </trkpt>
      <trkpt lat="44.5932" lon="2.9283">
        <ele>857.63</ele>
        <time>2020-09-02T06:03:04Z</time>
      </trkpt>
      <trkpt lat="44.5932" lon="2.92847">
        <ele>858.11</ele>
        <time>2020-09-02T06:03:19Z</time>
      </trkpt>
      <trkpt lat="44.5932" lon="2.92866">
        <ele>859.08</ele>
        <time>2020-09-02T06:03:34Z</time>
      </trkpt>
      <trkpt lat="44.59321" lon="2.92884">
        <ele>861</ele>
        <time>2020-09-02T06:03:49Z</time>
      </trkpt>
      <trkpt lat="44.59321" lon="2.92906">
        <ele>861.96</ele>
        <time>2020-09-02T06:04:04Z</time>
      </trkpt>
      <trkpt lat="44.59322" lon="2.92927">
        <ele>862.92</ele>
        <time>2020-09-02T06:04:19Z</time>
      </trkpt>
      <trkpt lat="44.59323" lon="2.92948">
        <ele>864.36</ele>
        <time>2020-09-02T06:04:34Z</time>
      </trkpt>
      <trkpt lat="44.59325" lon="2.92967">
        <ele>866.29</ele>
        <time>2020-09-02T06:04:49Z</time>
      </trkpt>
      <trkpt lat="44.59329" lon="2.92987">
        <ele>867.25</ele>
        <time>2020-09-02T06:05:04Z</time>
      </trkpt>
      <trkpt lat="44.5933" lon="2.9301">
        <ele>868.69</ele>
        <time>2020-09-02T06:05:19Z</time>
      </trkpt>
      <trkpt lat="44.59333" lon="2.93027">
        <ele>869.65</ele>
        <time>2020-09-02T06:05:34Z</time>
      </trkpt>
      <trkpt lat="44.59335" lon="2.93048">
        <ele>871.57</ele>
        <time>2020-09-02T06:05:49Z</time>
      </trkpt>
      <trkpt lat="44.59338" lon="2.93067">
        <ele>873.01</ele>
        <time>2020-09-02T06:06:04Z</time>
      </trkpt>
      <trkpt lat="44.59345" lon="2.93084">
        <ele>874.94</ele>
        <time>2020-09-02T06:06:19Z</time>
      </trkpt>
      <trkpt lat="44.59354" lon="2.93098">
        <ele>875.9</ele>
        <time>2020-09-02T06:06:34Z</time>
      </trkpt>
      <trkpt lat="44.59357" lon="2.93113">
        <ele>876.86</ele>
        <time>2020-09-02T06:06:49Z</time>
      </trkpt>
      <trkpt lat="44.59365" lon="2.93125">
        <ele>878.3</ele>
        <time>2020-09-02T06:07:04Z</time>
      </trkpt>
      <trkpt lat="44.59368" lon="2.93136">
        <ele>879.74</ele>
        <time>2020-09-02T06:07:19Z</time>
      </trkpt>
      <trkpt lat="44.59373" lon="2.93158">
        <ele>880.71</ele>
        <time>2020-09-02T06:07:34Z</time>
      </trkpt>
      <trkpt lat="44.59382" lon="2.93178">
        <ele>882.15</ele>
        <time>2020-09-02T06:07:49Z</time>
      </trkpt>
      <trkpt lat="44.59387" lon="2.93201">
        <ele>883.59</ele>
        <time>2020-09-02T06:08:04Z</time>
      </trkpt>
      <trkpt lat="44.59392" lon="2.93222">
        <ele>885.51</ele>
        <time>2020-09-02T06:08:19Z</time>
      </trkpt>
      <trkpt lat="44.59397" lon="2.93241">
        <ele>887.43</ele>
        <time>2020-09-02T06:08:34Z</time>
      </trkpt>
      <trkpt lat="44.59401" lon="2.93264">
        <ele>889.36</ele>
        <time>2020-09-02T06:08:49Z</time>
      </trkpt>
      <trkpt lat="44.59407" lon="2.93283">
        <ele>890.32</ele>
        <time>2020-09-02T06:09:04Z</time>
      </trkpt>
      <trkpt lat="44.59415" lon="2.93304">
        <ele>891.76</ele>
        <time>2020-09-02T06:09:19Z</time>
      </trkpt>
      <trkpt lat="44.59421" lon="2.93325">
        <ele>893.2</ele>
        <time>2020-09-02T06:09:34Z</time>
      </trkpt>
      <trkpt lat="44.59427" lon="2.93346">
        <ele>894.16</ele>
        <time>2020-09-02T06:09:49Z</time>
      </trkpt>
      <trkpt lat="44.59436" lon="2.93365">
        <ele>895.61</ele>
        <time>2020-09-02T06:10:04Z</time>
      </trkpt>
      <trkpt lat="44.59444" lon="2.93383">
        <ele>896.57</ele>
        <time>2020-09-02T06:10:19Z</time>
      </trkpt>
      <trkpt lat="44.59452" lon="2.93396">
        <ele>898.49</ele>
        <time>2020-09-02T06:10:34Z</time>
      </trkpt>
      <trkpt lat="44.59462" lon="2.93411">
        <ele>899.93</ele>
        <time>2020-09-02T06:10:49Z</time>
      </trkpt>
      <trkpt lat="44.59474" lon="2.93425">
        <ele>901.37</ele>
        <time>2020-09-02T06:11:04Z</time>
      </trkpt>
      <trkpt lat="44.59482" lon="2.93442">
        <ele>903.3</ele>
        <time>2020-09-02T06:11:19Z</time>
      </trkpt>
      <trkpt lat="44.59489" lon="2.93466">
        <ele>904.26</ele>
        <time>2020-09-02T06:11:34Z</time>
      </trkpt>
      <trkpt lat="44.59491" lon="2.9349">
        <ele>905.7</ele>
        <time>2020-09-02T06:11:49Z</time>
      </trkpt>
      <trkpt lat="44.59496" lon="2.93511">
        <ele>907.14</ele>
        <time>2020-09-02T06:12:04Z</time>
      </trkpt>
      <trkpt lat="44.59506" lon="2.93528">
        <ele>908.58</ele>
        <time>2020-09-02T06:12:19Z</time>
      </trkpt>
      <trkpt lat="44.59516" lon="2.93543">
        <ele>910.99</ele>
        <time>2020-09-02T06:12:34Z</time>
      </trkpt>
      <trkpt lat="44.59525" lon="2.93561">
        <ele>911.95</ele>
        <time>2020-09-02T06:12:49Z</time>
      </trkpt>
      <trkpt lat="44.59533" lon="2.93579">
        <ele>913.39</ele>
        <time>2020-09-02T06:13:04Z</time>
      </trkpt>
      <trkpt lat="44.59543" lon="2.93594">
        <ele>914.83</ele>
        <time>2020-09-02T06:13:19Z</time>
      </trkpt>
      <trkpt lat="44.59554" lon="2.9361">
        <ele>915.79</ele>
        <time>2020-09-02T06:13:34Z</time>
      </trkpt>
      <trkpt lat="44.59562" lon="2.93629">
        <ele>917.24</ele>
        <time>2020-09-02T06:13:49Z</time>
      </trkpt>
      <trkpt lat="44.59573" lon="2.9364">
        <ele>918.68</ele>
        <time>2020-09-02T06:14:04Z</time>
      </trkpt>
      <trkpt lat="44.59584" lon="2.93648">
        <ele>920.6</ele>
        <time>2020-09-02T06:14:19Z</time>
      </trkpt>
      <trkpt lat="44.59597" lon="2.93659">
        <ele>922.04</ele>
        <time>2020-09-02T06:14:34Z</time>
      </trkpt>
      <trkpt lat="44.59607" lon="2.93677">
        <ele>923.96</ele>
        <time>2020-09-02T06:14:49Z</time>
      </trkpt>
      <trkpt lat="44.59616" lon="2.93696">
        <ele>924.93</ele>
        <time>2020-09-02T06:15:04Z</time>
      </trkpt>
      <trkpt lat="44.59626" lon="2.93708">
        <ele>925.89</ele>
        <time>2020-09-02T06:15:19Z</time>
      </trkpt>
      <trkpt lat="44.59635" lon="2.93716">
        <ele>926.85</ele>
        <time>2020-09-02T06:15:34Z</time>
      </trkpt>
      <trkpt lat="44.59636" lon="2.93719">
        <ele>926.85</ele>
        <time>2020-09-02T06:15:49Z</time>
      </trkpt>
      <trkpt lat="44.59635" lon="2.9373">
        <ele>924.45</ele>
        <time>2020-09-02T06:16:04Z</time>
      </trkpt>
      <trkpt lat="44.5962" lon="2.9374">
        <ele>922.52</ele>
        <time>2020-09-02T06:16:19Z</time>
      </trkpt>
      <trkpt lat="44.59604" lon="2.93747">
        <ele>921.56</ele>
        <time>2020-09-02T06:16:34Z</time>
      </trkpt>
      <trkpt lat="44.59591" lon="2.93758">
        <ele>921.08</ele>
        <time>2020-09-02T06:16:49Z</time>
      </trkpt>
      <trkpt lat="44.59581" lon="2.93774">
        <ele>921.08</ele>
        <time>2020-09-02T06:17:04Z</time>
      </trkpt>
      <trkpt lat="44.59579" lon="2.93796">
        <ele>922.04</ele>
        <time>2020-09-02T06:17:19Z</time>
      </trkpt>
      <trkpt lat="44.59576" lon="2.93814">
        <ele>923</ele>
        <time>2020-09-02T06:17:34Z</time>
      </trkpt>
      <trkpt lat="44.59579" lon="2.93828">
        <ele>923.96</ele>
        <time>2020-09-02T06:17:49Z</time>
      </trkpt>
      <trkpt lat="44.59584" lon="2.93853">
        <ele>925.41</ele>
        <time>2020-09-02T06:18:04Z</time>
      </trkpt>
      <trkpt lat="44.59584" lon="2.93872">
        <ele>925.89</ele>
        <time>2020-09-02T06:18:19Z</time>
      </trkpt>
      <trkpt lat="44.59584" lon="2.93882">
        <ele>926.85</ele>
        <time>2020-09-02T06:18:34Z</time>
      </trkpt>
      <trkpt lat="44.59598" lon="2.93892">
        <ele>929.73</ele>
        <time>2020-09-02T06:18:49Z</time>
      </trkpt>
      <trkpt lat="44.59612" lon="2.93911">
        <ele>932.62</ele>
        <time>2020-09-02T06:19:04Z</time>
      </trkpt>
      <trkpt lat="44.59622" lon="2.93925">
        <ele>935.5</ele>
        <time>2020-09-02T06:19:19Z</time>
      </trkpt>
      <trkpt lat="44.59629" lon="2.93934">
        <ele>938.38</ele>
        <time>2020-09-02T06:19:34Z</time>
      </trkpt>
      <trkpt lat="44.59634" lon="2.9394">
        <ele>941.27</ele>
        <time>2020-09-02T06:19:49Z</time>
      </trkpt>
      <trkpt lat="44.59639" lon="2.93948">
        <ele>943.19</ele>
        <time>2020-09-02T06:20:04Z</time>
      </trkpt>
      <trkpt lat="44.59647" lon="2.93953">
        <ele>945.59</ele>
        <time>2020-09-02T06:20:19Z</time>
      </trkpt>
      <trkpt lat="44.59654" lon="2.93961">
        <ele>948</ele>
        <time>2020-09-02T06:20:34Z</time>
      </trkpt>
      <trkpt lat="44.5966" lon="2.9397">
        <ele>949.92</ele>
        <time>2020-09-02T06:20:49Z</time>
      </trkpt>
      <trkpt lat="44.59665" lon="2.93976">
        <ele>951.84</ele>
        <time>2020-09-02T06:21:04Z</time>
      </trkpt>
      <trkpt lat="44.59671" lon="2.93986">
        <ele>953.77</ele>
        <time>2020-09-02T06:21:19Z</time>
      </trkpt>
      <trkpt lat="44.59681" lon="2.93994">
        <ele>956.17</ele>
        <time>2020-09-02T06:21:34Z</time>
      </trkpt>
      <trkpt lat="44.59688" lon="2.93996">
        <ele>958.57</ele>
        <time>2020-09-02T06:21:49Z</time>
      </trkpt>
      <trkpt lat="44.59695" lon="2.93994">
        <ele>960.01</ele>
        <time>2020-09-02T06:22:04Z</time>
      </trkpt>
      <trkpt lat="44.59698" lon="2.93995">
        <ele>961.46</ele>
        <time>2020-09-02T06:22:19Z</time>
      </trkpt>
      <trkpt lat="44.59703" lon="2.94006">
        <ele>963.86</ele>
        <time>2020-09-02T06:22:34Z</time>
      </trkpt>
      <trkpt lat="44.5971" lon="2.94013">
        <ele>966.26</ele>
        <time>2020-09-02T06:22:49Z</time>
      </trkpt>
      <trkpt lat="44.59716" lon="2.94028">
        <ele>968.18</ele>
        <time>2020-09-02T06:23:04Z</time>
      </trkpt>
      <trkpt lat="44.59722" lon="2.94043">
        <ele>969.63</ele>
        <time>2020-09-02T06:23:19Z</time>
      </trkpt>
      <trkpt lat="44.59728" lon="2.94059">
        <ele>971.07</ele>
        <time>2020-09-02T06:23:34Z</time>
      </trkpt>
      <trkpt lat="44.59733" lon="2.94071">
        <ele>973.47</ele>
        <time>2020-09-02T06:23:49Z</time>
      </trkpt>
      <trkpt lat="44.59734" lon="2.94071">
        <ele>973.47</ele>
        <time>2020-09-02T06:24:04Z</time>
      </trkpt>
      <trkpt lat="44.59741" lon="2.9408">
        <ele>976.36</ele>
        <time>2020-09-02T06:24:19Z</time>
      </trkpt>
      <trkpt lat="44.5975" lon="2.94086">
        <ele>978.76</ele>
        <time>2020-09-02T06:24:34Z</time>
      </trkpt>
      <trkpt lat="44.59757" lon="2.94096">
        <ele>981.16</ele>
        <time>2020-09-02T06:24:49Z</time>
      </trkpt>
      <trkpt lat="44.59761" lon="2.94108">
        <ele>983.09</ele>
        <time>2020-09-02T06:25:04Z</time>
      </trkpt>
      <trkpt lat="44.59762" lon="2.94112">
        <ele>983.57</ele>
        <time>2020-09-02T06:25:19Z</time>
      </trkpt>
      <trkpt lat="44.59764" lon="2.94131">
        <ele>984.53</ele>
        <time>2020-09-02T06:25:34Z</time>
      </trkpt>
      <trkpt lat="44.59773" lon="2.94147">
        <ele>985.49</ele>
        <time>2020-09-02T06:25:49Z</time>
      </trkpt>
      <trkpt lat="44.59777" lon="2.9417">
        <ele>985.49</ele>
        <time>2020-09-02T06:26:04Z</time>
      </trkpt>
      <trkpt lat="44.59781" lon="2.94185">
        <ele>986.93</ele>
        <time>2020-09-02T06:26:19Z</time>
      </trkpt>
      <trkpt lat="44.59783" lon="2.94186">
        <ele>985.97</ele>
        <time>2020-09-02T06:26:34Z</time>
      </trkpt>
      <trkpt lat="44.59782" lon="2.94189">
        <ele>985.97</ele>
        <time>2020-09-02T06:26:49Z</time>
      </trkpt>
      <trkpt lat="44.59785" lon="2.94196">
        <ele>986.45</ele>
        <time>2020-09-02T06:27:04Z</time>
      </trkpt>
      <trkpt lat="44.59791" lon="2.94214">
        <ele>986.45</ele>
        <time>2020-09-02T06:27:19Z</time>
      </trkpt>
      <trkpt lat="44.59793" lon="2.94233">
        <ele>986.45</ele>
        <time>2020-09-02T06:27:34Z</time>
      </trkpt>
      <trkpt lat="44.59798" lon="2.9424">
        <ele>986.45</ele>
        <time>2020-09-02T06:27:49Z</time>
      </trkpt>
      <trkpt lat="44.59797" lon="2.94257">
        <ele>985.97</ele>
        <time>2020-09-02T06:28:04Z</time>
      </trkpt>
      <trkpt lat="44.59801" lon="2.9428">
        <ele>986.45</ele>
        <time>2020-09-02T06:28:19Z</time>
      </trkpt>
      <trkpt lat="44.59805" lon="2.94301">
        <ele>986.93</ele>
        <time>2020-09-02T06:28:34Z</time>
      </trkpt>
      <trkpt lat="44.59811" lon="2.94318">
        <ele>987.41</ele>
        <time>2020-09-02T06:28:49Z</time>
      </trkpt>
      <trkpt lat="44.5982" lon="2.94336">
        <ele>987.41</ele>
        <time>2020-09-02T06:29:04Z</time>
      </trkpt>
      <trkpt lat="44.59826" lon="2.94347">
        <ele>988.37</ele>
        <time>2020-09-02T06:29:19Z</time>
      </trkpt>
      <trkpt lat="44.59832" lon="2.94354">
        <ele>988.85</ele>
        <time>2020-09-02T06:29:34Z</time>
      </trkpt>
      <trkpt lat="44.59842" lon="2.94371">
        <ele>990.3</ele>
        <time>2020-09-02T06:29:49Z</time>
      </trkpt>
      <trkpt lat="44.59852" lon="2.94389">
        <ele>992.7</ele>
        <time>2020-09-02T06:30:04Z</time>
      </trkpt>
      <trkpt lat="44.5986" lon="2.94404">
        <ele>995.1</ele>
        <time>2020-09-02T06:30:19Z</time>
      </trkpt>
      <trkpt lat="44.5987" lon="2.94415">
        <ele>996.54</ele>
        <time>2020-09-02T06:30:34Z</time>
      </trkpt>
      <trkpt lat="44.59883" lon="2.94429">
        <ele>997.51</ele>
        <time>2020-09-02T06:30:49Z</time>
      </trkpt>
      <trkpt lat="44.59894" lon="2.94445">
        <ele>998.47</ele>
        <time>2020-09-02T06:31:04Z</time>
      </trkpt>
      <trkpt lat="44.59905" lon="2.94456">
        <ele>999.43</ele>
        <time>2020-09-02T06:31:19Z</time>
      </trkpt>
      <trkpt lat="44.59916" lon="2.94463">
        <ele>1001.83</ele>
        <time>2020-09-02T06:31:34Z</time>
      </trkpt>
      <trkpt lat="44.59927" lon="2.94475">
        <ele>1002.31</ele>
        <time>2020-09-02T06:31:49Z</time>
      </trkpt>
      <trkpt lat="44.59937" lon="2.94488">
        <ele>1003.75</ele>
        <time>2020-09-02T06:32:04Z</time>
      </trkpt>
      <trkpt lat="44.59949" lon="2.94501">
        <ele>1005.2</ele>
        <time>2020-09-02T06:32:19Z</time>
      </trkpt>
      <trkpt lat="44.5996" lon="2.94514">
        <ele>1006.64</ele>
        <time>2020-09-02T06:32:34Z</time>
      </trkpt>
      <trkpt lat="44.59973" lon="2.94529">
        <ele>1007.12</ele>
        <time>2020-09-02T06:32:49Z</time>
      </trkpt>
      <trkpt lat="44.59984" lon="2.94545">
        <ele>1007.6</ele>
        <time>2020-09-02T06:33:04Z</time>
      </trkpt>
      <trkpt lat="44.59992" lon="2.94561">
        <ele>1008.08</ele>
        <time>2020-09-02T06:33:19Z</time>
      </trkpt>
      <trkpt lat="44.60001" lon="2.94576">
        <ele>1009.04</ele>
        <time>2020-09-02T06:33:34Z</time>
      </trkpt>
      <trkpt lat="44.60009" lon="2.94592">
        <ele>1010</ele>
        <time>2020-09-02T06:33:49Z</time>
      </trkpt>
      <trkpt lat="44.60019" lon="2.94606">
        <ele>1010.48</ele>
        <time>2020-09-02T06:34:04Z</time>
      </trkpt>
      <trkpt lat="44.60031" lon="2.94622">
        <ele>1011.93</ele>
        <time>2020-09-02T06:34:19Z</time>
      </trkpt>
      <trkpt lat="44.60046" lon="2.94635">
        <ele>1013.85</ele>
        <time>2020-09-02T06:34:34Z</time>
      </trkpt>
      <trkpt lat="44.60058" lon="2.94645">
        <ele>1014.81</ele>
        <time>2020-09-02T06:34:49Z</time>
      </trkpt>
      <trkpt lat="44.60071" lon="2.94655">
        <ele>1016.25</ele>
        <time>2020-09-02T06:35:04Z</time>
      </trkpt>
      <trkpt lat="44.6008" lon="2.94674">
        <ele>1017.21</ele>
        <time>2020-09-02T06:35:19Z</time>
      </trkpt>
      <trkpt lat="44.60091" lon="2.94692">
        <ele>1018.17</ele>
        <time>2020-09-02T06:35:34Z</time>
      </trkpt>
      <trkpt lat="44.60099" lon="2.94705">
        <ele>1018.65</ele>
        <time>2020-09-02T06:35:49Z</time>
      </trkpt>
      <trkpt lat="44.6011" lon="2.94724">
        <ele>1019.13</ele>
        <time>2020-09-02T06:36:04Z</time>
      </trkpt>
      <trkpt lat="44.60124" lon="2.94732">
        <ele>1021.06</ele>
        <time>2020-09-02T06:36:19Z</time>
      </trkpt>
      <trkpt lat="44.6014" lon="2.94747">
        <ele>1021.54</ele>
        <time>2020-09-02T06:36:34Z</time>
      </trkpt>
      <trkpt lat="44.60153" lon="2.94758">
        <ele>1020.58</ele>
        <time>2020-09-02T06:36:49Z</time>
      </trkpt>
      <trkpt lat="44.60153" lon="2.94767">
        <ele>1022.98</ele>
        <time>2020-09-02T06:37:04Z</time>
      </trkpt>
      <trkpt lat="44.60151" lon="2.94776">
        <ele>1024.9</ele>
        <time>2020-09-02T06:37:19Z</time>
      </trkpt>
      <trkpt lat="44.60152" lon="2.94787">
        <ele>1027.31</ele>
        <time>2020-09-02T06:37:34Z</time>
      </trkpt>
      <trkpt lat="44.60143" lon="2.94793">
        <ele>1029.71</ele>
        <time>2020-09-02T06:37:49Z</time>
      </trkpt>
      <trkpt lat="44.60132" lon="2.94797">
        <ele>1032.59</ele>
        <time>2020-09-02T06:38:04Z</time>
      </trkpt>
      <trkpt lat="44.60125" lon="2.94804">
        <ele>1034.04</ele>
        <time>2020-09-02T06:38:19Z</time>
      </trkpt>
      <trkpt lat="44.60118" lon="2.94812">
        <ele>1036.92</ele>
        <time>2020-09-02T06:38:34Z</time>
      </trkpt>
      <trkpt lat="44.60106" lon="2.94813">
        <ele>1038.84</ele>
        <time>2020-09-02T06:38:49Z</time>
      </trkpt>
      <trkpt lat="44.60095" lon="2.94811">
        <ele>1040.76</ele>
        <time>2020-09-02T06:39:04Z</time>
      </trkpt>
      <trkpt lat="44.60084" lon="2.94816">
        <ele>1042.21</ele>
        <time>2020-09-02T06:39:19Z</time>
      </trkpt>
      <trkpt lat="44.60071" lon="2.94819">
        <ele>1043.65</ele>
        <time>2020-09-02T06:39:34Z</time>
      </trkpt>
      <trkpt lat="44.6006" lon="2.94821">
        <ele>1045.57</ele>
        <time>2020-09-02T06:39:49Z</time>
      </trkpt>
      <trkpt lat="44.60047" lon="2.94826">
        <ele>1047.01</ele>
        <time>2020-09-02T06:40:04Z</time>
      </trkpt>
      <trkpt lat="44.60037" lon="2.94835">
        <ele>1049.42</ele>
        <time>2020-09-02T06:40:19Z</time>
      </trkpt>
      <trkpt lat="44.6003" lon="2.94838">
        <ele>1052.3</ele>
        <time>2020-09-02T06:40:34Z</time>
      </trkpt>
      <trkpt lat="44.6002" lon="2.94841">
        <ele>1054.7</ele>
        <time>2020-09-02T06:40:49Z</time>
      </trkpt>
      <trkpt lat="44.60017" lon="2.94852">
        <ele>1056.63</ele>
        <time>2020-09-02T06:41:04Z</time>
      </trkpt>
      <trkpt lat="44.60014" lon="2.94854">
        <ele>1056.63</ele>
        <time>2020-09-02T06:41:19Z</time>
      </trkpt>
      <trkpt lat="44.60015" lon="2.94852">
        <ele>1056.63</ele>
        <time>2020-09-02T06:41:34Z</time>
      </trkpt>
      <trkpt lat="44.60012" lon="2.94854">
        <ele>1057.11</ele>
        <time>2020-09-02T06:41:49Z</time>
      </trkpt>
      <trkpt lat="44.60002" lon="2.94861">
        <ele>1059.03</ele>
        <time>2020-09-02T06:42:04Z</time>
      </trkpt>
      <trkpt lat="44.59993" lon="2.94875">
        <ele>1060.95</ele>
        <time>2020-09-02T06:42:19Z</time>
      </trkpt>
      <trkpt lat="44.5999" lon="2.94882">
        <ele>1062.39</ele>
        <time>2020-09-02T06:42:34Z</time>
      </trkpt>
      <trkpt lat="44.5999" lon="2.9489">
        <ele>1062.87</ele>
        <time>2020-09-02T06:42:49Z</time>
      </trkpt>
      <trkpt lat="44.5999" lon="2.94902">
        <ele>1062.39</ele>
        <time>2020-09-02T06:43:04Z</time>
      </trkpt>
      <trkpt lat="44.59984" lon="2.94914">
        <ele>1060.47</ele>
        <time>2020-09-02T06:43:19Z</time>
      </trkpt>
      <trkpt lat="44.5998" lon="2.9492">
        <ele>1060.47</ele>
        <time>2020-09-02T06:43:34Z</time>
      </trkpt>
      <trkpt lat="44.59978" lon="2.94921">
        <ele>1059.99</ele>
        <time>2020-09-02T06:43:49Z</time>
      </trkpt>
      <trkpt lat="44.5998" lon="2.94924">
        <ele>1059.51</ele>
        <time>2020-09-02T06:44:04Z</time>
      </trkpt>
      <trkpt lat="44.5998" lon="2.94925">
        <ele>1060.47</ele>
        <time>2020-09-02T06:44:19Z</time>
      </trkpt>
      <trkpt lat="44.59979" lon="2.94924">
        <ele>1059.99</ele>
        <time>2020-09-02T06:44:34Z</time>
      </trkpt>
      <trkpt lat="44.59978" lon="2.94922">
        <ele>1059.99</ele>
        <time>2020-09-02T06:44:49Z</time>
      </trkpt>
      <trkpt lat="44.59981" lon="2.94924">
        <ele>1059.99</ele>
        <time>2020-09-02T06:45:04Z</time>
      </trkpt>
      <trkpt lat="44.59986" lon="2.9493">
        <ele>1060.95</ele>
        <time>2020-09-02T06:45:19Z</time>
      </trkpt>
      <trkpt lat="44.59996" lon="2.9494">
        <ele>1061.43</ele>
        <time>2020-09-02T06:45:34Z</time>
      </trkpt>
      <trkpt lat="44.60005" lon="2.94949">
        <ele>1062.87</ele>
        <time>2020-09-02T06:45:49Z</time>
      </trkpt>
      <trkpt lat="44.60014" lon="2.94955">
        <ele>1064.32</ele>
        <time>2020-09-02T06:46:04Z</time>
      </trkpt>
      <trkpt lat="44.60024" lon="2.94965">
        <ele>1065.28</ele>
        <time>2020-09-02T06:46:19Z</time>
      </trkpt>
      <trkpt lat="44.60035" lon="2.94974">
        <ele>1066.24</ele>
        <time>2020-09-02T06:46:34Z</time>
      </trkpt>
      <trkpt lat="44.60047" lon="2.94984">
        <ele>1068.16</ele>
        <time>2020-09-02T06:46:49Z</time>
      </trkpt>
      <trkpt lat="44.60059" lon="2.94989">
        <ele>1070.08</ele>
        <time>2020-09-02T06:47:04Z</time>
      </trkpt>
      <trkpt lat="44.60071" lon="2.95">
        <ele>1071.53</ele>
        <time>2020-09-02T06:47:19Z</time>
      </trkpt>
      <trkpt lat="44.60081" lon="2.9501">
        <ele>1072.49</ele>
        <time>2020-09-02T06:47:34Z</time>
      </trkpt>
      <trkpt lat="44.60092" lon="2.9502">
        <ele>1073.45</ele>
        <time>2020-09-02T06:47:49Z</time>
      </trkpt>
      <trkpt lat="44.601" lon="2.95037">
        <ele>1073.93</ele>
        <time>2020-09-02T06:48:04Z</time>
      </trkpt>
      <trkpt lat="44.60104" lon="2.95048">
        <ele>1074.41</ele>
        <time>2020-09-02T06:48:19Z</time>
      </trkpt>
      <trkpt lat="44.60106" lon="2.95048">
        <ele>1074.89</ele>
        <time>2020-09-02T06:48:34Z</time>
      </trkpt>
      <trkpt lat="44.60107" lon="2.95047">
        <ele>1075.37</ele>
        <time>2020-09-02T06:48:49Z</time>
      </trkpt>
      <trkpt lat="44.60109" lon="2.95065">
        <ele>1076.81</ele>
        <time>2020-09-02T06:49:04Z</time>
      </trkpt>
      <trkpt lat="44.60113" lon="2.95068">
        <ele>1077.29</ele>
        <time>2020-09-02T06:49:19Z</time>
      </trkpt>
      <trkpt lat="44.60113" lon="2.95079">
        <ele>1078.74</ele>
        <time>2020-09-02T06:49:34Z</time>
      </trkpt>
      <trkpt lat="44.60118" lon="2.95093">
        <ele>1081.62</ele>
        <time>2020-09-02T06:49:49Z</time>
      </trkpt>
      <trkpt lat="44.60126" lon="2.95106">
        <ele>1084.5</ele>
        <time>2020-09-02T06:50:04Z</time>
      </trkpt>
      <trkpt lat="44.60132" lon="2.95123">
        <ele>1086.91</ele>
        <time>2020-09-02T06:50:19Z</time>
      </trkpt>
      <trkpt lat="44.60133" lon="2.95137">
        <ele>1088.35</ele>
        <time>2020-09-02T06:50:34Z</time>
      </trkpt>
      <trkpt lat="44.6013" lon="2.9515">
        <ele>1087.87</ele>
        <time>2020-09-02T06:50:49Z</time>
      </trkpt>
      <trkpt lat="44.60129" lon="2.95161">
        <ele>1088.35</ele>
        <time>2020-09-02T06:51:04Z</time>
      </trkpt>
      <trkpt lat="44.60135" lon="2.95179">
        <ele>1087.87</ele>
        <time>2020-09-02T06:51:19Z</time>
      </trkpt>
      <trkpt lat="44.60149" lon="2.95181">
        <ele>1089.79</ele>
        <time>2020-09-02T06:51:34Z</time>
      </trkpt>
      <trkpt lat="44.60157" lon="2.95179">
        <ele>1090.27</ele>
        <time>2020-09-02T06:51:49Z</time>
      </trkpt>
      <trkpt lat="44.60159" lon="2.95181">
        <ele>1090.27</ele>
        <time>2020-09-02T06:52:04Z</time>
      </trkpt>
      <trkpt lat="44.60168" lon="2.95189">
        <ele>1091.23</ele>
        <time>2020-09-02T06:52:19Z</time>
      </trkpt>
      <trkpt lat="44.60168" lon="2.95189">
        <ele>1092.2</ele>
        <time>2020-09-02T06:52:34Z</time>
      </trkpt>
      <trkpt lat="44.60169" lon="2.95205">
        <ele>1093.16</ele>
        <time>2020-09-02T06:52:49Z</time>
      </trkpt>
      <trkpt lat="44.60166" lon="2.95226">
        <ele>1095.08</ele>
        <time>2020-09-02T06:53:04Z</time>
      </trkpt>
      <trkpt lat="44.60164" lon="2.95245">
        <ele>1096.52</ele>
        <time>2020-09-02T06:53:19Z</time>
      </trkpt>
      <trkpt lat="44.6016" lon="2.95246">
        <ele>1097.48</ele>
        <time>2020-09-02T06:53:34Z</time>
      </trkpt>
      <trkpt lat="44.6016" lon="2.95247">
        <ele>1097</ele>
        <time>2020-09-02T06:53:49Z</time>
      </trkpt>
      <trkpt lat="44.60159" lon="2.95247">
        <ele>1097</ele>
        <time>2020-09-02T06:54:04Z</time>
      </trkpt>
      <trkpt lat="44.60163" lon="2.95251">
        <ele>1097.48</ele>
        <time>2020-09-02T06:54:19Z</time>
      </trkpt>
      <trkpt lat="44.60175" lon="2.95246">
        <ele>1097.96</ele>
        <time>2020-09-02T06:54:34Z</time>
      </trkpt>
      <trkpt lat="44.60189" lon="2.95236">
        <ele>1099.89</ele>
        <time>2020-09-02T06:54:49Z</time>
      </trkpt>
      <trkpt lat="44.60201" lon="2.95222">
        <ele>1101.81</ele>
        <time>2020-09-02T06:55:04Z</time>
      </trkpt>
      <trkpt lat="44.60202" lon="2.9522">
        <ele>1101.81</ele>
        <time>2020-09-02T06:55:19Z</time>
      </trkpt>
      <trkpt lat="44.60206" lon="2.95216">
        <ele>1102.77</ele>
        <time>2020-09-02T06:55:34Z</time>
      </trkpt>
      <trkpt lat="44.60217" lon="2.952">
        <ele>1103.73</ele>
        <time>2020-09-02T06:55:49Z</time>
      </trkpt>
      <trkpt lat="44.60218" lon="2.95198">
        <ele>1104.69</ele>
        <time>2020-09-02T06:56:04Z</time>
      </trkpt>
      <trkpt lat="44.6022" lon="2.95195">
        <ele>1103.73</ele>
        <time>2020-09-02T06:56:19Z</time>
      </trkpt>
      <trkpt lat="44.60229" lon="2.95184">
        <ele>1104.69</ele>
        <time>2020-09-02T06:56:34Z</time>
      </trkpt>
      <trkpt lat="44.60246" lon="2.9518">
        <ele>1105.17</ele>
        <time>2020-09-02T06:56:49Z</time>
      </trkpt>
      <trkpt lat="44.60254" lon="2.9518">
        <ele>1105.65</ele>
        <time>2020-09-02T06:57:04Z</time>
      </trkpt>
      <trkpt lat="44.60256" lon="2.95177">
        <ele>1105.65</ele>
        <time>2020-09-02T06:57:19Z</time>
      </trkpt>
      <trkpt lat="44.60257" lon="2.95177">
        <ele>1105.65</ele>
        <time>2020-09-02T06:57:34Z</time>
      </trkpt>
      <trkpt lat="44.60256" lon="2.95176">
        <ele>1106.13</ele>
        <time>2020-09-02T06:57:49Z</time>
      </trkpt>
      <trkpt lat="44.60255" lon="2.95187">
        <ele>1107.1</ele>
        <time>2020-09-02T06:58:04Z</time>
      </trkpt>
      <trkpt lat="44.60253" lon="2.95194">
        <ele>1107.58</ele>
        <time>2020-09-02T06:58:19Z</time>
      </trkpt>
      <trkpt lat="44.60243" lon="2.95203">
        <ele>1109.98</ele>
        <time>2020-09-02T06:58:34Z</time>
      </trkpt>
      <trkpt lat="44.60235" lon="2.95212">
        <ele>1110.46</ele>
        <time>2020-09-02T06:58:49Z</time>
      </trkpt>
      <trkpt lat="44.60231" lon="2.95226">
        <ele>1112.86</ele>
        <time>2020-09-02T06:59:04Z</time>
      </trkpt>
      <trkpt lat="44.60238" lon="2.9524">
        <ele>1115.27</ele>
        <time>2020-09-02T06:59:19Z</time>
      </trkpt>
      <trkpt lat="44.60247" lon="2.95247">
        <ele>1117.19</ele>
        <time>2020-09-02T06:59:34Z</time>
      </trkpt>
      <trkpt lat="44.60255" lon="2.95254">
        <ele>1119.59</ele>
        <time>2020-09-02T06:59:49Z</time>
      </trkpt>
      <trkpt lat="44.6026" lon="2.95267">
        <ele>1122</ele>
        <time>2020-09-02T07:00:04Z</time>
      </trkpt>
      <trkpt lat="44.60268" lon="2.95276">
        <ele>1123.92</ele>
        <time>2020-09-02T07:00:19Z</time>
      </trkpt>
      <trkpt lat="44.60273" lon="2.95281">
        <ele>1124.88</ele>
        <time>2020-09-02T07:00:34Z</time>
      </trkpt>
      <trkpt lat="44.60272" lon="2.95279">
        <ele>1124.88</ele>
        <time>2020-09-02T07:00:49Z</time>
      </trkpt>
      <trkpt lat="44.60273" lon="2.95281">
        <ele>1124.4</ele>
        <time>2020-09-02T07:01:04Z</time>
      </trkpt>
      <trkpt lat="44.60275" lon="2.9529">
        <ele>1126.32</ele>
        <time>2020-09-02T07:01:19Z</time>
      </trkpt>
      <trkpt lat="44.60278" lon="2.95307">
        <ele>1128.73</ele>
        <time>2020-09-02T07:01:34Z</time>
      </trkpt>
      <trkpt lat="44.60282" lon="2.95328">
        <ele>1129.69</ele>
        <time>2020-09-02T07:01:49Z</time>
      </trkpt>
      <trkpt lat="44.60286" lon="2.95346">
        <ele>1129.69</ele>
        <time>2020-09-02T07:02:04Z</time>
      </trkpt>
      <trkpt lat="44.60288" lon="2.95366">
        <ele>1128.73</ele>
        <time>2020-09-02T07:02:19Z</time>
      </trkpt>
      <trkpt lat="44.60288" lon="2.95382">
        <ele>1127.76</ele>
        <time>2020-09-02T07:02:34Z</time>
      </trkpt>
      <trkpt lat="44.60289" lon="2.9539">
        <ele>1128.24</ele>
        <time>2020-09-02T07:02:49Z</time>
      </trkpt>
      <trkpt lat="44.60288" lon="2.95389">
        <ele>1127.76</ele>
        <time>2020-09-02T07:03:04Z</time>
      </trkpt>
      <trkpt lat="44.60287" lon="2.9539">
        <ele>1127.28</ele>
        <time>2020-09-02T07:03:19Z</time>
      </trkpt>
      <trkpt lat="44.60289" lon="2.95391">
        <ele>1127.76</ele>
        <time>2020-09-02T07:03:34Z</time>
      </trkpt>
      <trkpt lat="44.60288" lon="2.95389">
        <ele>1127.76</ele>
        <time>2020-09-02T07:03:49Z</time>
      </trkpt>
      <trkpt lat="44.60283" lon="2.95397">
        <ele>1127.28</ele>
        <time>2020-09-02T07:04:04Z</time>
      </trkpt>
      <trkpt lat="44.60284" lon="2.95401">
        <ele>1126.8</ele>
        <time>2020-09-02T07:04:19Z</time>
      </trkpt>
      <trkpt lat="44.60289" lon="2.95412">
        <ele>1126.32</ele>
        <time>2020-09-02T07:04:34Z</time>
      </trkpt>
      <trkpt lat="44.60298" lon="2.95424">
        <ele>1126.32</ele>
        <time>2020-09-02T07:04:49Z</time>
      </trkpt>
      <trkpt lat="44.60306" lon="2.9544">
        <ele>1126.32</ele>
        <time>2020-09-02T07:05:04Z</time>
      </trkpt>
      <trkpt lat="44.6031" lon="2.95452">
        <ele>1126.8</ele>
        <time>2020-09-02T07:05:19Z</time>
      </trkpt>
      <trkpt lat="44.60313" lon="2.95471">
        <ele>1127.28</ele>
        <time>2020-09-02T07:05:34Z</time>
      </trkpt>
      <trkpt lat="44.60319" lon="2.95487">
        <ele>1127.76</ele>
        <time>2020-09-02T07:05:49Z</time>
      </trkpt>
      <trkpt lat="44.60324" lon="2.95499">
        <ele>1128.24</ele>
        <time>2020-09-02T07:06:04Z</time>
      </trkpt>
      <trkpt lat="44.60332" lon="2.95516">
        <ele>1129.21</ele>
        <time>2020-09-02T07:06:19Z</time>
      </trkpt>
      <trkpt lat="44.60341" lon="2.95528">
        <ele>1129.69</ele>
        <time>2020-09-02T07:06:34Z</time>
      </trkpt>
      <trkpt lat="44.60353" lon="2.95544">
        <ele>1130.65</ele>
        <time>2020-09-02T07:06:49Z</time>
      </trkpt>
      <trkpt lat="44.60369" lon="2.95553">
        <ele>1132.57</ele>
        <time>2020-09-02T07:07:04Z</time>
      </trkpt>
      <trkpt lat="44.6038" lon="2.95556">
        <ele>1134.49</ele>
        <time>2020-09-02T07:07:19Z</time>
      </trkpt>
      <trkpt lat="44.60395" lon="2.95565">
        <ele>1136.42</ele>
        <time>2020-09-02T07:07:34Z</time>
      </trkpt>
      <trkpt lat="44.6041" lon="2.95573">
        <ele>1138.82</ele>
        <time>2020-09-02T07:07:49Z</time>
      </trkpt>
      <trkpt lat="44.60417" lon="2.9557">
        <ele>1140.74</ele>
        <time>2020-09-02T07:08:04Z</time>
      </trkpt>
      <trkpt lat="44.60422" lon="2.95557">
        <ele>1142.66</ele>
        <time>2020-09-02T07:08:19Z</time>
      </trkpt>
      <trkpt lat="44.60416" lon="2.95545">
        <ele>1144.59</ele>
        <time>2020-09-02T07:08:34Z</time>
      </trkpt>
      <trkpt lat="44.60409" lon="2.95534">
        <ele>1146.51</ele>
        <time>2020-09-02T07:08:49Z</time>
      </trkpt>
      <trkpt lat="44.60402" lon="2.95519">
        <ele>1148.91</ele>
        <time>2020-09-02T07:09:04Z</time>
      </trkpt>
      <trkpt lat="44.60398" lon="2.95506">
        <ele>1151.32</ele>
        <time>2020-09-02T07:09:19Z</time>
      </trkpt>
      <trkpt lat="44.60402" lon="2.95492">
        <ele>1154.2</ele>
        <time>2020-09-02T07:09:34Z</time>
      </trkpt>
      <trkpt lat="44.60414" lon="2.95483">
        <ele>1155.16</ele>
        <time>2020-09-02T07:09:49Z</time>
      </trkpt>
      <trkpt lat="44.60429" lon="2.95473">
        <ele>1156.12</ele>
        <time>2020-09-02T07:10:04Z</time>
      </trkpt>
      <trkpt lat="44.60439" lon="2.9548">
        <ele>1158.05</ele>
        <time>2020-09-02T07:10:19Z</time>
      </trkpt>
      <trkpt lat="44.60451" lon="2.95484">
        <ele>1159.01</ele>
        <time>2020-09-02T07:10:34Z</time>
      </trkpt>
      <trkpt lat="44.60454" lon="2.95485">
        <ele>1159.97</ele>
        <time>2020-09-02T07:10:49Z</time>
      </trkpt>
      <trkpt lat="44.60454" lon="2.95486">
        <ele>1159.97</ele>
        <time>2020-09-02T07:11:04Z</time>
      </trkpt>
      <trkpt lat="44.60455" lon="2.95488">
        <ele>1159.49</ele>
        <time>2020-09-02T07:11:19Z</time>
      </trkpt>
      <trkpt lat="44.60467" lon="2.95493">
        <ele>1160.93</ele>
        <time>2020-09-02T07:11:34Z</time>
      </trkpt>
      <trkpt lat="44.6048" lon="2.95503">
        <ele>1161.41</ele>
        <time>2020-09-02T07:11:49Z</time>
      </trkpt>
      <trkpt lat="44.60494" lon="2.95511">
        <ele>1162.85</ele>
        <time>2020-09-02T07:12:04Z</time>
      </trkpt>
      <trkpt lat="44.60508" lon="2.95519">
        <ele>1163.81</ele>
        <time>2020-09-02T07:12:19Z</time>
      </trkpt>
      <trkpt lat="44.60521" lon="2.95525">
        <ele>1164.77</ele>
        <time>2020-09-02T07:12:34Z</time>
      </trkpt>
      <trkpt lat="44.60534" lon="2.95529">
        <ele>1166.22</ele>
        <time>2020-09-02T07:12:49Z</time>
      </trkpt>
      <trkpt lat="44.60546" lon="2.95533">
        <ele>1169.1</ele>
        <time>2020-09-02T07:13:04Z</time>
      </trkpt>
      <trkpt lat="44.60554" lon="2.95546">
        <ele>1170.54</ele>
        <time>2020-09-02T07:13:18Z</time>
      </trkpt>
      <trkpt lat="44.60556" lon="2.95564">
        <ele>1171.98</ele>
        <time>2020-09-02T07:13:33Z</time>
      </trkpt>
      <trkpt lat="44.60554" lon="2.9558">
        <ele>1172.95</ele>
        <time>2020-09-02T07:13:48Z</time>
      </trkpt>
      <trkpt lat="44.60555" lon="2.95592">
        <ele>1173.91</ele>
        <time>2020-09-02T07:14:03Z</time>
      </trkpt>
      <trkpt lat="44.60553" lon="2.95596">
        <ele>1173.91</ele>
        <time>2020-09-02T07:14:18Z</time>
      </trkpt>
      <trkpt lat="44.60557" lon="2.95614">
        <ele>1176.31</ele>
        <time>2020-09-02T07:14:33Z</time>
      </trkpt>
      <trkpt lat="44.60563" lon="2.95629">
        <ele>1178.23</ele>
        <time>2020-09-02T07:14:48Z</time>
      </trkpt>
      <trkpt lat="44.60573" lon="2.95639">
        <ele>1180.16</ele>
        <time>2020-09-02T07:15:03Z</time>
      </trkpt>
      <trkpt lat="44.60582" lon="2.9565">
        <ele>1181.6</ele>
        <time>2020-09-02T07:15:18Z</time>
      </trkpt>
      <trkpt lat="44.60591" lon="2.95659">
        <ele>1182.56</ele>
        <time>2020-09-02T07:15:33Z</time>
      </trkpt>
      <trkpt lat="44.60599" lon="2.95664">
        <ele>1184</ele>
        <time>2020-09-02T07:15:48Z</time>
      </trkpt>
      <trkpt lat="44.60612" lon="2.95677">
        <ele>1186.88</ele>
        <time>2020-09-02T07:16:03Z</time>
      </trkpt>
      <trkpt lat="44.60627" lon="2.95685">
        <ele>1187.37</ele>
        <time>2020-09-02T07:16:18Z</time>
      </trkpt>
      <trkpt lat="44.6064" lon="2.95694">
        <ele>1188.81</ele>
        <time>2020-09-02T07:16:33Z</time>
      </trkpt>
      <trkpt lat="44.60652" lon="2.95701">
        <ele>1190.73</ele>
        <time>2020-09-02T07:16:48Z</time>
      </trkpt>
      <trkpt lat="44.60665" lon="2.95711">
        <ele>1192.17</ele>
        <time>2020-09-02T07:17:03Z</time>
      </trkpt>
      <trkpt lat="44.6068" lon="2.95717">
        <ele>1193.13</ele>
        <time>2020-09-02T07:17:18Z</time>
      </trkpt>
      <trkpt lat="44.60696" lon="2.95724">
        <ele>1194.58</ele>
        <time>2020-09-02T07:17:33Z</time>
      </trkpt>
      <trkpt lat="44.60711" lon="2.9573">
        <ele>1195.54</ele>
        <time>2020-09-02T07:17:48Z</time>
      </trkpt>
      <trkpt lat="44.60726" lon="2.95733">
        <ele>1196.98</ele>
        <time>2020-09-02T07:18:03Z</time>
      </trkpt>
      <trkpt lat="44.60743" lon="2.95739">
        <ele>1198.42</ele>
        <time>2020-09-02T07:18:18Z</time>
      </trkpt>
      <trkpt lat="44.60752" lon="2.95741">
        <ele>1198.42</ele>
        <time>2020-09-02T07:18:33Z</time>
      </trkpt>
      <trkpt lat="44.60754" lon="2.95741">
        <ele>1198.9</ele>
        <time>2020-09-02T07:18:48Z</time>
      </trkpt>
      <trkpt lat="44.60756" lon="2.9574">
        <ele>1198.9</ele>
        <time>2020-09-02T07:19:03Z</time>
      </trkpt>
      <trkpt lat="44.60756" lon="2.95739">
        <ele>1198.9</ele>
        <time>2020-09-02T07:19:18Z</time>
      </trkpt>
      <trkpt lat="44.60756" lon="2.95738">
        <ele>1198.42</ele>
        <time>2020-09-02T07:19:33Z</time>
      </trkpt>
      <trkpt lat="44.60756" lon="2.95737">
        <ele>1197.94</ele>
        <time>2020-09-02T07:19:48Z</time>
      </trkpt>
      <trkpt lat="44.60756" lon="2.9574">
        <ele>1198.42</ele>
        <time>2020-09-02T07:20:03Z</time>
      </trkpt>
      <trkpt lat="44.60755" lon="2.95741">
        <ele>1198.42</ele>
        <time>2020-09-02T07:20:18Z</time>
      </trkpt>
      <trkpt lat="44.60754" lon="2.9574">
        <ele>1198.42</ele>
        <time>2020-09-02T07:20:33Z</time>
      </trkpt>
      <trkpt lat="44.60761" lon="2.95751">
        <ele>1198.9</ele>
        <time>2020-09-02T07:20:48Z</time>
      </trkpt>
      <trkpt lat="44.60773" lon="2.95773">
        <ele>1200.34</ele>
        <time>2020-09-02T07:21:03Z</time>
      </trkpt>
      <trkpt lat="44.6078" lon="2.95796">
        <ele>1200.82</ele>
        <time>2020-09-02T07:21:18Z</time>
      </trkpt>
      <trkpt lat="44.60786" lon="2.9582">
        <ele>1202.27</ele>
        <time>2020-09-02T07:21:33Z</time>
      </trkpt>
      <trkpt lat="44.60798" lon="2.95838">
        <ele>1204.19</ele>
        <time>2020-09-02T07:21:48Z</time>
      </trkpt>
      <trkpt lat="44.60811" lon="2.95854">
        <ele>1204.67</ele>
        <time>2020-09-02T07:22:03Z</time>
      </trkpt>
      <trkpt lat="44.60819" lon="2.95863">
        <ele>1205.15</ele>
        <time>2020-09-02T07:22:18Z</time>
      </trkpt>
      <trkpt lat="44.60828" lon="2.95863">
        <ele>1205.15</ele>
        <time>2020-09-02T07:22:33Z</time>
      </trkpt>
      <trkpt lat="44.60844" lon="2.95874">
        <ele>1206.11</ele>
        <time>2020-09-02T07:22:48Z</time>
      </trkpt>
      <trkpt lat="44.6086" lon="2.95885">
        <ele>1205.63</ele>
        <time>2020-09-02T07:23:03Z</time>
      </trkpt>
      <trkpt lat="44.60876" lon="2.95893">
        <ele>1206.11</ele>
        <time>2020-09-02T07:23:18Z</time>
      </trkpt>
      <trkpt lat="44.60891" lon="2.95905">
        <ele>1207.55</ele>
        <time>2020-09-02T07:23:33Z</time>
      </trkpt>
      <trkpt lat="44.60901" lon="2.95921">
        <ele>1209</ele>
        <time>2020-09-02T07:23:48Z</time>
      </trkpt>
      <trkpt lat="44.60914" lon="2.95934">
        <ele>1210.44</ele>
        <time>2020-09-02T07:24:03Z</time>
      </trkpt>
      <trkpt lat="44.60927" lon="2.95942">
        <ele>1211.4</ele>
        <time>2020-09-02T07:24:18Z</time>
      </trkpt>
      <trkpt lat="44.60927" lon="2.95942">
        <ele>1210.92</ele>
        <time>2020-09-02T07:24:33Z</time>
      </trkpt>
      <trkpt lat="44.60937" lon="2.95935">
        <ele>1211.4</ele>
        <time>2020-09-02T07:24:48Z</time>
      </trkpt>
      <trkpt lat="44.60949" lon="2.95923">
        <ele>1212.36</ele>
        <time>2020-09-02T07:25:03Z</time>
      </trkpt>
      <trkpt lat="44.60962" lon="2.95907">
        <ele>1213.32</ele>
        <time>2020-09-02T07:25:18Z</time>
      </trkpt>
      <trkpt lat="44.60977" lon="2.95894">
        <ele>1214.76</ele>
        <time>2020-09-02T07:25:33Z</time>
      </trkpt>
      <trkpt lat="44.6099" lon="2.95876">
        <ele>1215.24</ele>
        <time>2020-09-02T07:25:48Z</time>
      </trkpt>
      <trkpt lat="44.61001" lon="2.95857">
        <ele>1216.69</ele>
        <time>2020-09-02T07:26:03Z</time>
      </trkpt>
      <trkpt lat="44.61014" lon="2.95841">
        <ele>1217.65</ele>
        <time>2020-09-02T07:26:18Z</time>
      </trkpt>
      <trkpt lat="44.61028" lon="2.95826">
        <ele>1218.61</ele>
        <time>2020-09-02T07:26:33Z</time>
      </trkpt>
      <trkpt lat="44.61042" lon="2.95814">
        <ele>1219.57</ele>
        <time>2020-09-02T07:26:48Z</time>
      </trkpt>
      <trkpt lat="44.61059" lon="2.95805">
        <ele>1220.05</ele>
        <time>2020-09-02T07:27:03Z</time>
      </trkpt>
      <trkpt lat="44.61075" lon="2.95798">
        <ele>1221.01</ele>
        <time>2020-09-02T07:27:18Z</time>
      </trkpt>
      <trkpt lat="44.61091" lon="2.95788">
        <ele>1221.49</ele>
        <time>2020-09-02T07:27:33Z</time>
      </trkpt>
      <trkpt lat="44.611" lon="2.95767">
        <ele>1221.97</ele>
        <time>2020-09-02T07:27:48Z</time>
      </trkpt>
      <trkpt lat="44.61101" lon="2.95742">
        <ele>1222.45</ele>
        <time>2020-09-02T07:28:03Z</time>
      </trkpt>
      <trkpt lat="44.61102" lon="2.95732">
        <ele>1222.93</ele>
        <time>2020-09-02T07:28:18Z</time>
      </trkpt>
      <trkpt lat="44.61106" lon="2.95714">
        <ele>1223.42</ele>
        <time>2020-09-02T07:28:33Z</time>
      </trkpt>
      <trkpt lat="44.61107" lon="2.95709">
        <ele>1223.42</ele>
        <time>2020-09-02T07:28:48Z</time>
      </trkpt>
      <trkpt lat="44.61108" lon="2.95708">
        <ele>1222.93</ele>
        <time>2020-09-02T07:29:03Z</time>
      </trkpt>
      <trkpt lat="44.6111" lon="2.95704">
        <ele>1223.42</ele>
        <time>2020-09-02T07:29:18Z</time>
      </trkpt>
      <trkpt lat="44.61112" lon="2.95701">
        <ele>1223.42</ele>
        <time>2020-09-02T07:29:33Z</time>
      </trkpt>
      <trkpt lat="44.61118" lon="2.95699">
        <ele>1223.42</ele>
        <time>2020-09-02T07:29:48Z</time>
      </trkpt>
      <trkpt lat="44.61121" lon="2.95695">
        <ele>1223.42</ele>
        <time>2020-09-02T07:30:03Z</time>
      </trkpt>
      <trkpt lat="44.61139" lon="2.95681">
        <ele>1223.9</ele>
        <time>2020-09-02T07:30:18Z</time>
      </trkpt>
      <trkpt lat="44.61158" lon="2.95674">
        <ele>1226.3</ele>
        <time>2020-09-02T07:30:33Z</time>
      </trkpt>
      <trkpt lat="44.61177" lon="2.95669">
        <ele>1226.78</ele>
        <time>2020-09-02T07:30:48Z</time>
      </trkpt>
      <trkpt lat="44.61195" lon="2.95662">
        <ele>1228.22</ele>
        <time>2020-09-02T07:31:03Z</time>
      </trkpt>
      <trkpt lat="44.61214" lon="2.95659">
        <ele>1228.7</ele>
        <time>2020-09-02T07:31:18Z</time>
      </trkpt>
      <trkpt lat="44.61232" lon="2.95654">
        <ele>1229.18</ele>
        <time>2020-09-02T07:31:33Z</time>
      </trkpt>
      <trkpt lat="44.61251" lon="2.95651">
        <ele>1230.14</ele>
        <time>2020-09-02T07:31:48Z</time>
      </trkpt>
      <trkpt lat="44.6127" lon="2.95648">
        <ele>1231.59</ele>
        <time>2020-09-02T07:32:03Z</time>
      </trkpt>
      <trkpt lat="44.61288" lon="2.95641">
        <ele>1231.59</ele>
        <time>2020-09-02T07:32:18Z</time>
      </trkpt>
      <trkpt lat="44.61303" lon="2.95631">
        <ele>1232.55</ele>
        <time>2020-09-02T07:32:33Z</time>
      </trkpt>
      <trkpt lat="44.61317" lon="2.95621">
        <ele>1233.03</ele>
        <time>2020-09-02T07:32:48Z</time>
      </trkpt>
      <trkpt lat="44.61334" lon="2.95611">
        <ele>1234.47</ele>
        <time>2020-09-02T07:33:03Z</time>
      </trkpt>
      <trkpt lat="44.61351" lon="2.95601">
        <ele>1234.95</ele>
        <time>2020-09-02T07:33:18Z</time>
      </trkpt>
      <trkpt lat="44.61367" lon="2.95595">
        <ele>1234.47</ele>
        <time>2020-09-02T07:33:33Z</time>
      </trkpt>
      <trkpt lat="44.6138" lon="2.95589">
        <ele>1233.99</ele>
        <time>2020-09-02T07:33:48Z</time>
      </trkpt>
      <trkpt lat="44.614" lon="2.95581">
        <ele>1233.99</ele>
        <time>2020-09-02T07:34:03Z</time>
      </trkpt>
      <trkpt lat="44.61421" lon="2.95573">
        <ele>1233.99</ele>
        <time>2020-09-02T07:34:18Z</time>
      </trkpt>
      <trkpt lat="44.61441" lon="2.95562">
        <ele>1234.47</ele>
        <time>2020-09-02T07:34:33Z</time>
      </trkpt>
      <trkpt lat="44.61459" lon="2.95551">
        <ele>1234.95</ele>
        <time>2020-09-02T07:34:48Z</time>
      </trkpt>
      <trkpt lat="44.61477" lon="2.95543">
        <ele>1234.95</ele>
        <time>2020-09-02T07:35:03Z</time>
      </trkpt>
      <trkpt lat="44.61494" lon="2.95535">
        <ele>1235.91</ele>
        <time>2020-09-02T07:35:18Z</time>
      </trkpt>
      <trkpt lat="44.61512" lon="2.95526">
        <ele>1236.39</ele>
        <time>2020-09-02T07:35:33Z</time>
      </trkpt>
      <trkpt lat="44.61529" lon="2.95519">
        <ele>1236.87</ele>
        <time>2020-09-02T07:35:48Z</time>
      </trkpt>
      <trkpt lat="44.61546" lon="2.9551">
        <ele>1237.35</ele>
        <time>2020-09-02T07:36:03Z</time>
      </trkpt>
      <trkpt lat="44.61559" lon="2.95508">
        <ele>1237.83</ele>
        <time>2020-09-02T07:36:18Z</time>
      </trkpt>
      <trkpt lat="44.6156" lon="2.95505">
        <ele>1238.32</ele>
        <time>2020-09-02T07:36:33Z</time>
      </trkpt>
      <trkpt lat="44.61578" lon="2.95494">
        <ele>1239.76</ele>
        <time>2020-09-02T07:36:48Z</time>
      </trkpt>
      <trkpt lat="44.61596" lon="2.95483">
        <ele>1240.24</ele>
        <time>2020-09-02T07:37:03Z</time>
      </trkpt>
      <trkpt lat="44.61613" lon="2.95473">
        <ele>1241.68</ele>
        <time>2020-09-02T07:37:18Z</time>
      </trkpt>
      <trkpt lat="44.61632" lon="2.95464">
        <ele>1240.72</ele>
        <time>2020-09-02T07:37:33Z</time>
      </trkpt>
      <trkpt lat="44.61652" lon="2.95457">
        <ele>1240.72</ele>
        <time>2020-09-02T07:37:48Z</time>
      </trkpt>
      <trkpt lat="44.61671" lon="2.95448">
        <ele>1240.72</ele>
        <time>2020-09-02T07:38:03Z</time>
      </trkpt>
      <trkpt lat="44.61688" lon="2.95441">
        <ele>1240.24</ele>
        <time>2020-09-02T07:38:18Z</time>
      </trkpt>
      <trkpt lat="44.61698" lon="2.95435">
        <ele>1239.76</ele>
        <time>2020-09-02T07:38:33Z</time>
      </trkpt>
      <trkpt lat="44.617" lon="2.95434">
        <ele>1240.24</ele>
        <time>2020-09-02T07:38:48Z</time>
      </trkpt>
      <trkpt lat="44.61702" lon="2.95433">
        <ele>1240.24</ele>
        <time>2020-09-02T07:39:03Z</time>
      </trkpt>
      <trkpt lat="44.61715" lon="2.95417">
        <ele>1241.68</ele>
        <time>2020-09-02T07:39:18Z</time>
      </trkpt>
      <trkpt lat="44.61728" lon="2.95398">
        <ele>1242.16</ele>
        <time>2020-09-02T07:39:33Z</time>
      </trkpt>
      <trkpt lat="44.61742" lon="2.95377">
        <ele>1242.16</ele>
        <time>2020-09-02T07:39:48Z</time>
      </trkpt>
      <trkpt lat="44.61756" lon="2.95358">
        <ele>1242.64</ele>
        <time>2020-09-02T07:40:03Z</time>
      </trkpt>
      <trkpt lat="44.61771" lon="2.95338">
        <ele>1241.68</ele>
        <time>2020-09-02T07:40:18Z</time>
      </trkpt>
      <trkpt lat="44.61786" lon="2.95322">
        <ele>1241.68</ele>
        <time>2020-09-02T07:40:33Z</time>
      </trkpt>
      <trkpt lat="44.61803" lon="2.95308">
        <ele>1242.16</ele>
        <time>2020-09-02T07:40:48Z</time>
      </trkpt>
      <trkpt lat="44.61819" lon="2.95301">
        <ele>1243.6</ele>
        <time>2020-09-02T07:41:03Z</time>
      </trkpt>
      <trkpt lat="44.61833" lon="2.95302">
        <ele>1245.53</ele>
        <time>2020-09-02T07:41:18Z</time>
      </trkpt>
      <trkpt lat="44.61849" lon="2.95297">
        <ele>1245.04</ele>
        <time>2020-09-02T07:41:33Z</time>
      </trkpt>
      <trkpt lat="44.61864" lon="2.95285">
        <ele>1245.04</ele>
        <time>2020-09-02T07:41:48Z</time>
      </trkpt>
      <trkpt lat="44.61883" lon="2.95274">
        <ele>1244.56</ele>
        <time>2020-09-02T07:42:03Z</time>
      </trkpt>
      <trkpt lat="44.61897" lon="2.9526">
        <ele>1244.08</ele>
        <time>2020-09-02T07:42:18Z</time>
      </trkpt>
      <trkpt lat="44.61911" lon="2.95244">
        <ele>1243.6</ele>
        <time>2020-09-02T07:42:33Z</time>
      </trkpt>
      <trkpt lat="44.61925" lon="2.95226">
        <ele>1243.6</ele>
        <time>2020-09-02T07:42:48Z</time>
      </trkpt>
      <trkpt lat="44.6194" lon="2.95212">
        <ele>1242.64</ele>
        <time>2020-09-02T07:43:03Z</time>
      </trkpt>
      <trkpt lat="44.61948" lon="2.95195">
        <ele>1243.6</ele>
        <time>2020-09-02T07:43:18Z</time>
      </trkpt>
      <trkpt lat="44.61951" lon="2.95168">
        <ele>1242.16</ele>
        <time>2020-09-02T07:43:33Z</time>
      </trkpt>
      <trkpt lat="44.61952" lon="2.95146">
        <ele>1241.2</ele>
        <time>2020-09-02T07:43:48Z</time>
      </trkpt>
      <trkpt lat="44.61949" lon="2.95138">
        <ele>1241.2</ele>
        <time>2020-09-02T07:44:03Z</time>
      </trkpt>
      <trkpt lat="44.61951" lon="2.95152">
        <ele>1242.16</ele>
        <time>2020-09-02T07:44:18Z</time>
      </trkpt>
      <trkpt lat="44.6196" lon="2.95148">
        <ele>1241.68</ele>
        <time>2020-09-02T07:44:33Z</time>
      </trkpt>
      <trkpt lat="44.61957" lon="2.95164">
        <ele>1242.16</ele>
        <time>2020-09-02T07:44:48Z</time>
      </trkpt>
      <trkpt lat="44.6195" lon="2.95189">
        <ele>1242.16</ele>
        <time>2020-09-02T07:45:03Z</time>
      </trkpt>
      <trkpt lat="44.6195" lon="2.95197">
        <ele>1242.16</ele>
        <time>2020-09-02T07:45:18Z</time>
      </trkpt>
      <trkpt lat="44.6195" lon="2.95198">
        <ele>1242.16</ele>
        <time>2020-09-02T07:45:33Z</time>
      </trkpt>
      <trkpt lat="44.6195" lon="2.95198">
        <ele>1242.16</ele>
        <time>2020-09-02T07:45:48Z</time>
      </trkpt>
      <trkpt lat="44.6195" lon="2.95198">
        <ele>1242.16</ele>
        <time>2020-09-02T07:46:03Z</time>
      </trkpt>
      <trkpt lat="44.61949" lon="2.95196">
        <ele>1241.68</ele>
        <time>2020-09-02T07:46:18Z</time>
      </trkpt>
      <trkpt lat="44.6195" lon="2.95197">
        <ele>1241.68</ele>
        <time>2020-09-02T07:46:33Z</time>
      </trkpt>
      <trkpt lat="44.6195" lon="2.95197">
        <ele>1241.68</ele>
        <time>2020-09-02T07:46:48Z</time>
      </trkpt>
      <trkpt lat="44.61951" lon="2.95197">
        <ele>1241.68</ele>
        <time>2020-09-02T07:47:03Z</time>
      </trkpt>
      <trkpt lat="44.61951" lon="2.95196">
        <ele>1241.68</ele>
        <time>2020-09-02T07:47:18Z</time>
      </trkpt>
      <trkpt lat="44.61951" lon="2.95197">
        <ele>1241.68</ele>
        <time>2020-09-02T07:47:33Z</time>
      </trkpt>
      <trkpt lat="44.6195" lon="2.95198">
        <ele>1241.68</ele>
        <time>2020-09-02T07:47:48Z</time>
      </trkpt>
      <trkpt lat="44.6195" lon="2.95196">
        <ele>1242.16</ele>
        <time>2020-09-02T07:48:03Z</time>
      </trkpt>
      <trkpt lat="44.61949" lon="2.95196">
        <ele>1242.16</ele>
        <time>2020-09-02T07:48:18Z</time>
      </trkpt>
      <trkpt lat="44.6195" lon="2.95196">
        <ele>1241.68</ele>
        <time>2020-09-02T07:48:33Z</time>
      </trkpt>
      <trkpt lat="44.6195" lon="2.95197">
        <ele>1241.68</ele>
        <time>2020-09-02T07:48:48Z</time>
      </trkpt>
      <trkpt lat="44.6195" lon="2.95196">
        <ele>1241.68</ele>
        <time>2020-09-02T07:49:03Z</time>
      </trkpt>
      <trkpt lat="44.6195" lon="2.95198">
        <ele>1241.68</ele>
        <time>2020-09-02T07:49:18Z</time>
      </trkpt>
      <trkpt lat="44.6195" lon="2.95198">
        <ele>1241.2</ele>
        <time>2020-09-02T07:49:33Z</time>
      </trkpt>
      <trkpt lat="44.61951" lon="2.95198">
        <ele>1242.16</ele>
        <time>2020-09-02T07:49:48Z</time>
      </trkpt>
      <trkpt lat="44.6195" lon="2.95198">
        <ele>1241.2</ele>
        <time>2020-09-02T07:50:03Z</time>
      </trkpt>
      <trkpt lat="44.61949" lon="2.95196">
        <ele>1242.16</ele>
        <time>2020-09-02T07:50:18Z</time>
      </trkpt>
      <trkpt lat="44.61951" lon="2.95194">
        <ele>1241.68</ele>
        <time>2020-09-02T07:50:33Z</time>
      </trkpt>
      <trkpt lat="44.61961" lon="2.95189">
        <ele>1241.2</ele>
        <time>2020-09-02T07:50:48Z</time>
      </trkpt>
      <trkpt lat="44.61969" lon="2.95177">
        <ele>1240.72</ele>
        <time>2020-09-02T07:51:03Z</time>
      </trkpt>
      <trkpt lat="44.61982" lon="2.95165">
        <ele>1239.76</ele>
        <time>2020-09-02T07:51:18Z</time>
      </trkpt>
      <trkpt lat="44.61988" lon="2.95187">
        <ele>1238.8</ele>
        <time>2020-09-02T07:51:33Z</time>
      </trkpt>
      <trkpt lat="44.61992" lon="2.9521">
        <ele>1236.87</ele>
        <time>2020-09-02T07:51:48Z</time>
      </trkpt>
      <trkpt lat="44.62009" lon="2.9522">
        <ele>1234.47</ele>
        <time>2020-09-02T07:52:03Z</time>
      </trkpt>
      <trkpt lat="44.62019" lon="2.95233">
        <ele>1234.47</ele>
        <time>2020-09-02T07:52:18Z</time>
      </trkpt>
      <trkpt lat="44.62016" lon="2.95236">
        <ele>1233.99</ele>
        <time>2020-09-02T07:52:33Z</time>
      </trkpt>
      <trkpt lat="44.62023" lon="2.95232">
        <ele>1233.51</ele>
        <time>2020-09-02T07:52:48Z</time>
      </trkpt>
      <trkpt lat="44.62026" lon="2.95231">
        <ele>1233.51</ele>
        <time>2020-09-02T07:53:03Z</time>
      </trkpt>
      <trkpt lat="44.62026" lon="2.95228">
        <ele>1233.99</ele>
        <time>2020-09-02T07:53:18Z</time>
      </trkpt>
      <trkpt lat="44.62027" lon="2.95225">
        <ele>1233.51</ele>
        <time>2020-09-02T07:53:33Z</time>
      </trkpt>
      <trkpt lat="44.62027" lon="2.95229">
        <ele>1233.51</ele>
        <time>2020-09-02T07:53:48Z</time>
      </trkpt>
      <trkpt lat="44.62032" lon="2.95243">
        <ele>1232.07</ele>
        <time>2020-09-02T07:54:03Z</time>
      </trkpt>
      <trkpt lat="44.62041" lon="2.95253">
        <ele>1229.66</ele>
        <time>2020-09-02T07:54:18Z</time>
      </trkpt>
      <trkpt lat="44.62047" lon="2.95265">
        <ele>1228.7</ele>
        <time>2020-09-02T07:54:33Z</time>
      </trkpt>
      <trkpt lat="44.62064" lon="2.95287">
        <ele>1226.78</ele>
        <time>2020-09-02T07:54:48Z</time>
      </trkpt>
      <trkpt lat="44.62075" lon="2.95309">
        <ele>1226.78</ele>
        <time>2020-09-02T07:55:03Z</time>
      </trkpt>
      <trkpt lat="44.6209" lon="2.95328">
        <ele>1226.78</ele>
        <time>2020-09-02T07:55:18Z</time>
      </trkpt>
      <trkpt lat="44.62101" lon="2.95344">
        <ele>1226.3</ele>
        <time>2020-09-02T07:55:33Z</time>
      </trkpt>
      <trkpt lat="44.62117" lon="2.95363">
        <ele>1226.3</ele>
        <time>2020-09-02T07:55:48Z</time>
      </trkpt>
      <trkpt lat="44.62135" lon="2.95376">
        <ele>1224.86</ele>
        <time>2020-09-02T07:56:03Z</time>
      </trkpt>
      <trkpt lat="44.62153" lon="2.95389">
        <ele>1223.42</ele>
        <time>2020-09-02T07:56:18Z</time>
      </trkpt>
      <trkpt lat="44.62168" lon="2.95405">
        <ele>1221.97</ele>
        <time>2020-09-02T07:56:33Z</time>
      </trkpt>
      <trkpt lat="44.62185" lon="2.9541">
        <ele>1219.57</ele>
        <time>2020-09-02T07:56:48Z</time>
      </trkpt>
      <trkpt lat="44.62194" lon="2.9543">
        <ele>1217.17</ele>
        <time>2020-09-02T07:57:03Z</time>
      </trkpt>
      <trkpt lat="44.62204" lon="2.95454">
        <ele>1216.69</ele>
        <time>2020-09-02T07:57:18Z</time>
      </trkpt>
      <trkpt lat="44.62214" lon="2.95481">
        <ele>1216.21</ele>
        <time>2020-09-02T07:57:33Z</time>
      </trkpt>
      <trkpt lat="44.62229" lon="2.95502">
        <ele>1214.28</ele>
        <time>2020-09-02T07:57:48Z</time>
      </trkpt>
      <trkpt lat="44.62241" lon="2.95516">
        <ele>1213.32</ele>
        <time>2020-09-02T07:58:03Z</time>
      </trkpt>
      <trkpt lat="44.62251" lon="2.95537">
        <ele>1211.4</ele>
        <time>2020-09-02T07:58:18Z</time>
      </trkpt>
      <trkpt lat="44.62261" lon="2.95553">
        <ele>1209.96</ele>
        <time>2020-09-02T07:58:33Z</time>
      </trkpt>
      <trkpt lat="44.62274" lon="2.95572">
        <ele>1209</ele>
        <time>2020-09-02T07:58:48Z</time>
      </trkpt>
      <trkpt lat="44.62286" lon="2.95595">
        <ele>1206.59</ele>
        <time>2020-09-02T07:59:03Z</time>
      </trkpt>
      <trkpt lat="44.62296" lon="2.95616">
        <ele>1204.67</ele>
        <time>2020-09-02T07:59:18Z</time>
      </trkpt>
      <trkpt lat="44.62309" lon="2.95637">
        <ele>1204.19</ele>
        <time>2020-09-02T07:59:33Z</time>
      </trkpt>
      <trkpt lat="44.62322" lon="2.9566">
        <ele>1201.79</ele>
        <time>2020-09-02T07:59:48Z</time>
      </trkpt>
      <trkpt lat="44.62335" lon="2.9567">
        <ele>1200.82</ele>
        <time>2020-09-02T08:00:03Z</time>
      </trkpt>
      <trkpt lat="44.62346" lon="2.95673">
        <ele>1200.34</ele>
        <time>2020-09-02T08:00:18Z</time>
      </trkpt>
      <trkpt lat="44.6236" lon="2.95673">
        <ele>1197.94</ele>
        <time>2020-09-02T08:00:33Z</time>
      </trkpt>
      <trkpt lat="44.62366" lon="2.95689">
        <ele>1197.46</ele>
        <time>2020-09-02T08:00:48Z</time>
      </trkpt>
      <trkpt lat="44.62367" lon="2.95692">
        <ele>1198.9</ele>
        <time>2020-09-02T08:01:03Z</time>
      </trkpt>
      <trkpt lat="44.62379" lon="2.95693">
        <ele>1195.54</ele>
        <time>2020-09-02T08:01:18Z</time>
      </trkpt>
      <trkpt lat="44.62384" lon="2.957">
        <ele>1194.58</ele>
        <time>2020-09-02T08:01:33Z</time>
      </trkpt>
      <trkpt lat="44.62395" lon="2.95707">
        <ele>1193.13</ele>
        <time>2020-09-02T08:01:48Z</time>
      </trkpt>
      <trkpt lat="44.62407" lon="2.95705">
        <ele>1190.73</ele>
        <time>2020-09-02T08:02:03Z</time>
      </trkpt>
      <trkpt lat="44.62423" lon="2.95713">
        <ele>1189.29</ele>
        <time>2020-09-02T08:02:18Z</time>
      </trkpt>
      <trkpt lat="44.62442" lon="2.95724">
        <ele>1187.85</ele>
        <time>2020-09-02T08:02:33Z</time>
      </trkpt>
      <trkpt lat="44.62461" lon="2.95729">
        <ele>1185.92</ele>
        <time>2020-09-02T08:02:48Z</time>
      </trkpt>
      <trkpt lat="44.62479" lon="2.95735">
        <ele>1184.48</ele>
        <time>2020-09-02T08:03:03Z</time>
      </trkpt>
      <trkpt lat="44.62492" lon="2.95728">
        <ele>1181.6</ele>
        <time>2020-09-02T08:03:18Z</time>
      </trkpt>
      <trkpt lat="44.62505" lon="2.95715">
        <ele>1180.16</ele>
        <time>2020-09-02T08:03:33Z</time>
      </trkpt>
      <trkpt lat="44.6251" lon="2.95695">
        <ele>1178.23</ele>
        <time>2020-09-02T08:03:48Z</time>
      </trkpt>
      <trkpt lat="44.62516" lon="2.95677">
        <ele>1175.35</ele>
        <time>2020-09-02T08:04:03Z</time>
      </trkpt>
      <trkpt lat="44.62518" lon="2.95657">
        <ele>1173.43</ele>
        <time>2020-09-02T08:04:18Z</time>
      </trkpt>
      <trkpt lat="44.62514" lon="2.95635">
        <ele>1172.47</ele>
        <time>2020-09-02T08:04:33Z</time>
      </trkpt>
      <trkpt lat="44.62507" lon="2.95611">
        <ele>1170.54</ele>
        <time>2020-09-02T08:04:48Z</time>
      </trkpt>
      <trkpt lat="44.62503" lon="2.95592">
        <ele>1168.62</ele>
        <time>2020-09-02T08:05:03Z</time>
      </trkpt>
      <trkpt lat="44.62502" lon="2.95583">
        <ele>1168.14</ele>
        <time>2020-09-02T08:05:18Z</time>
      </trkpt>
      <trkpt lat="44.62505" lon="2.95569">
        <ele>1166.7</ele>
        <time>2020-09-02T08:05:33Z</time>
      </trkpt>
      <trkpt lat="44.62511" lon="2.95565">
        <ele>1167.18</ele>
        <time>2020-09-02T08:05:48Z</time>
      </trkpt>
      <trkpt lat="44.62512" lon="2.95566">
        <ele>1167.18</ele>
        <time>2020-09-02T08:06:03Z</time>
      </trkpt>
      <trkpt lat="44.6252" lon="2.95566">
        <ele>1168.14</ele>
        <time>2020-09-02T08:06:18Z</time>
      </trkpt>
      <trkpt lat="44.62527" lon="2.95564">
        <ele>1169.1</ele>
        <time>2020-09-02T08:06:33Z</time>
      </trkpt>
      <trkpt lat="44.62528" lon="2.9554">
        <ele>1169.58</ele>
        <time>2020-09-02T08:06:48Z</time>
      </trkpt>
      <trkpt lat="44.62531" lon="2.95537">
        <ele>1169.1</ele>
        <time>2020-09-02T08:07:03Z</time>
      </trkpt>
      <trkpt lat="44.62532" lon="2.95544">
        <ele>1169.58</ele>
        <time>2020-09-02T08:07:18Z</time>
      </trkpt>
      <trkpt lat="44.62527" lon="2.95541">
        <ele>1170.06</ele>
        <time>2020-09-02T08:07:33Z</time>
      </trkpt>
      <trkpt lat="44.62527" lon="2.95537">
        <ele>1170.06</ele>
        <time>2020-09-02T08:07:48Z</time>
      </trkpt>
      <trkpt lat="44.62525" lon="2.9554">
        <ele>1171.02</ele>
        <time>2020-09-02T08:08:03Z</time>
      </trkpt>
      <trkpt lat="44.62529" lon="2.95536">
        <ele>1171.98</ele>
        <time>2020-09-02T08:08:18Z</time>
      </trkpt>
      <trkpt lat="44.62529" lon="2.95524">
        <ele>1171.02</ele>
        <time>2020-09-02T08:08:33Z</time>
      </trkpt>
      <trkpt lat="44.62527" lon="2.95505">
        <ele>1170.54</ele>
        <time>2020-09-02T08:08:48Z</time>
      </trkpt>
      <trkpt lat="44.62524" lon="2.95498">
        <ele>1169.58</ele>
        <time>2020-09-02T08:09:03Z</time>
      </trkpt>
      <trkpt lat="44.62521" lon="2.95476">
        <ele>1169.1</ele>
        <time>2020-09-02T08:09:18Z</time>
      </trkpt>
      <trkpt lat="44.62521" lon="2.95454">
        <ele>1170.06</ele>
        <time>2020-09-02T08:09:33Z</time>
      </trkpt>
      <trkpt lat="44.6252" lon="2.95433">
        <ele>1170.54</ele>
        <time>2020-09-02T08:09:48Z</time>
      </trkpt>
      <trkpt lat="44.62518" lon="2.9541">
        <ele>1171.5</ele>
        <time>2020-09-02T08:10:03Z</time>
      </trkpt>
      <trkpt lat="44.6252" lon="2.95385">
        <ele>1172.47</ele>
        <time>2020-09-02T08:10:18Z</time>
      </trkpt>
      <trkpt lat="44.62525" lon="2.95363">
        <ele>1174.39</ele>
        <time>2020-09-02T08:10:33Z</time>
      </trkpt>
      <trkpt lat="44.62525" lon="2.95339">
        <ele>1173.91</ele>
        <time>2020-09-02T08:10:48Z</time>
      </trkpt>
      <trkpt lat="44.62525" lon="2.95314">
        <ele>1174.39</ele>
        <time>2020-09-02T08:11:03Z</time>
      </trkpt>
      <trkpt lat="44.62532" lon="2.95288">
        <ele>1175.83</ele>
        <time>2020-09-02T08:11:18Z</time>
      </trkpt>
      <trkpt lat="44.62537" lon="2.95264">
        <ele>1176.79</ele>
        <time>2020-09-02T08:11:33Z</time>
      </trkpt>
      <trkpt lat="44.62541" lon="2.9524">
        <ele>1175.83</ele>
        <time>2020-09-02T08:11:48Z</time>
      </trkpt>
      <trkpt lat="44.62545" lon="2.95215">
        <ele>1174.39</ele>
        <time>2020-09-02T08:12:03Z</time>
      </trkpt>
      <trkpt lat="44.62553" lon="2.95187">
        <ele>1174.39</ele>
        <time>2020-09-02T08:12:18Z</time>
      </trkpt>
      <trkpt lat="44.62565" lon="2.95168">
        <ele>1174.39</ele>
        <time>2020-09-02T08:12:33Z</time>
      </trkpt>
      <trkpt lat="44.62581" lon="2.95156">
        <ele>1174.39</ele>
        <time>2020-09-02T08:12:48Z</time>
      </trkpt>
      <trkpt lat="44.62599" lon="2.95153">
        <ele>1173.91</ele>
        <time>2020-09-02T08:13:03Z</time>
      </trkpt>
      <trkpt lat="44.62613" lon="2.95147">
        <ele>1172.95</ele>
        <time>2020-09-02T08:13:18Z</time>
      </trkpt>
      <trkpt lat="44.62629" lon="2.9513">
        <ele>1170.54</ele>
        <time>2020-09-02T08:13:33Z</time>
      </trkpt>
      <trkpt lat="44.62642" lon="2.95117">
        <ele>1169.1</ele>
        <time>2020-09-02T08:13:48Z</time>
      </trkpt>
      <trkpt lat="44.62655" lon="2.95105">
        <ele>1168.62</ele>
        <time>2020-09-02T08:14:03Z</time>
      </trkpt>
      <trkpt lat="44.62668" lon="2.95096">
        <ele>1168.14</ele>
        <time>2020-09-02T08:14:18Z</time>
      </trkpt>
      <trkpt lat="44.62683" lon="2.95088">
        <ele>1166.22</ele>
        <time>2020-09-02T08:14:33Z</time>
      </trkpt>
      <trkpt lat="44.62699" lon="2.95078">
        <ele>1164.77</ele>
        <time>2020-09-02T08:14:48Z</time>
      </trkpt>
      <trkpt lat="44.62715" lon="2.95066">
        <ele>1163.33</ele>
        <time>2020-09-02T08:15:03Z</time>
      </trkpt>
      <trkpt lat="44.6273" lon="2.95053">
        <ele>1162.37</ele>
        <time>2020-09-02T08:15:18Z</time>
      </trkpt>
      <trkpt lat="44.62744" lon="2.95041">
        <ele>1161.89</ele>
        <time>2020-09-02T08:15:33Z</time>
      </trkpt>
      <trkpt lat="44.62744" lon="2.95033">
        <ele>1161.41</ele>
        <time>2020-09-02T08:15:48Z</time>
      </trkpt>
      <trkpt lat="44.62751" lon="2.95031">
        <ele>1162.37</ele>
        <time>2020-09-02T08:16:03Z</time>
      </trkpt>
      <trkpt lat="44.6275" lon="2.95025">
        <ele>1162.37</ele>
        <time>2020-09-02T08:16:18Z</time>
      </trkpt>
      <trkpt lat="44.62754" lon="2.95005">
        <ele>1163.33</ele>
        <time>2020-09-02T08:16:33Z</time>
      </trkpt>
      <trkpt lat="44.62751" lon="2.94985">
        <ele>1163.81</ele>
        <time>2020-09-02T08:16:48Z</time>
      </trkpt>
      <trkpt lat="44.62751" lon="2.94961">
        <ele>1163.81</ele>
        <time>2020-09-02T08:17:03Z</time>
      </trkpt>
      <trkpt lat="44.62754" lon="2.94938">
        <ele>1165.74</ele>
        <time>2020-09-02T08:17:18Z</time>
      </trkpt>
      <trkpt lat="44.6275" lon="2.94919">
        <ele>1164.77</ele>
        <time>2020-09-02T08:17:33Z</time>
      </trkpt>
      <trkpt lat="44.62746" lon="2.94898">
        <ele>1164.77</ele>
        <time>2020-09-02T08:17:48Z</time>
      </trkpt>
      <trkpt lat="44.62742" lon="2.94877">
        <ele>1163.33</ele>
        <time>2020-09-02T08:18:03Z</time>
      </trkpt>
      <trkpt lat="44.6274" lon="2.94852">
        <ele>1162.37</ele>
        <time>2020-09-02T08:18:18Z</time>
      </trkpt>
      <trkpt lat="44.62741" lon="2.94843">
        <ele>1162.37</ele>
        <time>2020-09-02T08:18:33Z</time>
      </trkpt>
      <trkpt lat="44.62744" lon="2.94834">
        <ele>1160.93</ele>
        <time>2020-09-02T08:18:48Z</time>
      </trkpt>
      <trkpt lat="44.62747" lon="2.94819">
        <ele>1159.01</ele>
        <time>2020-09-02T08:19:03Z</time>
      </trkpt>
      <trkpt lat="44.62747" lon="2.94794">
        <ele>1158.05</ele>
        <time>2020-09-02T08:19:18Z</time>
      </trkpt>
      <trkpt lat="44.62752" lon="2.94772">
        <ele>1157.56</ele>
        <time>2020-09-02T08:19:33Z</time>
      </trkpt>
      <trkpt lat="44.62759" lon="2.94746">
        <ele>1158.05</ele>
        <time>2020-09-02T08:19:48Z</time>
      </trkpt>
      <trkpt lat="44.62762" lon="2.94726">
        <ele>1158.05</ele>
        <time>2020-09-02T08:20:03Z</time>
      </trkpt>
      <trkpt lat="44.62767" lon="2.94706">
        <ele>1158.05</ele>
        <time>2020-09-02T08:20:18Z</time>
      </trkpt>
      <trkpt lat="44.62769" lon="2.9468">
        <ele>1158.05</ele>
        <time>2020-09-02T08:20:33Z</time>
      </trkpt>
      <trkpt lat="44.62779" lon="2.94656">
        <ele>1158.53</ele>
        <time>2020-09-02T08:20:48Z</time>
      </trkpt>
      <trkpt lat="44.62786" lon="2.94634">
        <ele>1159.97</ele>
        <time>2020-09-02T08:21:03Z</time>
      </trkpt>
      <trkpt lat="44.62789" lon="2.94617">
        <ele>1160.93</ele>
        <time>2020-09-02T08:21:18Z</time>
      </trkpt>
      <trkpt lat="44.62794" lon="2.94593">
        <ele>1161.89</ele>
        <time>2020-09-02T08:21:33Z</time>
      </trkpt>
      <trkpt lat="44.628" lon="2.94568">
        <ele>1163.81</ele>
        <time>2020-09-02T08:21:48Z</time>
      </trkpt>
      <trkpt lat="44.62805" lon="2.94544">
        <ele>1165.26</ele>
        <time>2020-09-02T08:22:03Z</time>
      </trkpt>
      <trkpt lat="44.62811" lon="2.94525">
        <ele>1167.18</ele>
        <time>2020-09-02T08:22:18Z</time>
      </trkpt>
      <trkpt lat="44.62822" lon="2.94518">
        <ele>1167.66</ele>
        <time>2020-09-02T08:22:33Z</time>
      </trkpt>
      <trkpt lat="44.62829" lon="2.94515">
        <ele>1167.66</ele>
        <time>2020-09-02T08:22:48Z</time>
      </trkpt>
      <trkpt lat="44.62831" lon="2.94503">
        <ele>1169.58</ele>
        <time>2020-09-02T08:23:03Z</time>
      </trkpt>
      <trkpt lat="44.62827" lon="2.94483">
        <ele>1171.02</ele>
        <time>2020-09-02T08:23:18Z</time>
      </trkpt>
      <trkpt lat="44.62821" lon="2.94462">
        <ele>1173.91</ele>
        <time>2020-09-02T08:23:33Z</time>
      </trkpt>
      <trkpt lat="44.6281" lon="2.94446">
        <ele>1175.83</ele>
        <time>2020-09-02T08:23:48Z</time>
      </trkpt>
      <trkpt lat="44.6281" lon="2.9443">
        <ele>1178.23</ele>
        <time>2020-09-02T08:24:03Z</time>
      </trkpt>
      <trkpt lat="44.62811" lon="2.94415">
        <ele>1180.64</ele>
        <time>2020-09-02T08:24:18Z</time>
      </trkpt>
      <trkpt lat="44.62807" lon="2.94404">
        <ele>1182.56</ele>
        <time>2020-09-02T08:24:33Z</time>
      </trkpt>
      <trkpt lat="44.62801" lon="2.94383">
        <ele>1184.48</ele>
        <time>2020-09-02T08:24:48Z</time>
      </trkpt>
      <trkpt lat="44.62794" lon="2.94369">
        <ele>1186.4</ele>
        <time>2020-09-02T08:25:03Z</time>
      </trkpt>
      <trkpt lat="44.6279" lon="2.94354">
        <ele>1189.29</ele>
        <time>2020-09-02T08:25:18Z</time>
      </trkpt>
      <trkpt lat="44.62788" lon="2.9434">
        <ele>1191.69</ele>
        <time>2020-09-02T08:25:33Z</time>
      </trkpt>
      <trkpt lat="44.6279" lon="2.94325">
        <ele>1194.09</ele>
        <time>2020-09-02T08:25:48Z</time>
      </trkpt>
      <trkpt lat="44.62793" lon="2.94305">
        <ele>1195.54</ele>
        <time>2020-09-02T08:26:03Z</time>
      </trkpt>
      <trkpt lat="44.62798" lon="2.94288">
        <ele>1198.42</ele>
        <time>2020-09-02T08:26:18Z</time>
      </trkpt>
      <trkpt lat="44.62801" lon="2.94276">
        <ele>1200.82</ele>
        <time>2020-09-02T08:26:33Z</time>
      </trkpt>
      <trkpt lat="44.62799" lon="2.94261">
        <ele>1203.71</ele>
        <time>2020-09-02T08:26:48Z</time>
      </trkpt>
      <trkpt lat="44.62794" lon="2.94249">
        <ele>1206.11</ele>
        <time>2020-09-02T08:27:03Z</time>
      </trkpt>
      <trkpt lat="44.62795" lon="2.94237">
        <ele>1208.51</ele>
        <time>2020-09-02T08:27:18Z</time>
      </trkpt>
      <trkpt lat="44.62805" lon="2.94229">
        <ele>1210.92</ele>
        <time>2020-09-02T08:27:33Z</time>
      </trkpt>
      <trkpt lat="44.62806" lon="2.94215">
        <ele>1213.32</ele>
        <time>2020-09-02T08:27:48Z</time>
      </trkpt>
      <trkpt lat="44.62812" lon="2.94202">
        <ele>1216.21</ele>
        <time>2020-09-02T08:28:03Z</time>
      </trkpt>
      <trkpt lat="44.62818" lon="2.94194">
        <ele>1217.17</ele>
        <time>2020-09-02T08:28:18Z</time>
      </trkpt>
      <trkpt lat="44.62816" lon="2.94189">
        <ele>1217.65</ele>
        <time>2020-09-02T08:28:33Z</time>
      </trkpt>
      <trkpt lat="44.62815" lon="2.94193">
        <ele>1217.65</ele>
        <time>2020-09-02T08:28:48Z</time>
      </trkpt>
      <trkpt lat="44.6282" lon="2.94183">
        <ele>1217.65</ele>
        <time>2020-09-02T08:29:03Z</time>
      </trkpt>
      <trkpt lat="44.62828" lon="2.94176">
        <ele>1219.57</ele>
        <time>2020-09-02T08:29:18Z</time>
      </trkpt>
      <trkpt lat="44.62834" lon="2.94167">
        <ele>1221.49</ele>
        <time>2020-09-02T08:29:33Z</time>
      </trkpt>
      <trkpt lat="44.62839" lon="2.94154">
        <ele>1223.42</ele>
        <time>2020-09-02T08:29:48Z</time>
      </trkpt>
      <trkpt lat="44.62848" lon="2.94141">
        <ele>1225.82</ele>
        <time>2020-09-02T08:30:03Z</time>
      </trkpt>
      <trkpt lat="44.62862" lon="2.94141">
        <ele>1226.78</ele>
        <time>2020-09-02T08:30:18Z</time>
      </trkpt>
      <trkpt lat="44.62877" lon="2.9414">
        <ele>1226.3</ele>
        <time>2020-09-02T08:30:33Z</time>
      </trkpt>
      <trkpt lat="44.62887" lon="2.94133">
        <ele>1225.82</ele>
        <time>2020-09-02T08:30:48Z</time>
      </trkpt>
      <trkpt lat="44.62892" lon="2.94133">
        <ele>1226.3</ele>
        <time>2020-09-02T08:31:03Z</time>
      </trkpt>
      <trkpt lat="44.62909" lon="2.94135">
        <ele>1226.3</ele>
        <time>2020-09-02T08:31:18Z</time>
      </trkpt>
      <trkpt lat="44.62928" lon="2.94139">
        <ele>1226.78</ele>
        <time>2020-09-02T08:31:33Z</time>
      </trkpt>
      <trkpt lat="44.62944" lon="2.94138">
        <ele>1227.26</ele>
        <time>2020-09-02T08:31:48Z</time>
      </trkpt>
      <trkpt lat="44.62958" lon="2.94144">
        <ele>1227.74</ele>
        <time>2020-09-02T08:32:03Z</time>
      </trkpt>
      <trkpt lat="44.62973" lon="2.94151">
        <ele>1227.74</ele>
        <time>2020-09-02T08:32:18Z</time>
      </trkpt>
      <trkpt lat="44.62985" lon="2.94163">
        <ele>1229.18</ele>
        <time>2020-09-02T08:32:33Z</time>
      </trkpt>
      <trkpt lat="44.62996" lon="2.94171">
        <ele>1230.14</ele>
        <time>2020-09-02T08:32:48Z</time>
      </trkpt>
      <trkpt lat="44.6301" lon="2.94175">
        <ele>1231.11</ele>
        <time>2020-09-02T08:33:03Z</time>
      </trkpt>
      <trkpt lat="44.63028" lon="2.94175">
        <ele>1232.07</ele>
        <time>2020-09-02T08:33:18Z</time>
      </trkpt>
      <trkpt lat="44.63041" lon="2.94188">
        <ele>1233.99</ele>
        <time>2020-09-02T08:33:33Z</time>
      </trkpt>
      <trkpt lat="44.63052" lon="2.94197">
        <ele>1235.43</ele>
        <time>2020-09-02T08:33:48Z</time>
      </trkpt>
      <trkpt lat="44.63063" lon="2.94205">
        <ele>1237.35</ele>
        <time>2020-09-02T08:34:03Z</time>
      </trkpt>
      <trkpt lat="44.63074" lon="2.94215">
        <ele>1238.8</ele>
        <time>2020-09-02T08:34:18Z</time>
      </trkpt>
      <trkpt lat="44.63084" lon="2.94224">
        <ele>1240.72</ele>
        <time>2020-09-02T08:34:33Z</time>
      </trkpt>
      <trkpt lat="44.63094" lon="2.94235">
        <ele>1241.68</ele>
        <time>2020-09-02T08:34:48Z</time>
      </trkpt>
      <trkpt lat="44.63103" lon="2.94247">
        <ele>1243.12</ele>
        <time>2020-09-02T08:35:03Z</time>
      </trkpt>
      <trkpt lat="44.63108" lon="2.94259">
        <ele>1243.6</ele>
        <time>2020-09-02T08:35:18Z</time>
      </trkpt>
      <trkpt lat="44.63119" lon="2.94266">
        <ele>1246.01</ele>
        <time>2020-09-02T08:35:33Z</time>
      </trkpt>
      <trkpt lat="44.63132" lon="2.94276">
        <ele>1247.45</ele>
        <time>2020-09-02T08:35:48Z</time>
      </trkpt>
      <trkpt lat="44.63145" lon="2.94286">
        <ele>1247.93</ele>
        <time>2020-09-02T08:36:03Z</time>
      </trkpt>
      <trkpt lat="44.63143" lon="2.94288">
        <ele>1248.89</ele>
        <time>2020-09-02T08:36:18Z</time>
      </trkpt>
      <trkpt lat="44.63139" lon="2.94284">
        <ele>1248.89</ele>
        <time>2020-09-02T08:36:33Z</time>
      </trkpt>
      <trkpt lat="44.63145" lon="2.94289">
        <ele>1248.89</ele>
        <time>2020-09-02T08:36:48Z</time>
      </trkpt>
      <trkpt lat="44.63149" lon="2.943">
        <ele>1249.85</ele>
        <time>2020-09-02T08:37:03Z</time>
      </trkpt>
      <trkpt lat="44.63164" lon="2.94309">
        <ele>1251.29</ele>
        <time>2020-09-02T08:37:18Z</time>
      </trkpt>
      <trkpt lat="44.63181" lon="2.94305">
        <ele>1252.74</ele>
        <time>2020-09-02T08:37:33Z</time>
      </trkpt>
      <trkpt lat="44.63198" lon="2.94319">
        <ele>1253.22</ele>
        <time>2020-09-02T08:37:48Z</time>
      </trkpt>
      <trkpt lat="44.63212" lon="2.94328">
        <ele>1253.7</ele>
        <time>2020-09-02T08:38:03Z</time>
      </trkpt>
      <trkpt lat="44.63229" lon="2.94333">
        <ele>1254.66</ele>
        <time>2020-09-02T08:38:18Z</time>
      </trkpt>
      <trkpt lat="44.63245" lon="2.94335">
        <ele>1254.18</ele>
        <time>2020-09-02T08:38:33Z</time>
      </trkpt>
      <trkpt lat="44.63261" lon="2.9435">
        <ele>1255.14</ele>
        <time>2020-09-02T08:38:48Z</time>
      </trkpt>
      <trkpt lat="44.63272" lon="2.9436">
        <ele>1256.1</ele>
        <time>2020-09-02T08:39:03Z</time>
      </trkpt>
      <trkpt lat="44.63286" lon="2.94372">
        <ele>1257.06</ele>
        <time>2020-09-02T08:39:18Z</time>
      </trkpt>
      <trkpt lat="44.63299" lon="2.94379">
        <ele>1258.5</ele>
        <time>2020-09-02T08:39:33Z</time>
      </trkpt>
      <trkpt lat="44.63315" lon="2.94383">
        <ele>1259.94</ele>
        <time>2020-09-02T08:39:48Z</time>
      </trkpt>
      <trkpt lat="44.63331" lon="2.94384">
        <ele>1260.91</ele>
        <time>2020-09-02T08:40:03Z</time>
      </trkpt>
      <trkpt lat="44.63346" lon="2.94388">
        <ele>1261.87</ele>
        <time>2020-09-02T08:40:18Z</time>
      </trkpt>
      <trkpt lat="44.6336" lon="2.94391">
        <ele>1262.83</ele>
        <time>2020-09-02T08:40:33Z</time>
      </trkpt>
      <trkpt lat="44.63371" lon="2.94386">
        <ele>1263.79</ele>
        <time>2020-09-02T08:40:48Z</time>
      </trkpt>
      <trkpt lat="44.63385" lon="2.94376">
        <ele>1264.27</ele>
        <time>2020-09-02T08:41:03Z</time>
      </trkpt>
      <trkpt lat="44.63403" lon="2.94373">
        <ele>1265.71</ele>
        <time>2020-09-02T08:41:18Z</time>
      </trkpt>
      <trkpt lat="44.63415" lon="2.94361">
        <ele>1265.71</ele>
        <time>2020-09-02T08:41:33Z</time>
      </trkpt>
      <trkpt lat="44.63426" lon="2.94352">
        <ele>1268.12</ele>
        <time>2020-09-02T08:41:48Z</time>
      </trkpt>
      <trkpt lat="44.63438" lon="2.94339">
        <ele>1268.6</ele>
        <time>2020-09-02T08:42:03Z</time>
      </trkpt>
      <trkpt lat="44.63448" lon="2.94326">
        <ele>1270.52</ele>
        <time>2020-09-02T08:42:18Z</time>
      </trkpt>
      <trkpt lat="44.63457" lon="2.94312">
        <ele>1271.96</ele>
        <time>2020-09-02T08:42:33Z</time>
      </trkpt>
      <trkpt lat="44.6347" lon="2.94301">
        <ele>1273.4</ele>
        <time>2020-09-02T08:42:48Z</time>
      </trkpt>
      <trkpt lat="44.63477" lon="2.94297">
        <ele>1274.36</ele>
        <time>2020-09-02T08:43:03Z</time>
      </trkpt>
      <trkpt lat="44.6348" lon="2.94292">
        <ele>1273.4</ele>
        <time>2020-09-02T08:43:18Z</time>
      </trkpt>
      <trkpt lat="44.63495" lon="2.94294">
        <ele>1276.29</ele>
        <time>2020-09-02T08:43:33Z</time>
      </trkpt>
      <trkpt lat="44.63511" lon="2.94295">
        <ele>1277.25</ele>
        <time>2020-09-02T08:43:48Z</time>
      </trkpt>
      <trkpt lat="44.63528" lon="2.94298">
        <ele>1278.21</ele>
        <time>2020-09-02T08:44:03Z</time>
      </trkpt>
      <trkpt lat="44.63543" lon="2.94301">
        <ele>1279.65</ele>
        <time>2020-09-02T08:44:18Z</time>
      </trkpt>
      <trkpt lat="44.63558" lon="2.94302">
        <ele>1280.61</ele>
        <time>2020-09-02T08:44:33Z</time>
      </trkpt>
      <trkpt lat="44.63572" lon="2.94303">
        <ele>1282.06</ele>
        <time>2020-09-02T08:44:48Z</time>
      </trkpt>
      <trkpt lat="44.63586" lon="2.94304">
        <ele>1282.54</ele>
        <time>2020-09-02T08:45:03Z</time>
      </trkpt>
      <trkpt lat="44.636" lon="2.94308">
        <ele>1284.46</ele>
        <time>2020-09-02T08:45:18Z</time>
      </trkpt>
      <trkpt lat="44.63613" lon="2.9431">
        <ele>1286.86</ele>
        <time>2020-09-02T08:45:33Z</time>
      </trkpt>
      <trkpt lat="44.63626" lon="2.94316">
        <ele>1287.82</ele>
        <time>2020-09-02T08:45:48Z</time>
      </trkpt>
      <trkpt lat="44.63639" lon="2.94324">
        <ele>1289.27</ele>
        <time>2020-09-02T08:46:03Z</time>
      </trkpt>
      <trkpt lat="44.63655" lon="2.94323">
        <ele>1290.71</ele>
        <time>2020-09-02T08:46:18Z</time>
      </trkpt>
      <trkpt lat="44.63669" lon="2.94322">
        <ele>1293.11</ele>
        <time>2020-09-02T08:46:33Z</time>
      </trkpt>
      <trkpt lat="44.63677" lon="2.94318">
        <ele>1294.07</ele>
        <time>2020-09-02T08:46:48Z</time>
      </trkpt>
      <trkpt lat="44.63686" lon="2.94304">
        <ele>1295.99</ele>
        <time>2020-09-02T08:47:03Z</time>
      </trkpt>
      <trkpt lat="44.63696" lon="2.94299">
        <ele>1298.4</ele>
        <time>2020-09-02T08:47:18Z</time>
      </trkpt>
      <trkpt lat="44.63701" lon="2.94295">
        <ele>1299.36</ele>
        <time>2020-09-02T08:47:33Z</time>
      </trkpt>
      <trkpt lat="44.63717" lon="2.9428">
        <ele>1301.28</ele>
        <time>2020-09-02T08:47:48Z</time>
      </trkpt>
      <trkpt lat="44.6373" lon="2.94274">
        <ele>1303.69</ele>
        <time>2020-09-02T08:48:03Z</time>
      </trkpt>
      <trkpt lat="44.63745" lon="2.94274">
        <ele>1305.13</ele>
        <time>2020-09-02T08:48:18Z</time>
      </trkpt>
      <trkpt lat="44.63759" lon="2.94266">
        <ele>1307.53</ele>
        <time>2020-09-02T08:48:33Z</time>
      </trkpt>
      <trkpt lat="44.63773" lon="2.94262">
        <ele>1308.01</ele>
        <time>2020-09-02T08:48:48Z</time>
      </trkpt>
      <trkpt lat="44.63788" lon="2.94261">
        <ele>1308.97</ele>
        <time>2020-09-02T08:49:03Z</time>
      </trkpt>
      <trkpt lat="44.63797" lon="2.94258">
        <ele>1310.9</ele>
        <time>2020-09-02T08:49:18Z</time>
      </trkpt>
      <trkpt lat="44.63801" lon="2.94254">
        <ele>1311.38</ele>
        <time>2020-09-02T08:49:33Z</time>
      </trkpt>
      <trkpt lat="44.63804" lon="2.94252">
        <ele>1310.9</ele>
        <time>2020-09-02T08:49:48Z</time>
      </trkpt>
      <trkpt lat="44.63808" lon="2.94252">
        <ele>1311.86</ele>
        <time>2020-09-02T08:50:03Z</time>
      </trkpt>
      <trkpt lat="44.63822" lon="2.94247">
        <ele>1313.78</ele>
        <time>2020-09-02T08:50:18Z</time>
      </trkpt>
      <trkpt lat="44.6383" lon="2.94243">
        <ele>1314.74</ele>
        <time>2020-09-02T08:50:33Z</time>
      </trkpt>
      <trkpt lat="44.6384" lon="2.9423">
        <ele>1314.74</ele>
        <time>2020-09-02T08:50:48Z</time>
      </trkpt>
      <trkpt lat="44.63846" lon="2.94223">
        <ele>1315.22</ele>
        <time>2020-09-02T08:51:03Z</time>
      </trkpt>
      <trkpt lat="44.6385" lon="2.9422">
        <ele>1314.26</ele>
        <time>2020-09-02T08:51:18Z</time>
      </trkpt>
      <trkpt lat="44.63853" lon="2.94221">
        <ele>1314.74</ele>
        <time>2020-09-02T08:51:33Z</time>
      </trkpt>
      <trkpt lat="44.63849" lon="2.94215">
        <ele>1313.78</ele>
        <time>2020-09-02T08:51:48Z</time>
      </trkpt>
      <trkpt lat="44.63848" lon="2.94212">
        <ele>1313.3</ele>
        <time>2020-09-02T08:52:03Z</time>
      </trkpt>
      <trkpt lat="44.63847" lon="2.94211">
        <ele>1313.3</ele>
        <time>2020-09-02T08:52:18Z</time>
      </trkpt>
      <trkpt lat="44.63846" lon="2.94211">
        <ele>1313.78</ele>
        <time>2020-09-02T08:52:33Z</time>
      </trkpt>
      <trkpt lat="44.63845" lon="2.94209">
        <ele>1312.82</ele>
        <time>2020-09-02T08:52:48Z</time>
      </trkpt>
      <trkpt lat="44.63843" lon="2.94208">
        <ele>1313.78</ele>
        <time>2020-09-02T08:53:03Z</time>
      </trkpt>
      <trkpt lat="44.63843" lon="2.94208">
        <ele>1313.78</ele>
        <time>2020-09-02T08:53:18Z</time>
      </trkpt>
      <trkpt lat="44.63844" lon="2.9421">
        <ele>1312.82</ele>
        <time>2020-09-02T08:53:33Z</time>
      </trkpt>
      <trkpt lat="44.63845" lon="2.94212">
        <ele>1312.82</ele>
        <time>2020-09-02T08:53:48Z</time>
      </trkpt>
      <trkpt lat="44.63846" lon="2.94212">
        <ele>1313.3</ele>
        <time>2020-09-02T08:54:03Z</time>
      </trkpt>
      <trkpt lat="44.63847" lon="2.94213">
        <ele>1313.3</ele>
        <time>2020-09-02T08:54:18Z</time>
      </trkpt>
      <trkpt lat="44.63848" lon="2.94214">
        <ele>1312.34</ele>
        <time>2020-09-02T08:54:33Z</time>
      </trkpt>
      <trkpt lat="44.63848" lon="2.94218">
        <ele>1312.82</ele>
        <time>2020-09-02T08:54:48Z</time>
      </trkpt>
      <trkpt lat="44.63849" lon="2.94217">
        <ele>1312.34</ele>
        <time>2020-09-02T08:55:03Z</time>
      </trkpt>
      <trkpt lat="44.63849" lon="2.94215">
        <ele>1311.86</ele>
        <time>2020-09-02T08:55:18Z</time>
      </trkpt>
      <trkpt lat="44.63848" lon="2.94214">
        <ele>1312.34</ele>
        <time>2020-09-02T08:55:33Z</time>
      </trkpt>
      <trkpt lat="44.63848" lon="2.94216">
        <ele>1311.86</ele>
        <time>2020-09-02T08:55:48Z</time>
      </trkpt>
      <trkpt lat="44.63849" lon="2.94219">
        <ele>1311.86</ele>
        <time>2020-09-02T08:56:03Z</time>
      </trkpt>
      <trkpt lat="44.63847" lon="2.94217">
        <ele>1311.86</ele>
        <time>2020-09-02T08:56:18Z</time>
      </trkpt>
      <trkpt lat="44.63846" lon="2.94218">
        <ele>1311.86</ele>
        <time>2020-09-02T08:56:33Z</time>
      </trkpt>
      <trkpt lat="44.6385" lon="2.94213">
        <ele>1312.34</ele>
        <time>2020-09-02T08:56:48Z</time>
      </trkpt>
      <trkpt lat="44.63854" lon="2.94214">
        <ele>1312.34</ele>
        <time>2020-09-02T08:57:03Z</time>
      </trkpt>
      <trkpt lat="44.63852" lon="2.94215">
        <ele>1312.34</ele>
        <time>2020-09-02T08:57:18Z</time>
      </trkpt>
      <trkpt lat="44.63852" lon="2.94217">
        <ele>1311.86</ele>
        <time>2020-09-02T08:57:33Z</time>
      </trkpt>
      <trkpt lat="44.63853" lon="2.94218">
        <ele>1311.38</ele>
        <time>2020-09-02T08:57:48Z</time>
      </trkpt>
      <trkpt lat="44.6385" lon="2.94216">
        <ele>1311.38</ele>
        <time>2020-09-02T08:58:03Z</time>
      </trkpt>
      <trkpt lat="44.63845" lon="2.94196">
        <ele>1310.9</ele>
        <time>2020-09-02T08:58:18Z</time>
      </trkpt>
      <trkpt lat="44.6384" lon="2.94179">
        <ele>1310.41</ele>
        <time>2020-09-02T08:58:33Z</time>
      </trkpt>
      <trkpt lat="44.63839" lon="2.94157">
        <ele>1309.93</ele>
        <time>2020-09-02T08:58:48Z</time>
      </trkpt>
      <trkpt lat="44.63837" lon="2.94132">
        <ele>1310.9</ele>
        <time>2020-09-02T08:59:03Z</time>
      </trkpt>
      <trkpt lat="44.63831" lon="2.94112">
        <ele>1311.86</ele>
        <time>2020-09-02T08:59:18Z</time>
      </trkpt>
      <trkpt lat="44.6383" lon="2.94104">
        <ele>1312.34</ele>
        <time>2020-09-02T08:59:33Z</time>
      </trkpt>
      <trkpt lat="44.63828" lon="2.94085">
        <ele>1313.78</ele>
        <time>2020-09-02T08:59:48Z</time>
      </trkpt>
      <trkpt lat="44.63828" lon="2.94063">
        <ele>1313.3</ele>
        <time>2020-09-02T09:00:03Z</time>
      </trkpt>
      <trkpt lat="44.6383" lon="2.94054">
        <ele>1313.3</ele>
        <time>2020-09-02T09:00:18Z</time>
      </trkpt>
      <trkpt lat="44.63827" lon="2.94033">
        <ele>1314.74</ele>
        <time>2020-09-02T09:00:33Z</time>
      </trkpt>
      <trkpt lat="44.63824" lon="2.94013">
        <ele>1315.7</ele>
        <time>2020-09-02T09:00:48Z</time>
      </trkpt>
      <trkpt lat="44.63818" lon="2.93986">
        <ele>1313.78</ele>
        <time>2020-09-02T09:01:03Z</time>
      </trkpt>
      <trkpt lat="44.63815" lon="2.93978">
        <ele>1313.3</ele>
        <time>2020-09-02T09:01:18Z</time>
      </trkpt>
      <trkpt lat="44.63802" lon="2.93957">
        <ele>1309.93</ele>
        <time>2020-09-02T09:01:33Z</time>
      </trkpt>
      <trkpt lat="44.63798" lon="2.9395">
        <ele>1309.93</ele>
        <time>2020-09-02T09:01:48Z</time>
      </trkpt>
      <trkpt lat="44.63792" lon="2.93925">
        <ele>1307.05</ele>
        <time>2020-09-02T09:02:03Z</time>
      </trkpt>
      <trkpt lat="44.63788" lon="2.93899">
        <ele>1304.17</ele>
        <time>2020-09-02T09:02:18Z</time>
      </trkpt>
      <trkpt lat="44.63785" lon="2.93872">
        <ele>1301.76</ele>
        <time>2020-09-02T09:02:33Z</time>
      </trkpt>
      <trkpt lat="44.63788" lon="2.93847">
        <ele>1300.32</ele>
        <time>2020-09-02T09:02:48Z</time>
      </trkpt>
      <trkpt lat="44.63787" lon="2.93838">
        <ele>1300.32</ele>
        <time>2020-09-02T09:03:03Z</time>
      </trkpt>
      <trkpt lat="44.63789" lon="2.93827">
        <ele>1300.32</ele>
        <time>2020-09-02T09:03:18Z</time>
      </trkpt>
      <trkpt lat="44.63798" lon="2.93806">
        <ele>1300.32</ele>
        <time>2020-09-02T09:03:33Z</time>
      </trkpt>
      <trkpt lat="44.63806" lon="2.93785">
        <ele>1298.4</ele>
        <time>2020-09-02T09:03:48Z</time>
      </trkpt>
      <trkpt lat="44.63819" lon="2.93769">
        <ele>1297.92</ele>
        <time>2020-09-02T09:04:03Z</time>
      </trkpt>
      <trkpt lat="44.63835" lon="2.93741">
        <ele>1295.51</ele>
        <time>2020-09-02T09:04:18Z</time>
      </trkpt>
      <trkpt lat="44.63849" lon="2.93725">
        <ele>1293.59</ele>
        <time>2020-09-02T09:04:33Z</time>
      </trkpt>
      <trkpt lat="44.63862" lon="2.93708">
        <ele>1290.71</ele>
        <time>2020-09-02T09:04:48Z</time>
      </trkpt>
      <trkpt lat="44.63864" lon="2.93696">
        <ele>1288.78</ele>
        <time>2020-09-02T09:05:03Z</time>
      </trkpt>
      <trkpt lat="44.63856" lon="2.9369">
        <ele>1286.86</ele>
        <time>2020-09-02T09:05:18Z</time>
      </trkpt>
      <trkpt lat="44.63846" lon="2.93686">
        <ele>1284.94</ele>
        <time>2020-09-02T09:05:33Z</time>
      </trkpt>
      <trkpt lat="44.63835" lon="2.93677">
        <ele>1283.5</ele>
        <time>2020-09-02T09:05:48Z</time>
      </trkpt>
      <trkpt lat="44.63823" lon="2.93671">
        <ele>1281.57</ele>
        <time>2020-09-02T09:06:03Z</time>
      </trkpt>
      <trkpt lat="44.6381" lon="2.93667">
        <ele>1278.69</ele>
        <time>2020-09-02T09:06:18Z</time>
      </trkpt>
      <trkpt lat="44.63795" lon="2.93654">
        <ele>1276.29</ele>
        <time>2020-09-02T09:06:33Z</time>
      </trkpt>
      <trkpt lat="44.63783" lon="2.93643">
        <ele>1275.33</ele>
        <time>2020-09-02T09:06:48Z</time>
      </trkpt>
      <trkpt lat="44.63772" lon="2.93626">
        <ele>1273.4</ele>
        <time>2020-09-02T09:07:03Z</time>
      </trkpt>
      <trkpt lat="44.63753" lon="2.93605">
        <ele>1271</ele>
        <time>2020-09-02T09:07:18Z</time>
      </trkpt>
      <trkpt lat="44.63743" lon="2.93593">
        <ele>1269.08</ele>
        <time>2020-09-02T09:07:33Z</time>
      </trkpt>
      <trkpt lat="44.63736" lon="2.93568">
        <ele>1265.71</ele>
        <time>2020-09-02T09:07:48Z</time>
      </trkpt>
      <trkpt lat="44.63727" lon="2.93543">
        <ele>1263.31</ele>
        <time>2020-09-02T09:08:03Z</time>
      </trkpt>
      <trkpt lat="44.63719" lon="2.93519">
        <ele>1260.43</ele>
        <time>2020-09-02T09:08:18Z</time>
      </trkpt>
      <trkpt lat="44.63711" lon="2.935">
        <ele>1256.58</ele>
        <time>2020-09-02T09:08:33Z</time>
      </trkpt>
      <trkpt lat="44.63702" lon="2.93479">
        <ele>1253.7</ele>
        <time>2020-09-02T09:08:48Z</time>
      </trkpt>
      <trkpt lat="44.63694" lon="2.9345">
        <ele>1251.29</ele>
        <time>2020-09-02T09:09:03Z</time>
      </trkpt>
      <trkpt lat="44.63685" lon="2.93429">
        <ele>1248.89</ele>
        <time>2020-09-02T09:09:18Z</time>
      </trkpt>
      <trkpt lat="44.63677" lon="2.93409">
        <ele>1246.01</ele>
        <time>2020-09-02T09:09:33Z</time>
      </trkpt>
      <trkpt lat="44.63668" lon="2.93386">
        <ele>1244.08</ele>
        <time>2020-09-02T09:09:48Z</time>
      </trkpt>
      <trkpt lat="44.63666" lon="2.93356">
        <ele>1240.72</ele>
        <time>2020-09-02T09:10:03Z</time>
      </trkpt>
      <trkpt lat="44.6366" lon="2.93333">
        <ele>1238.8</ele>
        <time>2020-09-02T09:10:18Z</time>
      </trkpt>
      <trkpt lat="44.63652" lon="2.93311">
        <ele>1235.91</ele>
        <time>2020-09-02T09:10:33Z</time>
      </trkpt>
      <trkpt lat="44.63646" lon="2.93285">
        <ele>1233.99</ele>
        <time>2020-09-02T09:10:48Z</time>
      </trkpt>
      <trkpt lat="44.63637" lon="2.93264">
        <ele>1232.55</ele>
        <time>2020-09-02T09:11:03Z</time>
      </trkpt>
      <trkpt lat="44.63629" lon="2.93243">
        <ele>1231.11</ele>
        <time>2020-09-02T09:11:18Z</time>
      </trkpt>
      <trkpt lat="44.63635" lon="2.93234">
        <ele>1228.22</ele>
        <time>2020-09-02T09:11:33Z</time>
      </trkpt>
      <trkpt lat="44.63647" lon="2.93213">
        <ele>1225.82</ele>
        <time>2020-09-02T09:11:48Z</time>
      </trkpt>
      <trkpt lat="44.63659" lon="2.93201">
        <ele>1224.86</ele>
        <time>2020-09-02T09:12:03Z</time>
      </trkpt>
      <trkpt lat="44.63671" lon="2.93194">
        <ele>1224.38</ele>
        <time>2020-09-02T09:12:18Z</time>
      </trkpt>
      <trkpt lat="44.63683" lon="2.93183">
        <ele>1223.9</ele>
        <time>2020-09-02T09:12:33Z</time>
      </trkpt>
      <trkpt lat="44.63706" lon="2.93174">
        <ele>1224.38</ele>
        <time>2020-09-02T09:12:48Z</time>
      </trkpt>
      <trkpt lat="44.63723" lon="2.9317">
        <ele>1224.86</ele>
        <time>2020-09-02T09:13:03Z</time>
      </trkpt>
      <trkpt lat="44.63743" lon="2.93174">
        <ele>1223.9</ele>
        <time>2020-09-02T09:13:18Z</time>
      </trkpt>
      <trkpt lat="44.63756" lon="2.93183">
        <ele>1223.42</ele>
        <time>2020-09-02T09:13:33Z</time>
      </trkpt>
      <trkpt lat="44.63763" lon="2.93192">
        <ele>1223.42</ele>
        <time>2020-09-02T09:13:48Z</time>
      </trkpt>
      <trkpt lat="44.63774" lon="2.93201">
        <ele>1222.45</ele>
        <time>2020-09-02T09:14:03Z</time>
      </trkpt>
      <trkpt lat="44.63796" lon="2.93221">
        <ele>1222.93</ele>
        <time>2020-09-02T09:14:18Z</time>
      </trkpt>
      <trkpt lat="44.63811" lon="2.93235">
        <ele>1224.38</ele>
        <time>2020-09-02T09:14:33Z</time>
      </trkpt>
      <trkpt lat="44.63828" lon="2.93251">
        <ele>1224.38</ele>
        <time>2020-09-02T09:14:48Z</time>
      </trkpt>
      <trkpt lat="44.63842" lon="2.93257">
        <ele>1225.34</ele>
        <time>2020-09-02T09:15:03Z</time>
      </trkpt>
      <trkpt lat="44.63854" lon="2.93262">
        <ele>1226.3</ele>
        <time>2020-09-02T09:15:18Z</time>
      </trkpt>
      <trkpt lat="44.63867" lon="2.93267">
        <ele>1227.26</ele>
        <time>2020-09-02T09:15:33Z</time>
      </trkpt>
      <trkpt lat="44.63869" lon="2.93268">
        <ele>1227.26</ele>
        <time>2020-09-02T09:15:48Z</time>
      </trkpt>
      <trkpt lat="44.63886" lon="2.93275">
        <ele>1227.26</ele>
        <time>2020-09-02T09:16:03Z</time>
      </trkpt>
      <trkpt lat="44.63906" lon="2.93282">
        <ele>1226.78</ele>
        <time>2020-09-02T09:16:18Z</time>
      </trkpt>
      <trkpt lat="44.63924" lon="2.93283">
        <ele>1225.82</ele>
        <time>2020-09-02T09:16:33Z</time>
      </trkpt>
      <trkpt lat="44.63946" lon="2.93293">
        <ele>1225.82</ele>
        <time>2020-09-02T09:16:48Z</time>
      </trkpt>
      <trkpt lat="44.63964" lon="2.93299">
        <ele>1225.82</ele>
        <time>2020-09-02T09:17:03Z</time>
      </trkpt>
      <trkpt lat="44.63981" lon="2.93299">
        <ele>1223.9</ele>
        <time>2020-09-02T09:17:18Z</time>
      </trkpt>
      <trkpt lat="44.63997" lon="2.93297">
        <ele>1222.93</ele>
        <time>2020-09-02T09:17:33Z</time>
      </trkpt>
      <trkpt lat="44.64015" lon="2.93297">
        <ele>1221.49</ele>
        <time>2020-09-02T09:17:48Z</time>
      </trkpt>
      <trkpt lat="44.64039" lon="2.93301">
        <ele>1219.09</ele>
        <time>2020-09-02T09:18:03Z</time>
      </trkpt>
      <trkpt lat="44.64057" lon="2.93307">
        <ele>1216.21</ele>
        <time>2020-09-02T09:18:18Z</time>
      </trkpt>
      <trkpt lat="44.64072" lon="2.93308">
        <ele>1213.8</ele>
        <time>2020-09-02T09:18:33Z</time>
      </trkpt>
      <trkpt lat="44.64083" lon="2.9331">
        <ele>1209.96</ele>
        <time>2020-09-02T09:18:48Z</time>
      </trkpt>
      <trkpt lat="44.64099" lon="2.93315">
        <ele>1207.07</ele>
        <time>2020-09-02T09:19:03Z</time>
      </trkpt>
      <trkpt lat="44.6411" lon="2.93316">
        <ele>1203.71</ele>
        <time>2020-09-02T09:19:18Z</time>
      </trkpt>
      <trkpt lat="44.64122" lon="2.93319">
        <ele>1200.82</ele>
        <time>2020-09-02T09:19:33Z</time>
      </trkpt>
      <trkpt lat="44.64133" lon="2.93319">
        <ele>1197.94</ele>
        <time>2020-09-02T09:19:48Z</time>
      </trkpt>
      <trkpt lat="44.64143" lon="2.93326">
        <ele>1195.54</ele>
        <time>2020-09-02T09:20:03Z</time>
      </trkpt>
      <trkpt lat="44.64153" lon="2.93331">
        <ele>1192.65</ele>
        <time>2020-09-02T09:20:18Z</time>
      </trkpt>
      <trkpt lat="44.64164" lon="2.93335">
        <ele>1190.25</ele>
        <time>2020-09-02T09:20:33Z</time>
      </trkpt>
      <trkpt lat="44.64172" lon="2.93336">
        <ele>1187.37</ele>
        <time>2020-09-02T09:20:48Z</time>
      </trkpt>
      <trkpt lat="44.64182" lon="2.93342">
        <ele>1183.52</ele>
        <time>2020-09-02T09:21:03Z</time>
      </trkpt>
      <trkpt lat="44.64196" lon="2.93335">
        <ele>1181.12</ele>
        <time>2020-09-02T09:21:18Z</time>
      </trkpt>
      <trkpt lat="44.64211" lon="2.93339">
        <ele>1178.23</ele>
        <time>2020-09-02T09:21:33Z</time>
      </trkpt>
      <trkpt lat="44.6422" lon="2.93344">
        <ele>1175.83</ele>
        <time>2020-09-02T09:21:48Z</time>
      </trkpt>
      <trkpt lat="44.64229" lon="2.93346">
        <ele>1172.95</ele>
        <time>2020-09-02T09:22:03Z</time>
      </trkpt>
      <trkpt lat="44.6424" lon="2.93352">
        <ele>1170.54</ele>
        <time>2020-09-02T09:22:18Z</time>
      </trkpt>
      <trkpt lat="44.64253" lon="2.93362">
        <ele>1168.62</ele>
        <time>2020-09-02T09:22:33Z</time>
      </trkpt>
      <trkpt lat="44.64269" lon="2.93373">
        <ele>1166.7</ele>
        <time>2020-09-02T09:22:48Z</time>
      </trkpt>
      <trkpt lat="44.64283" lon="2.93384">
        <ele>1165.74</ele>
        <time>2020-09-02T09:23:03Z</time>
      </trkpt>
      <trkpt lat="44.64289" lon="2.93391">
        <ele>1162.85</ele>
        <time>2020-09-02T09:23:18Z</time>
      </trkpt>
      <trkpt lat="44.64293" lon="2.93391">
        <ele>1162.85</ele>
        <time>2020-09-02T09:23:33Z</time>
      </trkpt>
      <trkpt lat="44.64296" lon="2.93391">
        <ele>1163.33</ele>
        <time>2020-09-02T09:23:48Z</time>
      </trkpt>
      <trkpt lat="44.64299" lon="2.93395">
        <ele>1162.85</ele>
        <time>2020-09-02T09:24:03Z</time>
      </trkpt>
      <trkpt lat="44.64305" lon="2.93415">
        <ele>1163.33</ele>
        <time>2020-09-02T09:24:18Z</time>
      </trkpt>
      <trkpt lat="44.64308" lon="2.93419">
        <ele>1162.37</ele>
        <time>2020-09-02T09:24:33Z</time>
      </trkpt>
      <trkpt lat="44.64313" lon="2.93418">
        <ele>1162.85</ele>
        <time>2020-09-02T09:24:48Z</time>
      </trkpt>
      <trkpt lat="44.64316" lon="2.93418">
        <ele>1162.85</ele>
        <time>2020-09-02T09:25:03Z</time>
      </trkpt>
      <trkpt lat="44.64319" lon="2.93421">
        <ele>1163.33</ele>
        <time>2020-09-02T09:25:18Z</time>
      </trkpt>
      <trkpt lat="44.64322" lon="2.93419">
        <ele>1162.37</ele>
        <time>2020-09-02T09:25:33Z</time>
      </trkpt>
      <trkpt lat="44.64327" lon="2.93422">
        <ele>1162.37</ele>
        <time>2020-09-02T09:25:48Z</time>
      </trkpt>
      <trkpt lat="44.64327" lon="2.93424">
        <ele>1162.37</ele>
        <time>2020-09-02T09:26:03Z</time>
      </trkpt>
      <trkpt lat="44.64328" lon="2.93425">
        <ele>1162.37</ele>
        <time>2020-09-02T09:26:18Z</time>
      </trkpt>
      <trkpt lat="44.64325" lon="2.93427">
        <ele>1162.85</ele>
        <time>2020-09-02T09:26:33Z</time>
      </trkpt>
      <trkpt lat="44.64326" lon="2.93422">
        <ele>1163.81</ele>
        <time>2020-09-02T09:26:48Z</time>
      </trkpt>
      <trkpt lat="44.64323" lon="2.93416">
        <ele>1163.33</ele>
        <time>2020-09-02T09:27:03Z</time>
      </trkpt>
      <trkpt lat="44.64322" lon="2.93413">
        <ele>1164.29</ele>
        <time>2020-09-02T09:27:18Z</time>
      </trkpt>
      <trkpt lat="44.64326" lon="2.93428">
        <ele>1163.81</ele>
        <time>2020-09-02T09:27:33Z</time>
      </trkpt>
      <trkpt lat="44.6433" lon="2.93428">
        <ele>1163.81</ele>
        <time>2020-09-02T09:27:48Z</time>
      </trkpt>
      <trkpt lat="44.64325" lon="2.93429">
        <ele>1163.81</ele>
        <time>2020-09-02T09:28:03Z</time>
      </trkpt>
      <trkpt lat="44.64331" lon="2.93426">
        <ele>1163.81</ele>
        <time>2020-09-02T09:28:18Z</time>
      </trkpt>
      <trkpt lat="44.64343" lon="2.93417">
        <ele>1164.77</ele>
        <time>2020-09-02T09:28:33Z</time>
      </trkpt>
      <trkpt lat="44.6435" lon="2.93405">
        <ele>1165.26</ele>
        <time>2020-09-02T09:28:48Z</time>
      </trkpt>
      <trkpt lat="44.64348" lon="2.93393">
        <ele>1165.74</ele>
        <time>2020-09-02T09:29:03Z</time>
      </trkpt>
      <trkpt lat="44.6435" lon="2.93391">
        <ele>1166.22</ele>
        <time>2020-09-02T09:29:18Z</time>
      </trkpt>
      <trkpt lat="44.64349" lon="2.93391">
        <ele>1166.7</ele>
        <time>2020-09-02T09:29:33Z</time>
      </trkpt>
      <trkpt lat="44.64349" lon="2.93391">
        <ele>1166.22</ele>
        <time>2020-09-02T09:29:48Z</time>
      </trkpt>
      <trkpt lat="44.64349" lon="2.93393">
        <ele>1166.22</ele>
        <time>2020-09-02T09:30:03Z</time>
      </trkpt>
      <trkpt lat="44.64355" lon="2.93388">
        <ele>1169.1</ele>
        <time>2020-09-02T09:30:18Z</time>
      </trkpt>
      <trkpt lat="44.64361" lon="2.93382">
        <ele>1171.02</ele>
        <time>2020-09-02T09:30:33Z</time>
      </trkpt>
      <trkpt lat="44.64374" lon="2.9338">
        <ele>1172.47</ele>
        <time>2020-09-02T09:30:48Z</time>
      </trkpt>
      <trkpt lat="44.64388" lon="2.93382">
        <ele>1173.43</ele>
        <time>2020-09-02T09:31:03Z</time>
      </trkpt>
      <trkpt lat="44.64397" lon="2.93384">
        <ele>1174.87</ele>
        <time>2020-09-02T09:31:18Z</time>
      </trkpt>
      <trkpt lat="44.64409" lon="2.93391">
        <ele>1177.27</ele>
        <time>2020-09-02T09:31:33Z</time>
      </trkpt>
      <trkpt lat="44.64422" lon="2.93386">
        <ele>1179.19</ele>
        <time>2020-09-02T09:31:48Z</time>
      </trkpt>
      <trkpt lat="44.64434" lon="2.93384">
        <ele>1181.6</ele>
        <time>2020-09-02T09:32:03Z</time>
      </trkpt>
      <trkpt lat="44.64445" lon="2.93386">
        <ele>1182.08</ele>
        <time>2020-09-02T09:32:18Z</time>
      </trkpt>
      <trkpt lat="44.64454" lon="2.9339">
        <ele>1182.08</ele>
        <time>2020-09-02T09:32:33Z</time>
      </trkpt>
      <trkpt lat="44.6446" lon="2.93386">
        <ele>1182.56</ele>
        <time>2020-09-02T09:32:48Z</time>
      </trkpt>
      <trkpt lat="44.64461" lon="2.93375">
        <ele>1184</ele>
        <time>2020-09-02T09:33:03Z</time>
      </trkpt>
      <trkpt lat="44.64458" lon="2.9336">
        <ele>1184.96</ele>
        <time>2020-09-02T09:33:18Z</time>
      </trkpt>
      <trkpt lat="44.64462" lon="2.9334">
        <ele>1187.37</ele>
        <time>2020-09-02T09:33:33Z</time>
      </trkpt>
      <trkpt lat="44.64465" lon="2.93325">
        <ele>1189.29</ele>
        <time>2020-09-02T09:33:48Z</time>
      </trkpt>
      <trkpt lat="44.64469" lon="2.9331">
        <ele>1190.25</ele>
        <time>2020-09-02T09:34:03Z</time>
      </trkpt>
      <trkpt lat="44.64468" lon="2.93295">
        <ele>1192.17</ele>
        <time>2020-09-02T09:34:18Z</time>
      </trkpt>
      <trkpt lat="44.64469" lon="2.93278">
        <ele>1194.09</ele>
        <time>2020-09-02T09:34:33Z</time>
      </trkpt>
      <trkpt lat="44.64468" lon="2.93263">
        <ele>1195.54</ele>
        <time>2020-09-02T09:34:48Z</time>
      </trkpt>
      <trkpt lat="44.64466" lon="2.93247">
        <ele>1196.98</ele>
        <time>2020-09-02T09:35:03Z</time>
      </trkpt>
      <trkpt lat="44.64466" lon="2.93228">
        <ele>1199.86</ele>
        <time>2020-09-02T09:35:18Z</time>
      </trkpt>
      <trkpt lat="44.64468" lon="2.93214">
        <ele>1201.79</ele>
        <time>2020-09-02T09:35:33Z</time>
      </trkpt>
      <trkpt lat="44.64466" lon="2.93199">
        <ele>1203.71</ele>
        <time>2020-09-02T09:35:48Z</time>
      </trkpt>
      <trkpt lat="44.64466" lon="2.93189">
        <ele>1205.63</ele>
        <time>2020-09-02T09:36:03Z</time>
      </trkpt>
      <trkpt lat="44.64463" lon="2.93172">
        <ele>1206.59</ele>
        <time>2020-09-02T09:36:18Z</time>
      </trkpt>
      <trkpt lat="44.64459" lon="2.93158">
        <ele>1208.03</ele>
        <time>2020-09-02T09:36:33Z</time>
      </trkpt>
      <trkpt lat="44.64455" lon="2.93143">
        <ele>1209.48</ele>
        <time>2020-09-02T09:36:48Z</time>
      </trkpt>
      <trkpt lat="44.64451" lon="2.93124">
        <ele>1210.44</ele>
        <time>2020-09-02T09:37:03Z</time>
      </trkpt>
      <trkpt lat="44.6445" lon="2.93105">
        <ele>1212.36</ele>
        <time>2020-09-02T09:37:18Z</time>
      </trkpt>
      <trkpt lat="44.64453" lon="2.93087">
        <ele>1213.8</ele>
        <time>2020-09-02T09:37:33Z</time>
      </trkpt>
      <trkpt lat="44.64454" lon="2.93063">
        <ele>1214.76</ele>
        <time>2020-09-02T09:37:48Z</time>
      </trkpt>
      <trkpt lat="44.64458" lon="2.93045">
        <ele>1216.69</ele>
        <time>2020-09-02T09:38:03Z</time>
      </trkpt>
      <trkpt lat="44.64463" lon="2.93035">
        <ele>1217.17</ele>
        <time>2020-09-02T09:38:18Z</time>
      </trkpt>
      <trkpt lat="44.64469" lon="2.93028">
        <ele>1217.65</ele>
        <time>2020-09-02T09:38:33Z</time>
      </trkpt>
      <trkpt lat="44.64479" lon="2.93029">
        <ele>1219.09</ele>
        <time>2020-09-02T09:38:48Z</time>
      </trkpt>
      <trkpt lat="44.64489" lon="2.93034">
        <ele>1220.53</ele>
        <time>2020-09-02T09:39:03Z</time>
      </trkpt>
      <trkpt lat="44.64496" lon="2.93045">
        <ele>1221.97</ele>
        <time>2020-09-02T09:39:18Z</time>
      </trkpt>
      <trkpt lat="44.64501" lon="2.93057">
        <ele>1222.45</ele>
        <time>2020-09-02T09:39:33Z</time>
      </trkpt>
      <trkpt lat="44.64506" lon="2.93073">
        <ele>1222.93</ele>
        <time>2020-09-02T09:39:48Z</time>
      </trkpt>
      <trkpt lat="44.64507" lon="2.93084">
        <ele>1223.9</ele>
        <time>2020-09-02T09:40:03Z</time>
      </trkpt>
      <trkpt lat="44.64515" lon="2.93106">
        <ele>1225.34</ele>
        <time>2020-09-02T09:40:18Z</time>
      </trkpt>
      <trkpt lat="44.64523" lon="2.93129">
        <ele>1226.3</ele>
        <time>2020-09-02T09:40:33Z</time>
      </trkpt>
      <trkpt lat="44.64529" lon="2.93152">
        <ele>1227.26</ele>
        <time>2020-09-02T09:40:48Z</time>
      </trkpt>
      <trkpt lat="44.64537" lon="2.9316">
        <ele>1228.7</ele>
        <time>2020-09-02T09:41:03Z</time>
      </trkpt>
      <trkpt lat="44.64552" lon="2.93171">
        <ele>1230.14</ele>
        <time>2020-09-02T09:41:18Z</time>
      </trkpt>
      <trkpt lat="44.64566" lon="2.93193">
        <ele>1232.07</ele>
        <time>2020-09-02T09:41:33Z</time>
      </trkpt>
      <trkpt lat="44.64575" lon="2.93205">
        <ele>1234.47</ele>
        <time>2020-09-02T09:41:48Z</time>
      </trkpt>
      <trkpt lat="44.64579" lon="2.93222">
        <ele>1234.95</ele>
        <time>2020-09-02T09:42:03Z</time>
      </trkpt>
      <trkpt lat="44.64581" lon="2.93237">
        <ele>1236.39</ele>
        <time>2020-09-02T09:42:18Z</time>
      </trkpt>
      <trkpt lat="44.64583" lon="2.93253">
        <ele>1238.8</ele>
        <time>2020-09-02T09:42:33Z</time>
      </trkpt>
      <trkpt lat="44.64585" lon="2.93271">
        <ele>1240.24</ele>
        <time>2020-09-02T09:42:48Z</time>
      </trkpt>
      <trkpt lat="44.64591" lon="2.93299">
        <ele>1243.6</ele>
        <time>2020-09-02T09:43:03Z</time>
      </trkpt>
      <trkpt lat="44.64592" lon="2.93319">
        <ele>1245.04</ele>
        <time>2020-09-02T09:43:18Z</time>
      </trkpt>
      <trkpt lat="44.64598" lon="2.93335">
        <ele>1246.97</ele>
        <time>2020-09-02T09:43:33Z</time>
      </trkpt>
      <trkpt lat="44.64602" lon="2.93357">
        <ele>1248.89</ele>
        <time>2020-09-02T09:43:47Z</time>
      </trkpt>
      <trkpt lat="44.64608" lon="2.93375">
        <ele>1251.29</ele>
        <time>2020-09-02T09:44:03Z</time>
      </trkpt>
      <trkpt lat="44.64614" lon="2.93394">
        <ele>1252.74</ele>
        <time>2020-09-02T09:44:18Z</time>
      </trkpt>
      <trkpt lat="44.64622" lon="2.93413">
        <ele>1254.66</ele>
        <time>2020-09-02T09:44:33Z</time>
      </trkpt>
      <trkpt lat="44.64629" lon="2.93429">
        <ele>1256.58</ele>
        <time>2020-09-02T09:44:48Z</time>
      </trkpt>
      <trkpt lat="44.64638" lon="2.93448">
        <ele>1258.5</ele>
        <time>2020-09-02T09:45:03Z</time>
      </trkpt>
      <trkpt lat="44.64646" lon="2.93461">
        <ele>1259.46</ele>
        <time>2020-09-02T09:45:18Z</time>
      </trkpt>
      <trkpt lat="44.64655" lon="2.93471">
        <ele>1261.39</ele>
        <time>2020-09-02T09:45:33Z</time>
      </trkpt>
      <trkpt lat="44.64666" lon="2.93483">
        <ele>1263.79</ele>
        <time>2020-09-02T09:45:48Z</time>
      </trkpt>
      <trkpt lat="44.64676" lon="2.93495">
        <ele>1266.19</ele>
        <time>2020-09-02T09:46:03Z</time>
      </trkpt>
      <trkpt lat="44.64684" lon="2.93508">
        <ele>1268.12</ele>
        <time>2020-09-02T09:46:18Z</time>
      </trkpt>
      <trkpt lat="44.64689" lon="2.93519">
        <ele>1270.04</ele>
        <time>2020-09-02T09:46:33Z</time>
      </trkpt>
      <trkpt lat="44.64696" lon="2.93534">
        <ele>1272.44</ele>
        <time>2020-09-02T09:46:48Z</time>
      </trkpt>
      <trkpt lat="44.64704" lon="2.9355">
        <ele>1273.88</ele>
        <time>2020-09-02T09:47:03Z</time>
      </trkpt>
      <trkpt lat="44.64714" lon="2.93563">
        <ele>1275.33</ele>
        <time>2020-09-02T09:47:18Z</time>
      </trkpt>
      <trkpt lat="44.64723" lon="2.93573">
        <ele>1278.21</ele>
        <time>2020-09-02T09:47:33Z</time>
      </trkpt>
      <trkpt lat="44.64739" lon="2.93575">
        <ele>1279.65</ele>
        <time>2020-09-02T09:47:48Z</time>
      </trkpt>
      <trkpt lat="44.64757" lon="2.93573">
        <ele>1280.13</ele>
        <time>2020-09-02T09:48:03Z</time>
      </trkpt>
      <trkpt lat="44.64771" lon="2.93579">
        <ele>1280.61</ele>
        <time>2020-09-02T09:48:18Z</time>
      </trkpt>
      <trkpt lat="44.64784" lon="2.93592">
        <ele>1281.09</ele>
        <time>2020-09-02T09:48:33Z</time>
      </trkpt>
      <trkpt lat="44.64793" lon="2.93606">
        <ele>1282.06</ele>
        <time>2020-09-02T09:48:48Z</time>
      </trkpt>
      <trkpt lat="44.64799" lon="2.93621">
        <ele>1283.5</ele>
        <time>2020-09-02T09:49:03Z</time>
      </trkpt>
      <trkpt lat="44.64808" lon="2.93639">
        <ele>1283.5</ele>
        <time>2020-09-02T09:49:18Z</time>
      </trkpt>
      <trkpt lat="44.64816" lon="2.93654">
        <ele>1283.98</ele>
        <time>2020-09-02T09:49:33Z</time>
      </trkpt>
      <trkpt lat="44.64827" lon="2.93675">
        <ele>1284.94</ele>
        <time>2020-09-02T09:49:48Z</time>
      </trkpt>
      <trkpt lat="44.64841" lon="2.93692">
        <ele>1286.38</ele>
        <time>2020-09-02T09:50:03Z</time>
      </trkpt>
      <trkpt lat="44.64857" lon="2.93697">
        <ele>1286.86</ele>
        <time>2020-09-02T09:50:18Z</time>
      </trkpt>
      <trkpt lat="44.6487" lon="2.93692">
        <ele>1287.82</ele>
        <time>2020-09-02T09:50:33Z</time>
      </trkpt>
      <trkpt lat="44.64886" lon="2.93681">
        <ele>1288.78</ele>
        <time>2020-09-02T09:50:48Z</time>
      </trkpt>
      <trkpt lat="44.649" lon="2.93684">
        <ele>1290.23</ele>
        <time>2020-09-02T09:51:03Z</time>
      </trkpt>
      <trkpt lat="44.64913" lon="2.93686">
        <ele>1291.19</ele>
        <time>2020-09-02T09:51:18Z</time>
      </trkpt>
      <trkpt lat="44.64927" lon="2.93686">
        <ele>1291.67</ele>
        <time>2020-09-02T09:51:33Z</time>
      </trkpt>
      <trkpt lat="44.64939" lon="2.93683">
        <ele>1292.63</ele>
        <time>2020-09-02T09:51:48Z</time>
      </trkpt>
      <trkpt lat="44.64955" lon="2.93681">
        <ele>1294.55</ele>
        <time>2020-09-02T09:52:03Z</time>
      </trkpt>
      <trkpt lat="44.64973" lon="2.93676">
        <ele>1297.44</ele>
        <time>2020-09-02T09:52:18Z</time>
      </trkpt>
      <trkpt lat="44.64989" lon="2.93677">
        <ele>1298.4</ele>
        <time>2020-09-02T09:52:33Z</time>
      </trkpt>
      <trkpt lat="44.65005" lon="2.93679">
        <ele>1299.36</ele>
        <time>2020-09-02T09:52:48Z</time>
      </trkpt>
      <trkpt lat="44.65018" lon="2.93675">
        <ele>1299.84</ele>
        <time>2020-09-02T09:53:03Z</time>
      </trkpt>
      <trkpt lat="44.65031" lon="2.9368">
        <ele>1301.76</ele>
        <time>2020-09-02T09:53:18Z</time>
      </trkpt>
      <trkpt lat="44.65043" lon="2.93683">
        <ele>1303.69</ele>
        <time>2020-09-02T09:53:33Z</time>
      </trkpt>
      <trkpt lat="44.65053" lon="2.93686">
        <ele>1305.13</ele>
        <time>2020-09-02T09:53:48Z</time>
      </trkpt>
      <trkpt lat="44.65068" lon="2.9369">
        <ele>1306.09</ele>
        <time>2020-09-02T09:54:03Z</time>
      </trkpt>
      <trkpt lat="44.65082" lon="2.93693">
        <ele>1307.05</ele>
        <time>2020-09-02T09:54:18Z</time>
      </trkpt>
      <trkpt lat="44.65095" lon="2.93695">
        <ele>1308.01</ele>
        <time>2020-09-02T09:54:33Z</time>
      </trkpt>
      <trkpt lat="44.65106" lon="2.93696">
        <ele>1310.9</ele>
        <time>2020-09-02T09:54:48Z</time>
      </trkpt>
      <trkpt lat="44.65121" lon="2.93697">
        <ele>1311.86</ele>
        <time>2020-09-02T09:55:03Z</time>
      </trkpt>
      <trkpt lat="44.65134" lon="2.93699">
        <ele>1313.78</ele>
        <time>2020-09-02T09:55:18Z</time>
      </trkpt>
      <trkpt lat="44.65151" lon="2.937">
        <ele>1315.22</ele>
        <time>2020-09-02T09:55:33Z</time>
      </trkpt>
      <trkpt lat="44.65165" lon="2.93702">
        <ele>1315.7</ele>
        <time>2020-09-02T09:55:48Z</time>
      </trkpt>
      <trkpt lat="44.65182" lon="2.93707">
        <ele>1314.74</ele>
        <time>2020-09-02T09:56:03Z</time>
      </trkpt>
      <trkpt lat="44.65199" lon="2.9371">
        <ele>1316.18</ele>
        <time>2020-09-02T09:56:17Z</time>
      </trkpt>
      <trkpt lat="44.65218" lon="2.93715">
        <ele>1316.18</ele>
        <time>2020-09-02T09:56:32Z</time>
      </trkpt>
      <trkpt lat="44.65237" lon="2.93721">
        <ele>1316.18</ele>
        <time>2020-09-02T09:56:47Z</time>
      </trkpt>
      <trkpt lat="44.65255" lon="2.93724">
        <ele>1317.14</ele>
        <time>2020-09-02T09:57:02Z</time>
      </trkpt>
      <trkpt lat="44.65273" lon="2.93734">
        <ele>1317.62</ele>
        <time>2020-09-02T09:57:17Z</time>
      </trkpt>
      <trkpt lat="44.65293" lon="2.93748">
        <ele>1319.55</ele>
        <time>2020-09-02T09:57:32Z</time>
      </trkpt>
      <trkpt lat="44.65307" lon="2.93752">
        <ele>1319.55</ele>
        <time>2020-09-02T09:57:47Z</time>
      </trkpt>
      <trkpt lat="44.65317" lon="2.93749">
        <ele>1320.51</ele>
        <time>2020-09-02T09:58:02Z</time>
      </trkpt>
      <trkpt lat="44.65329" lon="2.93751">
        <ele>1321.95</ele>
        <time>2020-09-02T09:58:17Z</time>
      </trkpt>
      <trkpt lat="44.65345" lon="2.93752">
        <ele>1322.43</ele>
        <time>2020-09-02T09:58:32Z</time>
      </trkpt>
      <trkpt lat="44.6536" lon="2.93753">
        <ele>1323.87</ele>
        <time>2020-09-02T09:58:47Z</time>
      </trkpt>
      <trkpt lat="44.65375" lon="2.93754">
        <ele>1323.87</ele>
        <time>2020-09-02T09:59:02Z</time>
      </trkpt>
      <trkpt lat="44.65392" lon="2.93753">
        <ele>1325.31</ele>
        <time>2020-09-02T09:59:17Z</time>
      </trkpt>
      <trkpt lat="44.6541" lon="2.93752">
        <ele>1325.31</ele>
        <time>2020-09-02T09:59:32Z</time>
      </trkpt>
      <trkpt lat="44.65425" lon="2.9375">
        <ele>1326.28</ele>
        <time>2020-09-02T09:59:47Z</time>
      </trkpt>
      <trkpt lat="44.65441" lon="2.93749">
        <ele>1327.24</ele>
        <time>2020-09-02T10:00:02Z</time>
      </trkpt>
      <trkpt lat="44.65456" lon="2.93749">
        <ele>1328.2</ele>
        <time>2020-09-02T10:00:17Z</time>
      </trkpt>
      <trkpt lat="44.65473" lon="2.93749">
        <ele>1327.72</ele>
        <time>2020-09-02T10:00:32Z</time>
      </trkpt>
      <trkpt lat="44.65487" lon="2.93749">
        <ele>1328.2</ele>
        <time>2020-09-02T10:00:47Z</time>
      </trkpt>
      <trkpt lat="44.65499" lon="2.93749">
        <ele>1330.6</ele>
        <time>2020-09-02T10:01:02Z</time>
      </trkpt>
      <trkpt lat="44.65513" lon="2.93754">
        <ele>1332.04</ele>
        <time>2020-09-02T10:01:17Z</time>
      </trkpt>
      <trkpt lat="44.65528" lon="2.93762">
        <ele>1333.01</ele>
        <time>2020-09-02T10:01:32Z</time>
      </trkpt>
      <trkpt lat="44.6554" lon="2.93764">
        <ele>1334.93</ele>
        <time>2020-09-02T10:01:47Z</time>
      </trkpt>
      <trkpt lat="44.65553" lon="2.93766">
        <ele>1336.37</ele>
        <time>2020-09-02T10:02:02Z</time>
      </trkpt>
      <trkpt lat="44.65565" lon="2.93767">
        <ele>1338.77</ele>
        <time>2020-09-02T10:02:17Z</time>
      </trkpt>
      <trkpt lat="44.65576" lon="2.93774">
        <ele>1340.7</ele>
        <time>2020-09-02T10:02:32Z</time>
      </trkpt>
      <trkpt lat="44.65583" lon="2.93786">
        <ele>1343.1</ele>
        <time>2020-09-02T10:02:47Z</time>
      </trkpt>
      <trkpt lat="44.65592" lon="2.93801">
        <ele>1344.54</ele>
        <time>2020-09-02T10:03:02Z</time>
      </trkpt>
      <trkpt lat="44.65599" lon="2.93815">
        <ele>1347.43</ele>
        <time>2020-09-02T10:03:17Z</time>
      </trkpt>
      <trkpt lat="44.65607" lon="2.93828">
        <ele>1348.87</ele>
        <time>2020-09-02T10:03:32Z</time>
      </trkpt>
      <trkpt lat="44.65613" lon="2.93838">
        <ele>1350.79</ele>
        <time>2020-09-02T10:03:47Z</time>
      </trkpt>
      <trkpt lat="44.65619" lon="2.9385">
        <ele>1350.79</ele>
        <time>2020-09-02T10:04:02Z</time>
      </trkpt>
      <trkpt lat="44.65628" lon="2.93852">
        <ele>1350.31</ele>
        <time>2020-09-02T10:04:17Z</time>
      </trkpt>
      <trkpt lat="44.6564" lon="2.93853">
        <ele>1349.35</ele>
        <time>2020-09-02T10:04:32Z</time>
      </trkpt>
      <trkpt lat="44.6565" lon="2.93864">
        <ele>1349.35</ele>
        <time>2020-09-02T10:04:47Z</time>
      </trkpt>
      <trkpt lat="44.65643" lon="2.93874">
        <ele>1349.83</ele>
        <time>2020-09-02T10:05:02Z</time>
      </trkpt>
      <trkpt lat="44.65645" lon="2.93879">
        <ele>1349.83</ele>
        <time>2020-09-02T10:05:17Z</time>
      </trkpt>
      <trkpt lat="44.65662" lon="2.93884">
        <ele>1349.83</ele>
        <time>2020-09-02T10:05:32Z</time>
      </trkpt>
      <trkpt lat="44.65665" lon="2.93885">
        <ele>1349.83</ele>
        <time>2020-09-02T10:05:47Z</time>
      </trkpt>
      <trkpt lat="44.65667" lon="2.93888">
        <ele>1349.83</ele>
        <time>2020-09-02T10:06:02Z</time>
      </trkpt>
      <trkpt lat="44.65672" lon="2.93887">
        <ele>1350.31</ele>
        <time>2020-09-02T10:06:17Z</time>
      </trkpt>
      <trkpt lat="44.65676" lon="2.93886">
        <ele>1350.31</ele>
        <time>2020-09-02T10:06:32Z</time>
      </trkpt>
      <trkpt lat="44.6568" lon="2.93877">
        <ele>1350.31</ele>
        <time>2020-09-02T10:06:47Z</time>
      </trkpt>
      <trkpt lat="44.65691" lon="2.93878">
        <ele>1349.83</ele>
        <time>2020-09-02T10:07:02Z</time>
      </trkpt>
      <trkpt lat="44.65702" lon="2.93879">
        <ele>1349.35</ele>
        <time>2020-09-02T10:07:17Z</time>
      </trkpt>
      <trkpt lat="44.65711" lon="2.93882">
        <ele>1347.91</ele>
        <time>2020-09-02T10:07:32Z</time>
      </trkpt>
      <trkpt lat="44.65722" lon="2.93889">
        <ele>1345.02</ele>
        <time>2020-09-02T10:07:47Z</time>
      </trkpt>
      <trkpt lat="44.65732" lon="2.93896">
        <ele>1343.58</ele>
        <time>2020-09-02T10:08:02Z</time>
      </trkpt>
      <trkpt lat="44.65744" lon="2.93901">
        <ele>1341.66</ele>
        <time>2020-09-02T10:08:17Z</time>
      </trkpt>
      <trkpt lat="44.65758" lon="2.9391">
        <ele>1341.18</ele>
        <time>2020-09-02T10:08:32Z</time>
      </trkpt>
      <trkpt lat="44.65782" lon="2.93918">
        <ele>1340.22</ele>
        <time>2020-09-02T10:08:47Z</time>
      </trkpt>
      <trkpt lat="44.65805" lon="2.93927">
        <ele>1340.7</ele>
        <time>2020-09-02T10:09:02Z</time>
      </trkpt>
      <trkpt lat="44.6582" lon="2.93936">
        <ele>1342.62</ele>
        <time>2020-09-02T10:09:17Z</time>
      </trkpt>
      <trkpt lat="44.65831" lon="2.93936">
        <ele>1344.06</ele>
        <time>2020-09-02T10:09:32Z</time>
      </trkpt>
      <trkpt lat="44.65843" lon="2.93927">
        <ele>1344.54</ele>
        <time>2020-09-02T10:09:47Z</time>
      </trkpt>
      <trkpt lat="44.65858" lon="2.93918">
        <ele>1345.02</ele>
        <time>2020-09-02T10:10:02Z</time>
      </trkpt>
      <trkpt lat="44.6587" lon="2.93912">
        <ele>1345.5</ele>
        <time>2020-09-02T10:10:17Z</time>
      </trkpt>
      <trkpt lat="44.65882" lon="2.93906">
        <ele>1346.46</ele>
        <time>2020-09-02T10:10:32Z</time>
      </trkpt>
      <trkpt lat="44.65896" lon="2.939">
        <ele>1347.43</ele>
        <time>2020-09-02T10:10:47Z</time>
      </trkpt>
      <trkpt lat="44.6591" lon="2.93893">
        <ele>1348.87</ele>
        <time>2020-09-02T10:11:02Z</time>
      </trkpt>
      <trkpt lat="44.65924" lon="2.93886">
        <ele>1349.83</ele>
        <time>2020-09-02T10:11:17Z</time>
      </trkpt>
      <trkpt lat="44.65941" lon="2.93883">
        <ele>1351.75</ele>
        <time>2020-09-02T10:11:32Z</time>
      </trkpt>
      <trkpt lat="44.6595" lon="2.93875">
        <ele>1353.19</ele>
        <time>2020-09-02T10:11:47Z</time>
      </trkpt>
      <trkpt lat="44.65964" lon="2.93862">
        <ele>1353.67</ele>
        <time>2020-09-02T10:12:02Z</time>
      </trkpt>
      <trkpt lat="44.65977" lon="2.93847">
        <ele>1355.12</ele>
        <time>2020-09-02T10:12:17Z</time>
      </trkpt>
      <trkpt lat="44.6599" lon="2.93837">
        <ele>1356.08</ele>
        <time>2020-09-02T10:12:32Z</time>
      </trkpt>
      <trkpt lat="44.65999" lon="2.93831">
        <ele>1357.04</ele>
        <time>2020-09-02T10:12:47Z</time>
      </trkpt>
      <trkpt lat="44.6601" lon="2.93823">
        <ele>1358.96</ele>
        <time>2020-09-02T10:13:02Z</time>
      </trkpt>
      <trkpt lat="44.66027" lon="2.93812">
        <ele>1360.4</ele>
        <time>2020-09-02T10:13:17Z</time>
      </trkpt>
      <trkpt lat="44.66029" lon="2.93805">
        <ele>1360.4</ele>
        <time>2020-09-02T10:13:32Z</time>
      </trkpt>
      <trkpt lat="44.66032" lon="2.93806">
        <ele>1360.88</ele>
        <time>2020-09-02T10:13:47Z</time>
      </trkpt>
      <trkpt lat="44.66043" lon="2.93796">
        <ele>1359.44</ele>
        <time>2020-09-02T10:14:02Z</time>
      </trkpt>
      <trkpt lat="44.66059" lon="2.93782">
        <ele>1358.96</ele>
        <time>2020-09-02T10:14:17Z</time>
      </trkpt>
      <trkpt lat="44.66071" lon="2.93766">
        <ele>1360.4</ele>
        <time>2020-09-02T10:14:32Z</time>
      </trkpt>
      <trkpt lat="44.66081" lon="2.93752">
        <ele>1360.88</ele>
        <time>2020-09-02T10:14:47Z</time>
      </trkpt>
      <trkpt lat="44.66085" lon="2.93733">
        <ele>1360.88</ele>
        <time>2020-09-02T10:15:02Z</time>
      </trkpt>
      <trkpt lat="44.66087" lon="2.93714">
        <ele>1358.48</ele>
        <time>2020-09-02T10:15:17Z</time>
      </trkpt>
      <trkpt lat="44.66085" lon="2.93695">
        <ele>1358.48</ele>
        <time>2020-09-02T10:15:32Z</time>
      </trkpt>
      <trkpt lat="44.66084" lon="2.93685">
        <ele>1357.04</ele>
        <time>2020-09-02T10:15:47Z</time>
      </trkpt>
      <trkpt lat="44.66078" lon="2.9367">
        <ele>1356.08</ele>
        <time>2020-09-02T10:16:02Z</time>
      </trkpt>
      <trkpt lat="44.66076" lon="2.93657">
        <ele>1356.08</ele>
        <time>2020-09-02T10:16:17Z</time>
      </trkpt>
      <trkpt lat="44.66072" lon="2.9364">
        <ele>1357.52</ele>
        <time>2020-09-02T10:16:32Z</time>
      </trkpt>
      <trkpt lat="44.6607" lon="2.93626">
        <ele>1357.04</ele>
        <time>2020-09-02T10:16:46Z</time>
      </trkpt>
      <trkpt lat="44.66074" lon="2.93619">
        <ele>1356.56</ele>
        <time>2020-09-02T10:17:02Z</time>
      </trkpt>
      <trkpt lat="44.6607" lon="2.93614">
        <ele>1356.08</ele>
        <time>2020-09-02T10:17:17Z</time>
      </trkpt>
      <trkpt lat="44.66071" lon="2.93611">
        <ele>1356.08</ele>
        <time>2020-09-02T10:17:32Z</time>
      </trkpt>
      <trkpt lat="44.66072" lon="2.9361">
        <ele>1356.08</ele>
        <time>2020-09-02T10:17:47Z</time>
      </trkpt>
      <trkpt lat="44.66072" lon="2.93609">
        <ele>1356.56</ele>
        <time>2020-09-02T10:18:02Z</time>
      </trkpt>
      <trkpt lat="44.66072" lon="2.93609">
        <ele>1355.6</ele>
        <time>2020-09-02T10:18:17Z</time>
      </trkpt>
      <trkpt lat="44.66072" lon="2.93612">
        <ele>1356.08</ele>
        <time>2020-09-02T10:18:32Z</time>
      </trkpt>
      <trkpt lat="44.66071" lon="2.93616">
        <ele>1356.56</ele>
        <time>2020-09-02T10:18:47Z</time>
      </trkpt>
      <trkpt lat="44.66073" lon="2.93621">
        <ele>1356.08</ele>
        <time>2020-09-02T10:19:02Z</time>
      </trkpt>
      <trkpt lat="44.66074" lon="2.93621">
        <ele>1356.08</ele>
        <time>2020-09-02T10:19:17Z</time>
      </trkpt>
      <trkpt lat="44.66077" lon="2.93617">
        <ele>1355.6</ele>
        <time>2020-09-02T10:19:32Z</time>
      </trkpt>
      <trkpt lat="44.66076" lon="2.93617">
        <ele>1355.12</ele>
        <time>2020-09-02T10:19:47Z</time>
      </trkpt>
      <trkpt lat="44.66075" lon="2.93617">
        <ele>1355.6</ele>
        <time>2020-09-02T10:20:02Z</time>
      </trkpt>
      <trkpt lat="44.66073" lon="2.93619">
        <ele>1355.12</ele>
        <time>2020-09-02T10:20:17Z</time>
      </trkpt>
      <trkpt lat="44.66071" lon="2.93621">
        <ele>1354.63</ele>
        <time>2020-09-02T10:20:32Z</time>
      </trkpt>
      <trkpt lat="44.66072" lon="2.93618">
        <ele>1354.63</ele>
        <time>2020-09-02T10:20:47Z</time>
      </trkpt>
      <trkpt lat="44.66073" lon="2.93619">
        <ele>1354.63</ele>
        <time>2020-09-02T10:21:02Z</time>
      </trkpt>
      <trkpt lat="44.66072" lon="2.9362">
        <ele>1354.15</ele>
        <time>2020-09-02T10:21:17Z</time>
      </trkpt>
      <trkpt lat="44.66071" lon="2.93621">
        <ele>1354.15</ele>
        <time>2020-09-02T10:21:32Z</time>
      </trkpt>
      <trkpt lat="44.66072" lon="2.93622">
        <ele>1353.67</ele>
        <time>2020-09-02T10:21:47Z</time>
      </trkpt>
      <trkpt lat="44.66072" lon="2.93616">
        <ele>1353.19</ele>
        <time>2020-09-02T10:22:02Z</time>
      </trkpt>
      <trkpt lat="44.66071" lon="2.93618">
        <ele>1353.19</ele>
        <time>2020-09-02T10:22:17Z</time>
      </trkpt>
      <trkpt lat="44.6607" lon="2.93621">
        <ele>1352.71</ele>
        <time>2020-09-02T10:22:32Z</time>
      </trkpt>
      <trkpt lat="44.66072" lon="2.93621">
        <ele>1353.19</ele>
        <time>2020-09-02T10:22:47Z</time>
      </trkpt>
      <trkpt lat="44.66068" lon="2.9362">
        <ele>1352.71</ele>
        <time>2020-09-02T10:23:02Z</time>
      </trkpt>
      <trkpt lat="44.66065" lon="2.9362">
        <ele>1352.23</ele>
        <time>2020-09-02T10:23:17Z</time>
      </trkpt>
      <trkpt lat="44.66068" lon="2.93623">
        <ele>1352.23</ele>
        <time>2020-09-02T10:23:32Z</time>
      </trkpt>
      <trkpt lat="44.6607" lon="2.93621">
        <ele>1351.75</ele>
        <time>2020-09-02T10:23:47Z</time>
      </trkpt>
      <trkpt lat="44.66069" lon="2.9362">
        <ele>1351.75</ele>
        <time>2020-09-02T10:24:02Z</time>
      </trkpt>
      <trkpt lat="44.66067" lon="2.9362">
        <ele>1351.75</ele>
        <time>2020-09-02T10:24:17Z</time>
      </trkpt>
      <trkpt lat="44.66068" lon="2.93621">
        <ele>1351.27</ele>
        <time>2020-09-02T10:24:32Z</time>
      </trkpt>
      <trkpt lat="44.66065" lon="2.93622">
        <ele>1351.75</ele>
        <time>2020-09-02T10:24:47Z</time>
      </trkpt>
      <trkpt lat="44.66065" lon="2.93621">
        <ele>1351.75</ele>
        <time>2020-09-02T10:25:02Z</time>
      </trkpt>
      <trkpt lat="44.66065" lon="2.93621">
        <ele>1351.75</ele>
        <time>2020-09-02T10:25:17Z</time>
      </trkpt>
      <trkpt lat="44.66064" lon="2.93624">
        <ele>1351.27</ele>
        <time>2020-09-02T10:25:32Z</time>
      </trkpt>
      <trkpt lat="44.66065" lon="2.93623">
        <ele>1351.27</ele>
        <time>2020-09-02T10:25:47Z</time>
      </trkpt>
      <trkpt lat="44.6607" lon="2.93625">
        <ele>1350.79</ele>
        <time>2020-09-02T10:26:02Z</time>
      </trkpt>
      <trkpt lat="44.6607" lon="2.93624">
        <ele>1350.79</ele>
        <time>2020-09-02T10:26:17Z</time>
      </trkpt>
      <trkpt lat="44.66068" lon="2.9362">
        <ele>1351.27</ele>
        <time>2020-09-02T10:26:32Z</time>
      </trkpt>
      <trkpt lat="44.66063" lon="2.93619">
        <ele>1350.31</ele>
        <time>2020-09-02T10:26:47Z</time>
      </trkpt>
      <trkpt lat="44.66064" lon="2.93619">
        <ele>1351.27</ele>
        <time>2020-09-02T10:27:02Z</time>
      </trkpt>
      <trkpt lat="44.66065" lon="2.93619">
        <ele>1350.31</ele>
        <time>2020-09-02T10:27:17Z</time>
      </trkpt>
      <trkpt lat="44.66065" lon="2.93621">
        <ele>1350.31</ele>
        <time>2020-09-02T10:27:32Z</time>
      </trkpt>
      <trkpt lat="44.66067" lon="2.93618">
        <ele>1350.79</ele>
        <time>2020-09-02T10:27:47Z</time>
      </trkpt>
      <trkpt lat="44.6607" lon="2.93615">
        <ele>1350.31</ele>
        <time>2020-09-02T10:28:02Z</time>
      </trkpt>
      <trkpt lat="44.66071" lon="2.93615">
        <ele>1350.31</ele>
        <time>2020-09-02T10:28:17Z</time>
      </trkpt>
      <trkpt lat="44.66072" lon="2.93616">
        <ele>1349.83</ele>
        <time>2020-09-02T10:28:32Z</time>
      </trkpt>
      <trkpt lat="44.66072" lon="2.93614">
        <ele>1349.83</ele>
        <time>2020-09-02T10:28:47Z</time>
      </trkpt>
      <trkpt lat="44.66072" lon="2.93613">
        <ele>1348.87</ele>
        <time>2020-09-02T10:29:02Z</time>
      </trkpt>
      <trkpt lat="44.66069" lon="2.93613">
        <ele>1349.35</ele>
        <time>2020-09-02T10:29:17Z</time>
      </trkpt>
      <trkpt lat="44.66068" lon="2.93617">
        <ele>1349.35</ele>
        <time>2020-09-02T10:29:32Z</time>
      </trkpt>
      <trkpt lat="44.66068" lon="2.93616">
        <ele>1349.35</ele>
        <time>2020-09-02T10:29:47Z</time>
      </trkpt>
      <trkpt lat="44.66066" lon="2.93615">
        <ele>1348.87</ele>
        <time>2020-09-02T10:30:02Z</time>
      </trkpt>
      <trkpt lat="44.66065" lon="2.93614">
        <ele>1349.35</ele>
        <time>2020-09-02T10:30:17Z</time>
      </trkpt>
      <trkpt lat="44.66067" lon="2.9362">
        <ele>1348.87</ele>
        <time>2020-09-02T10:30:32Z</time>
      </trkpt>
      <trkpt lat="44.66067" lon="2.9362">
        <ele>1348.87</ele>
        <time>2020-09-02T10:30:47Z</time>
      </trkpt>
      <trkpt lat="44.6607" lon="2.93618">
        <ele>1348.39</ele>
        <time>2020-09-02T10:31:02Z</time>
      </trkpt>
      <trkpt lat="44.66072" lon="2.93615">
        <ele>1347.43</ele>
        <time>2020-09-02T10:31:17Z</time>
      </trkpt>
      <trkpt lat="44.66071" lon="2.93616">
        <ele>1347.43</ele>
        <time>2020-09-02T10:31:32Z</time>
      </trkpt>
      <trkpt lat="44.66071" lon="2.93617">
        <ele>1347.43</ele>
        <time>2020-09-02T10:31:47Z</time>
      </trkpt>
      <trkpt lat="44.6607" lon="2.93617">
        <ele>1347.43</ele>
        <time>2020-09-02T10:32:02Z</time>
      </trkpt>
      <trkpt lat="44.66069" lon="2.93616">
        <ele>1347.43</ele>
        <time>2020-09-02T10:32:17Z</time>
      </trkpt>
      <trkpt lat="44.6607" lon="2.93616">
        <ele>1346.46</ele>
        <time>2020-09-02T10:32:32Z</time>
      </trkpt>
      <trkpt lat="44.66071" lon="2.93616">
        <ele>1346.46</ele>
        <time>2020-09-02T10:32:47Z</time>
      </trkpt>
      <trkpt lat="44.66072" lon="2.93614">
        <ele>1346.46</ele>
        <time>2020-09-02T10:33:02Z</time>
      </trkpt>
      <trkpt lat="44.66072" lon="2.93617">
        <ele>1346.46</ele>
        <time>2020-09-02T10:33:17Z</time>
      </trkpt>
      <trkpt lat="44.66071" lon="2.93616">
        <ele>1346.46</ele>
        <time>2020-09-02T10:33:32Z</time>
      </trkpt>
      <trkpt lat="44.66072" lon="2.93617">
        <ele>1346.46</ele>
        <time>2020-09-02T10:33:47Z</time>
      </trkpt>
      <trkpt lat="44.66071" lon="2.93617">
        <ele>1346.46</ele>
        <time>2020-09-02T10:34:02Z</time>
      </trkpt>
      <trkpt lat="44.66073" lon="2.9362">
        <ele>1346.94</ele>
        <time>2020-09-02T10:34:17Z</time>
      </trkpt>
      <trkpt lat="44.66075" lon="2.9362">
        <ele>1345.5</ele>
        <time>2020-09-02T10:34:32Z</time>
      </trkpt>
      <trkpt lat="44.66073" lon="2.93621">
        <ele>1345.98</ele>
        <time>2020-09-02T10:34:47Z</time>
      </trkpt>
      <trkpt lat="44.66071" lon="2.9362">
        <ele>1345.98</ele>
        <time>2020-09-02T10:35:02Z</time>
      </trkpt>
      <trkpt lat="44.6607" lon="2.93622">
        <ele>1345.5</ele>
        <time>2020-09-02T10:35:17Z</time>
      </trkpt>
      <trkpt lat="44.6607" lon="2.93621">
        <ele>1345.5</ele>
        <time>2020-09-02T10:35:32Z</time>
      </trkpt>
      <trkpt lat="44.66071" lon="2.93619">
        <ele>1345.5</ele>
        <time>2020-09-02T10:35:47Z</time>
      </trkpt>
      <trkpt lat="44.66069" lon="2.93619">
        <ele>1345.5</ele>
        <time>2020-09-02T10:36:02Z</time>
      </trkpt>
      <trkpt lat="44.66068" lon="2.93619">
        <ele>1345.02</ele>
        <time>2020-09-02T10:36:17Z</time>
      </trkpt>
      <trkpt lat="44.66068" lon="2.93619">
        <ele>1345.02</ele>
        <time>2020-09-02T10:36:32Z</time>
      </trkpt>
      <trkpt lat="44.66066" lon="2.9362">
        <ele>1345.02</ele>
        <time>2020-09-02T10:36:47Z</time>
      </trkpt>
      <trkpt lat="44.66067" lon="2.93619">
        <ele>1345.02</ele>
        <time>2020-09-02T10:37:02Z</time>
      </trkpt>
      <trkpt lat="44.6607" lon="2.93618">
        <ele>1345.5</ele>
        <time>2020-09-02T10:37:17Z</time>
      </trkpt>
      <trkpt lat="44.6607" lon="2.93618">
        <ele>1344.54</ele>
        <time>2020-09-02T10:37:32Z</time>
      </trkpt>
      <trkpt lat="44.66074" lon="2.9362">
        <ele>1345.02</ele>
        <time>2020-09-02T10:37:47Z</time>
      </trkpt>
      <trkpt lat="44.66073" lon="2.93619">
        <ele>1344.54</ele>
        <time>2020-09-02T10:38:02Z</time>
      </trkpt>
      <trkpt lat="44.66072" lon="2.93616">
        <ele>1345.02</ele>
        <time>2020-09-02T10:38:17Z</time>
      </trkpt>
      <trkpt lat="44.6607" lon="2.93616">
        <ele>1345.02</ele>
        <time>2020-09-02T10:38:32Z</time>
      </trkpt>
      <trkpt lat="44.66069" lon="2.93616">
        <ele>1345.02</ele>
        <time>2020-09-02T10:38:47Z</time>
      </trkpt>
      <trkpt lat="44.66069" lon="2.93619">
        <ele>1344.54</ele>
        <time>2020-09-02T10:39:02Z</time>
      </trkpt>
      <trkpt lat="44.66067" lon="2.93618">
        <ele>1344.54</ele>
        <time>2020-09-02T10:39:17Z</time>
      </trkpt>
      <trkpt lat="44.66065" lon="2.9362">
        <ele>1344.54</ele>
        <time>2020-09-02T10:39:32Z</time>
      </trkpt>
      <trkpt lat="44.66067" lon="2.93619">
        <ele>1344.06</ele>
        <time>2020-09-02T10:39:47Z</time>
      </trkpt>
      <trkpt lat="44.66067" lon="2.93623">
        <ele>1344.54</ele>
        <time>2020-09-02T10:40:02Z</time>
      </trkpt>
      <trkpt lat="44.66069" lon="2.93623">
        <ele>1344.06</ele>
        <time>2020-09-02T10:40:17Z</time>
      </trkpt>
      <trkpt lat="44.66069" lon="2.93624">
        <ele>1344.06</ele>
        <time>2020-09-02T10:40:32Z</time>
      </trkpt>
      <trkpt lat="44.66071" lon="2.93626">
        <ele>1343.58</ele>
        <time>2020-09-02T10:40:47Z</time>
      </trkpt>
      <trkpt lat="44.66072" lon="2.93626">
        <ele>1344.54</ele>
        <time>2020-09-02T10:41:02Z</time>
      </trkpt>
      <trkpt lat="44.66069" lon="2.93623">
        <ele>1343.58</ele>
        <time>2020-09-02T10:41:17Z</time>
      </trkpt>
      <trkpt lat="44.66069" lon="2.93622">
        <ele>1344.06</ele>
        <time>2020-09-02T10:41:32Z</time>
      </trkpt>
      <trkpt lat="44.66073" lon="2.93624">
        <ele>1343.58</ele>
        <time>2020-09-02T10:41:47Z</time>
      </trkpt>
      <trkpt lat="44.66072" lon="2.93625">
        <ele>1343.58</ele>
        <time>2020-09-02T10:42:02Z</time>
      </trkpt>
      <trkpt lat="44.66073" lon="2.93624">
        <ele>1343.58</ele>
        <time>2020-09-02T10:42:17Z</time>
      </trkpt>
      <trkpt lat="44.66073" lon="2.93619">
        <ele>1344.06</ele>
        <time>2020-09-02T10:42:32Z</time>
      </trkpt>
      <trkpt lat="44.66073" lon="2.93621">
        <ele>1343.58</ele>
        <time>2020-09-02T10:42:47Z</time>
      </trkpt>
      <trkpt lat="44.66072" lon="2.93623">
        <ele>1343.58</ele>
        <time>2020-09-02T10:43:02Z</time>
      </trkpt>
      <trkpt lat="44.66072" lon="2.93624">
        <ele>1343.1</ele>
        <time>2020-09-02T10:43:17Z</time>
      </trkpt>
      <trkpt lat="44.66068" lon="2.9362">
        <ele>1343.58</ele>
        <time>2020-09-02T10:43:32Z</time>
      </trkpt>
      <trkpt lat="44.66069" lon="2.9362">
        <ele>1343.58</ele>
        <time>2020-09-02T10:43:47Z</time>
      </trkpt>
      <trkpt lat="44.66066" lon="2.93621">
        <ele>1343.1</ele>
        <time>2020-09-02T10:44:02Z</time>
      </trkpt>
      <trkpt lat="44.66064" lon="2.93617">
        <ele>1343.58</ele>
        <time>2020-09-02T10:44:17Z</time>
      </trkpt>
      <trkpt lat="44.66065" lon="2.93615">
        <ele>1343.58</ele>
        <time>2020-09-02T10:44:32Z</time>
      </trkpt>
      <trkpt lat="44.66068" lon="2.93615">
        <ele>1343.1</ele>
        <time>2020-09-02T10:44:47Z</time>
      </trkpt>
      <trkpt lat="44.66071" lon="2.93617">
        <ele>1342.62</ele>
        <time>2020-09-02T10:45:02Z</time>
      </trkpt>
      <trkpt lat="44.6607" lon="2.93618">
        <ele>1342.62</ele>
        <time>2020-09-02T10:45:17Z</time>
      </trkpt>
      <trkpt lat="44.6607" lon="2.93619">
        <ele>1342.62</ele>
        <time>2020-09-02T10:45:32Z</time>
      </trkpt>
      <trkpt lat="44.66071" lon="2.9362">
        <ele>1342.62</ele>
        <time>2020-09-02T10:45:47Z</time>
      </trkpt>
      <trkpt lat="44.66071" lon="2.93618">
        <ele>1342.62</ele>
        <time>2020-09-02T10:46:02Z</time>
      </trkpt>
      <trkpt lat="44.66071" lon="2.93617">
        <ele>1342.14</ele>
        <time>2020-09-02T10:46:17Z</time>
      </trkpt>
      <trkpt lat="44.66068" lon="2.93618">
        <ele>1342.62</ele>
        <time>2020-09-02T10:46:32Z</time>
      </trkpt>
      <trkpt lat="44.66076" lon="2.93615">
        <ele>1342.62</ele>
        <time>2020-09-02T10:46:47Z</time>
      </trkpt>
      <trkpt lat="44.66077" lon="2.93613">
        <ele>1342.14</ele>
        <time>2020-09-02T10:47:02Z</time>
      </trkpt>
      <trkpt lat="44.66075" lon="2.93611">
        <ele>1342.14</ele>
        <time>2020-09-02T10:47:17Z</time>
      </trkpt>
      <trkpt lat="44.66072" lon="2.93612">
        <ele>1342.14</ele>
        <time>2020-09-02T10:47:32Z</time>
      </trkpt>
      <trkpt lat="44.66073" lon="2.93614">
        <ele>1342.14</ele>
        <time>2020-09-02T10:47:47Z</time>
      </trkpt>
      <trkpt lat="44.66075" lon="2.93611">
        <ele>1342.14</ele>
        <time>2020-09-02T10:48:02Z</time>
      </trkpt>
      <trkpt lat="44.66078" lon="2.93609">
        <ele>1341.66</ele>
        <time>2020-09-02T10:48:17Z</time>
      </trkpt>
      <trkpt lat="44.66079" lon="2.93608">
        <ele>1341.66</ele>
        <time>2020-09-02T10:48:32Z</time>
      </trkpt>
      <trkpt lat="44.66077" lon="2.93611">
        <ele>1341.66</ele>
        <time>2020-09-02T10:48:47Z</time>
      </trkpt>
      <trkpt lat="44.66076" lon="2.93617">
        <ele>1341.66</ele>
        <time>2020-09-02T10:49:02Z</time>
      </trkpt>
      <trkpt lat="44.66075" lon="2.9362">
        <ele>1341.66</ele>
        <time>2020-09-02T10:49:17Z</time>
      </trkpt>
      <trkpt lat="44.66072" lon="2.93621">
        <ele>1341.66</ele>
        <time>2020-09-02T10:49:32Z</time>
      </trkpt>
      <trkpt lat="44.66072" lon="2.93621">
        <ele>1341.66</ele>
        <time>2020-09-02T10:49:47Z</time>
      </trkpt>
      <trkpt lat="44.66069" lon="2.93619">
        <ele>1341.66</ele>
        <time>2020-09-02T10:50:02Z</time>
      </trkpt>
      <trkpt lat="44.6607" lon="2.9362">
        <ele>1342.14</ele>
        <time>2020-09-02T10:50:17Z</time>
      </trkpt>
      <trkpt lat="44.66067" lon="2.93615">
        <ele>1340.7</ele>
        <time>2020-09-02T10:50:32Z</time>
      </trkpt>
      <trkpt lat="44.66064" lon="2.93611">
        <ele>1340.22</ele>
        <time>2020-09-02T10:50:47Z</time>
      </trkpt>
      <trkpt lat="44.66058" lon="2.93604">
        <ele>1340.22</ele>
        <time>2020-09-02T10:51:02Z</time>
      </trkpt>
      <trkpt lat="44.66058" lon="2.93606">
        <ele>1340.7</ele>
        <time>2020-09-02T10:51:17Z</time>
      </trkpt>
      <trkpt lat="44.66057" lon="2.93604">
        <ele>1340.22</ele>
        <time>2020-09-02T10:51:32Z</time>
      </trkpt>
      <trkpt lat="44.66055" lon="2.93606">
        <ele>1339.73</ele>
        <time>2020-09-02T10:51:47Z</time>
      </trkpt>
      <trkpt lat="44.66052" lon="2.93596">
        <ele>1338.77</ele>
        <time>2020-09-02T10:52:02Z</time>
      </trkpt>
      <trkpt lat="44.66045" lon="2.93579">
        <ele>1338.77</ele>
        <time>2020-09-02T10:52:17Z</time>
      </trkpt>
      <trkpt lat="44.66039" lon="2.93561">
        <ele>1339.25</ele>
        <time>2020-09-02T10:52:32Z</time>
      </trkpt>
      <trkpt lat="44.66033" lon="2.93539">
        <ele>1340.7</ele>
        <time>2020-09-02T10:52:47Z</time>
      </trkpt>
      <trkpt lat="44.66026" lon="2.93518">
        <ele>1341.18</ele>
        <time>2020-09-02T10:53:02Z</time>
      </trkpt>
      <trkpt lat="44.66019" lon="2.93499">
        <ele>1342.14</ele>
        <time>2020-09-02T10:53:17Z</time>
      </trkpt>
      <trkpt lat="44.66013" lon="2.9348">
        <ele>1342.62</ele>
        <time>2020-09-02T10:53:32Z</time>
      </trkpt>
      <trkpt lat="44.66011" lon="2.93476">
        <ele>1342.62</ele>
        <time>2020-09-02T10:53:47Z</time>
      </trkpt>
      <trkpt lat="44.6601" lon="2.93477">
        <ele>1342.14</ele>
        <time>2020-09-02T10:54:02Z</time>
      </trkpt>
      <trkpt lat="44.66006" lon="2.93452">
        <ele>1341.66</ele>
        <time>2020-09-02T10:54:17Z</time>
      </trkpt>
      <trkpt lat="44.66002" lon="2.93425">
        <ele>1340.22</ele>
        <time>2020-09-02T10:54:32Z</time>
      </trkpt>
      <trkpt lat="44.66006" lon="2.934">
        <ele>1341.18</ele>
        <time>2020-09-02T10:54:47Z</time>
      </trkpt>
      <trkpt lat="44.66009" lon="2.93377">
        <ele>1341.18</ele>
        <time>2020-09-02T10:55:02Z</time>
      </trkpt>
      <trkpt lat="44.66004" lon="2.93363">
        <ele>1340.22</ele>
        <time>2020-09-02T10:55:17Z</time>
      </trkpt>
      <trkpt lat="44.66002" lon="2.9336">
        <ele>1339.25</ele>
        <time>2020-09-02T10:55:32Z</time>
      </trkpt>
      <trkpt lat="44.65998" lon="2.93335">
        <ele>1338.77</ele>
        <time>2020-09-02T10:55:47Z</time>
      </trkpt>
      <trkpt lat="44.65989" lon="2.93326">
        <ele>1340.22</ele>
        <time>2020-09-02T10:56:02Z</time>
      </trkpt>
      <trkpt lat="44.65981" lon="2.93305">
        <ele>1342.62</ele>
        <time>2020-09-02T10:56:17Z</time>
      </trkpt>
      <trkpt lat="44.65982" lon="2.93284">
        <ele>1343.1</ele>
        <time>2020-09-02T10:56:32Z</time>
      </trkpt>
      <trkpt lat="44.6598" lon="2.93283">
        <ele>1343.58</ele>
        <time>2020-09-02T10:56:47Z</time>
      </trkpt>
      <trkpt lat="44.65986" lon="2.93269">
        <ele>1343.58</ele>
        <time>2020-09-02T10:57:02Z</time>
      </trkpt>
      <trkpt lat="44.65992" lon="2.93241">
        <ele>1344.54</ele>
        <time>2020-09-02T10:57:17Z</time>
      </trkpt>
      <trkpt lat="44.65993" lon="2.93215">
        <ele>1345.98</ele>
        <time>2020-09-02T10:57:32Z</time>
      </trkpt>
      <trkpt lat="44.65994" lon="2.93189">
        <ele>1346.94</ele>
        <time>2020-09-02T10:57:47Z</time>
      </trkpt>
      <trkpt lat="44.65991" lon="2.93164">
        <ele>1347.43</ele>
        <time>2020-09-02T10:58:02Z</time>
      </trkpt>
      <trkpt lat="44.65986" lon="2.9314">
        <ele>1347.43</ele>
        <time>2020-09-02T10:58:17Z</time>
      </trkpt>
      <trkpt lat="44.6598" lon="2.93118">
        <ele>1348.39</ele>
        <time>2020-09-02T10:58:32Z</time>
      </trkpt>
      <trkpt lat="44.65969" lon="2.93102">
        <ele>1349.83</ele>
        <time>2020-09-02T10:58:47Z</time>
      </trkpt>
      <trkpt lat="44.65966" lon="2.93101">
        <ele>1349.83</ele>
        <time>2020-09-02T10:59:02Z</time>
      </trkpt>
      <trkpt lat="44.65952" lon="2.93102">
        <ele>1348.87</ele>
        <time>2020-09-02T10:59:17Z</time>
      </trkpt>
      <trkpt lat="44.65931" lon="2.93098">
        <ele>1349.35</ele>
        <time>2020-09-02T10:59:32Z</time>
      </trkpt>
      <trkpt lat="44.65913" lon="2.93094">
        <ele>1349.83</ele>
        <time>2020-09-02T10:59:47Z</time>
      </trkpt>
      <trkpt lat="44.65897" lon="2.9309">
        <ele>1349.83</ele>
        <time>2020-09-02T11:00:02Z</time>
      </trkpt>
      <trkpt lat="44.65882" lon="2.93081">
        <ele>1350.31</ele>
        <time>2020-09-02T11:00:17Z</time>
      </trkpt>
      <trkpt lat="44.65868" lon="2.93072">
        <ele>1349.35</ele>
        <time>2020-09-02T11:00:32Z</time>
      </trkpt>
      <trkpt lat="44.6585" lon="2.93063">
        <ele>1349.35</ele>
        <time>2020-09-02T11:00:47Z</time>
      </trkpt>
      <trkpt lat="44.65836" lon="2.93052">
        <ele>1350.31</ele>
        <time>2020-09-02T11:01:02Z</time>
      </trkpt>
      <trkpt lat="44.65826" lon="2.9304">
        <ele>1351.27</ele>
        <time>2020-09-02T11:01:17Z</time>
      </trkpt>
      <trkpt lat="44.65812" lon="2.93027">
        <ele>1351.27</ele>
        <time>2020-09-02T11:01:32Z</time>
      </trkpt>
      <trkpt lat="44.65789" lon="2.93013">
        <ele>1351.27</ele>
        <time>2020-09-02T11:01:47Z</time>
      </trkpt>
      <trkpt lat="44.65771" lon="2.93005">
        <ele>1352.23</ele>
        <time>2020-09-02T11:02:02Z</time>
      </trkpt>
      <trkpt lat="44.65756" lon="2.92991">
        <ele>1351.75</ele>
        <time>2020-09-02T11:02:17Z</time>
      </trkpt>
      <trkpt lat="44.65739" lon="2.92979">
        <ele>1353.19</ele>
        <time>2020-09-02T11:02:32Z</time>
      </trkpt>
      <trkpt lat="44.65723" lon="2.92969">
        <ele>1353.67</ele>
        <time>2020-09-02T11:02:47Z</time>
      </trkpt>
      <trkpt lat="44.65705" lon="2.92956">
        <ele>1356.08</ele>
        <time>2020-09-02T11:03:02Z</time>
      </trkpt>
      <trkpt lat="44.6569" lon="2.92945">
        <ele>1357.04</ele>
        <time>2020-09-02T11:03:17Z</time>
      </trkpt>
      <trkpt lat="44.65672" lon="2.92931">
        <ele>1358</ele>
        <time>2020-09-02T11:03:32Z</time>
      </trkpt>
      <trkpt lat="44.65661" lon="2.92916">
        <ele>1358</ele>
        <time>2020-09-02T11:03:47Z</time>
      </trkpt>
      <trkpt lat="44.65657" lon="2.92905">
        <ele>1359.44</ele>
        <time>2020-09-02T11:04:02Z</time>
      </trkpt>
      <trkpt lat="44.65644" lon="2.92895">
        <ele>1359.92</ele>
        <time>2020-09-02T11:04:17Z</time>
      </trkpt>
      <trkpt lat="44.65621" lon="2.92897">
        <ele>1359.44</ele>
        <time>2020-09-02T11:04:32Z</time>
      </trkpt>
      <trkpt lat="44.65605" lon="2.92904">
        <ele>1359.92</ele>
        <time>2020-09-02T11:04:47Z</time>
      </trkpt>
      <trkpt lat="44.65586" lon="2.9291">
        <ele>1359.44</ele>
        <time>2020-09-02T11:05:02Z</time>
      </trkpt>
      <trkpt lat="44.65568" lon="2.92917">
        <ele>1358.48</ele>
        <time>2020-09-02T11:05:17Z</time>
      </trkpt>
      <trkpt lat="44.65552" lon="2.92925">
        <ele>1359.92</ele>
        <time>2020-09-02T11:05:32Z</time>
      </trkpt>
      <trkpt lat="44.65536" lon="2.92933">
        <ele>1359.44</ele>
        <time>2020-09-02T11:05:47Z</time>
      </trkpt>
      <trkpt lat="44.65516" lon="2.92937">
        <ele>1359.92</ele>
        <time>2020-09-02T11:06:02Z</time>
      </trkpt>
      <trkpt lat="44.65502" lon="2.9294">
        <ele>1359.92</ele>
        <time>2020-09-02T11:06:17Z</time>
      </trkpt>
      <trkpt lat="44.65487" lon="2.92942">
        <ele>1359.92</ele>
        <time>2020-09-02T11:06:32Z</time>
      </trkpt>
      <trkpt lat="44.65469" lon="2.92937">
        <ele>1359.92</ele>
        <time>2020-09-02T11:06:47Z</time>
      </trkpt>
      <trkpt lat="44.65456" lon="2.92924">
        <ele>1360.4</ele>
        <time>2020-09-02T11:07:02Z</time>
      </trkpt>
      <trkpt lat="44.65444" lon="2.92906">
        <ele>1359.92</ele>
        <time>2020-09-02T11:07:17Z</time>
      </trkpt>
      <trkpt lat="44.65439" lon="2.92881">
        <ele>1359.44</ele>
        <time>2020-09-02T11:07:32Z</time>
      </trkpt>
      <trkpt lat="44.6544" lon="2.92856">
        <ele>1358</ele>
        <time>2020-09-02T11:07:47Z</time>
      </trkpt>
      <trkpt lat="44.65442" lon="2.92829">
        <ele>1357.04</ele>
        <time>2020-09-02T11:08:02Z</time>
      </trkpt>
      <trkpt lat="44.65442" lon="2.92803">
        <ele>1357.04</ele>
        <time>2020-09-02T11:08:17Z</time>
      </trkpt>
      <trkpt lat="44.65443" lon="2.92779">
        <ele>1357.52</ele>
        <time>2020-09-02T11:08:32Z</time>
      </trkpt>
      <trkpt lat="44.65443" lon="2.92756">
        <ele>1358.48</ele>
        <time>2020-09-02T11:08:47Z</time>
      </trkpt>
      <trkpt lat="44.65452" lon="2.92737">
        <ele>1358.96</ele>
        <time>2020-09-02T11:09:02Z</time>
      </trkpt>
      <trkpt lat="44.65458" lon="2.9272">
        <ele>1359.44</ele>
        <time>2020-09-02T11:09:17Z</time>
      </trkpt>
      <trkpt lat="44.65458" lon="2.92719">
        <ele>1358.48</ele>
        <time>2020-09-02T11:09:32Z</time>
      </trkpt>
      <trkpt lat="44.6546" lon="2.9271">
        <ele>1358.48</ele>
        <time>2020-09-02T11:09:47Z</time>
      </trkpt>
      <trkpt lat="44.65471" lon="2.9269">
        <ele>1357.52</ele>
        <time>2020-09-02T11:10:02Z</time>
      </trkpt>
      <trkpt lat="44.65482" lon="2.92671">
        <ele>1356.56</ele>
        <time>2020-09-02T11:10:17Z</time>
      </trkpt>
      <trkpt lat="44.65488" lon="2.92656">
        <ele>1355.12</ele>
        <time>2020-09-02T11:10:32Z</time>
      </trkpt>
      <trkpt lat="44.65495" lon="2.92638">
        <ele>1353.19</ele>
        <time>2020-09-02T11:10:47Z</time>
      </trkpt>
      <trkpt lat="44.65496" lon="2.92636">
        <ele>1353.19</ele>
        <time>2020-09-02T11:11:02Z</time>
      </trkpt>
      <trkpt lat="44.65498" lon="2.92629">
        <ele>1353.19</ele>
        <time>2020-09-02T11:11:17Z</time>
      </trkpt>
      <trkpt lat="44.65506" lon="2.92612">
        <ele>1351.27</ele>
        <time>2020-09-02T11:11:32Z</time>
      </trkpt>
      <trkpt lat="44.65516" lon="2.92588">
        <ele>1350.31</ele>
        <time>2020-09-02T11:11:47Z</time>
      </trkpt>
      <trkpt lat="44.65526" lon="2.92565">
        <ele>1348.39</ele>
        <time>2020-09-02T11:12:02Z</time>
      </trkpt>
      <trkpt lat="44.65535" lon="2.92542">
        <ele>1347.43</ele>
        <time>2020-09-02T11:12:17Z</time>
      </trkpt>
      <trkpt lat="44.65545" lon="2.92518">
        <ele>1345.5</ele>
        <time>2020-09-02T11:12:32Z</time>
      </trkpt>
      <trkpt lat="44.65556" lon="2.92496">
        <ele>1344.54</ele>
        <time>2020-09-02T11:12:47Z</time>
      </trkpt>
      <trkpt lat="44.65565" lon="2.92474">
        <ele>1343.1</ele>
        <time>2020-09-02T11:13:02Z</time>
      </trkpt>
      <trkpt lat="44.65571" lon="2.92464">
        <ele>1343.1</ele>
        <time>2020-09-02T11:13:17Z</time>
      </trkpt>
      <trkpt lat="44.65572" lon="2.92458">
        <ele>1341.66</ele>
        <time>2020-09-02T11:13:32Z</time>
      </trkpt>
      <trkpt lat="44.65583" lon="2.92435">
        <ele>1342.62</ele>
        <time>2020-09-02T11:13:47Z</time>
      </trkpt>
      <trkpt lat="44.65591" lon="2.92414">
        <ele>1343.1</ele>
        <time>2020-09-02T11:14:02Z</time>
      </trkpt>
      <trkpt lat="44.656" lon="2.92393">
        <ele>1342.62</ele>
        <time>2020-09-02T11:14:17Z</time>
      </trkpt>
      <trkpt lat="44.65609" lon="2.92373">
        <ele>1340.7</ele>
        <time>2020-09-02T11:14:32Z</time>
      </trkpt>
      <trkpt lat="44.6562" lon="2.92353">
        <ele>1339.73</ele>
        <time>2020-09-02T11:14:47Z</time>
      </trkpt>
      <trkpt lat="44.65632" lon="2.92333">
        <ele>1340.22</ele>
        <time>2020-09-02T11:15:02Z</time>
      </trkpt>
      <trkpt lat="44.65642" lon="2.92316">
        <ele>1340.22</ele>
        <time>2020-09-02T11:15:17Z</time>
      </trkpt>
      <trkpt lat="44.65656" lon="2.92303">
        <ele>1339.73</ele>
        <time>2020-09-02T11:15:32Z</time>
      </trkpt>
      <trkpt lat="44.6566" lon="2.92305">
        <ele>1339.73</ele>
        <time>2020-09-02T11:15:47Z</time>
      </trkpt>
      <trkpt lat="44.6566" lon="2.923">
        <ele>1339.73</ele>
        <time>2020-09-02T11:16:02Z</time>
      </trkpt>
      <trkpt lat="44.65664" lon="2.92303">
        <ele>1339.73</ele>
        <time>2020-09-02T11:16:17Z</time>
      </trkpt>
      <trkpt lat="44.65679" lon="2.92297">
        <ele>1339.25</ele>
        <time>2020-09-02T11:16:32Z</time>
      </trkpt>
      <trkpt lat="44.65694" lon="2.92287">
        <ele>1338.29</ele>
        <time>2020-09-02T11:16:47Z</time>
      </trkpt>
      <trkpt lat="44.65711" lon="2.92277">
        <ele>1338.77</ele>
        <time>2020-09-02T11:17:02Z</time>
      </trkpt>
      <trkpt lat="44.65727" lon="2.92264">
        <ele>1339.25</ele>
        <time>2020-09-02T11:17:17Z</time>
      </trkpt>
      <trkpt lat="44.6574" lon="2.92248">
        <ele>1339.73</ele>
        <time>2020-09-02T11:17:32Z</time>
      </trkpt>
      <trkpt lat="44.65754" lon="2.92232">
        <ele>1338.29</ele>
        <time>2020-09-02T11:17:47Z</time>
      </trkpt>
      <trkpt lat="44.65766" lon="2.92211">
        <ele>1336.37</ele>
        <time>2020-09-02T11:18:02Z</time>
      </trkpt>
      <trkpt lat="44.65776" lon="2.9219">
        <ele>1335.89</ele>
        <time>2020-09-02T11:18:17Z</time>
      </trkpt>
      <trkpt lat="44.65788" lon="2.92169">
        <ele>1335.41</ele>
        <time>2020-09-02T11:18:32Z</time>
      </trkpt>
      <trkpt lat="44.658" lon="2.92151">
        <ele>1333.97</ele>
        <time>2020-09-02T11:18:47Z</time>
      </trkpt>
      <trkpt lat="44.65811" lon="2.92131">
        <ele>1333.97</ele>
        <time>2020-09-02T11:19:02Z</time>
      </trkpt>
      <trkpt lat="44.65823" lon="2.9211">
        <ele>1332.04</ele>
        <time>2020-09-02T11:19:17Z</time>
      </trkpt>
      <trkpt lat="44.65833" lon="2.92087">
        <ele>1331.08</ele>
        <time>2020-09-02T11:19:32Z</time>
      </trkpt>
      <trkpt lat="44.6584" lon="2.92067">
        <ele>1329.64</ele>
        <time>2020-09-02T11:19:47Z</time>
      </trkpt>
      <trkpt lat="44.65849" lon="2.92045">
        <ele>1329.16</ele>
        <time>2020-09-02T11:20:02Z</time>
      </trkpt>
      <trkpt lat="44.65858" lon="2.92029">
        <ele>1328.2</ele>
        <time>2020-09-02T11:20:17Z</time>
      </trkpt>
      <trkpt lat="44.65873" lon="2.92011">
        <ele>1328.2</ele>
        <time>2020-09-02T11:20:32Z</time>
      </trkpt>
      <trkpt lat="44.6589" lon="2.9199">
        <ele>1328.2</ele>
        <time>2020-09-02T11:20:47Z</time>
      </trkpt>
      <trkpt lat="44.65906" lon="2.91978">
        <ele>1327.24</ele>
        <time>2020-09-02T11:21:02Z</time>
      </trkpt>
      <trkpt lat="44.65922" lon="2.91965">
        <ele>1326.76</ele>
        <time>2020-09-02T11:21:17Z</time>
      </trkpt>
      <trkpt lat="44.65934" lon="2.9195">
        <ele>1324.83</ele>
        <time>2020-09-02T11:21:32Z</time>
      </trkpt>
      <trkpt lat="44.65949" lon="2.91933">
        <ele>1324.83</ele>
        <time>2020-09-02T11:21:47Z</time>
      </trkpt>
      <trkpt lat="44.65963" lon="2.91918">
        <ele>1323.87</ele>
        <time>2020-09-02T11:22:02Z</time>
      </trkpt>
      <trkpt lat="44.65969" lon="2.91908">
        <ele>1323.39</ele>
        <time>2020-09-02T11:22:17Z</time>
      </trkpt>
      <trkpt lat="44.65975" lon="2.91898">
        <ele>1322.91</ele>
        <time>2020-09-02T11:22:32Z</time>
      </trkpt>
      <trkpt lat="44.65978" lon="2.91893">
        <ele>1322.91</ele>
        <time>2020-09-02T11:22:47Z</time>
      </trkpt>
      <trkpt lat="44.65973" lon="2.91874">
        <ele>1320.99</ele>
        <time>2020-09-02T11:23:02Z</time>
      </trkpt>
      <trkpt lat="44.65963" lon="2.91851">
        <ele>1320.51</ele>
        <time>2020-09-02T11:23:17Z</time>
      </trkpt>
      <trkpt lat="44.65956" lon="2.91826">
        <ele>1320.03</ele>
        <time>2020-09-02T11:23:32Z</time>
      </trkpt>
      <trkpt lat="44.6595" lon="2.91806">
        <ele>1319.55</ele>
        <time>2020-09-02T11:23:47Z</time>
      </trkpt>
      <trkpt lat="44.65953" lon="2.9177">
        <ele>1319.07</ele>
        <time>2020-09-02T11:24:02Z</time>
      </trkpt>
      <trkpt lat="44.65965" lon="2.91766">
        <ele>1319.07</ele>
        <time>2020-09-02T11:24:17Z</time>
      </trkpt>
      <trkpt lat="44.65981" lon="2.9177">
        <ele>1319.07</ele>
        <time>2020-09-02T11:24:32Z</time>
      </trkpt>
      <trkpt lat="44.65998" lon="2.9178">
        <ele>1318.1</ele>
        <time>2020-09-02T11:24:47Z</time>
      </trkpt>
      <trkpt lat="44.6601" lon="2.91787">
        <ele>1317.62</ele>
        <time>2020-09-02T11:25:02Z</time>
      </trkpt>
      <trkpt lat="44.66023" lon="2.91801">
        <ele>1316.18</ele>
        <time>2020-09-02T11:25:17Z</time>
      </trkpt>
      <trkpt lat="44.66036" lon="2.91814">
        <ele>1316.18</ele>
        <time>2020-09-02T11:25:32Z</time>
      </trkpt>
      <trkpt lat="44.66053" lon="2.91829">
        <ele>1316.18</ele>
        <time>2020-09-02T11:25:47Z</time>
      </trkpt>
      <trkpt lat="44.66063" lon="2.91846">
        <ele>1315.7</ele>
        <time>2020-09-02T11:26:02Z</time>
      </trkpt>
      <trkpt lat="44.66072" lon="2.91854">
        <ele>1314.74</ele>
        <time>2020-09-02T11:26:17Z</time>
      </trkpt>
      <trkpt lat="44.66089" lon="2.91859">
        <ele>1313.78</ele>
        <time>2020-09-02T11:26:32Z</time>
      </trkpt>
      <trkpt lat="44.66104" lon="2.91848">
        <ele>1311.86</ele>
        <time>2020-09-02T11:26:47Z</time>
      </trkpt>
      <trkpt lat="44.66118" lon="2.91831">
        <ele>1312.34</ele>
        <time>2020-09-02T11:27:02Z</time>
      </trkpt>
      <trkpt lat="44.66137" lon="2.91832">
        <ele>1313.3</ele>
        <time>2020-09-02T11:27:17Z</time>
      </trkpt>
      <trkpt lat="44.66154" lon="2.91834">
        <ele>1313.78</ele>
        <time>2020-09-02T11:27:32Z</time>
      </trkpt>
      <trkpt lat="44.66176" lon="2.91835">
        <ele>1314.74</ele>
        <time>2020-09-02T11:27:47Z</time>
      </trkpt>
      <trkpt lat="44.66194" lon="2.91826">
        <ele>1315.7</ele>
        <time>2020-09-02T11:28:02Z</time>
      </trkpt>
      <trkpt lat="44.66199" lon="2.91814">
        <ele>1318.1</ele>
        <time>2020-09-02T11:28:17Z</time>
      </trkpt>
      <trkpt lat="44.66209" lon="2.918">
        <ele>1319.07</ele>
        <time>2020-09-02T11:28:32Z</time>
      </trkpt>
      <trkpt lat="44.66218" lon="2.91782">
        <ele>1319.55</ele>
        <time>2020-09-02T11:28:47Z</time>
      </trkpt>
      <trkpt lat="44.66229" lon="2.91766">
        <ele>1318.59</ele>
        <time>2020-09-02T11:29:02Z</time>
      </trkpt>
      <trkpt lat="44.66241" lon="2.91749">
        <ele>1319.07</ele>
        <time>2020-09-02T11:29:17Z</time>
      </trkpt>
      <trkpt lat="44.66263" lon="2.91736">
        <ele>1320.51</ele>
        <time>2020-09-02T11:29:32Z</time>
      </trkpt>
      <trkpt lat="44.6628" lon="2.91732">
        <ele>1322.43</ele>
        <time>2020-09-02T11:29:47Z</time>
      </trkpt>
      <trkpt lat="44.66294" lon="2.91729">
        <ele>1324.35</ele>
        <time>2020-09-02T11:30:02Z</time>
      </trkpt>
      <trkpt lat="44.66314" lon="2.91723">
        <ele>1324.83</ele>
        <time>2020-09-02T11:30:17Z</time>
      </trkpt>
      <trkpt lat="44.66326" lon="2.91713">
        <ele>1326.76</ele>
        <time>2020-09-02T11:30:32Z</time>
      </trkpt>
      <trkpt lat="44.66341" lon="2.9171">
        <ele>1327.24</ele>
        <time>2020-09-02T11:30:47Z</time>
      </trkpt>
      <trkpt lat="44.66355" lon="2.91702">
        <ele>1328.68</ele>
        <time>2020-09-02T11:31:02Z</time>
      </trkpt>
      <trkpt lat="44.66367" lon="2.91692">
        <ele>1329.64</ele>
        <time>2020-09-02T11:31:17Z</time>
      </trkpt>
      <trkpt lat="44.66383" lon="2.91679">
        <ele>1329.16</ele>
        <time>2020-09-02T11:31:32Z</time>
      </trkpt>
      <trkpt lat="44.66393" lon="2.91663">
        <ele>1328.68</ele>
        <time>2020-09-02T11:31:47Z</time>
      </trkpt>
      <trkpt lat="44.66399" lon="2.91646">
        <ele>1328.68</ele>
        <time>2020-09-02T11:32:02Z</time>
      </trkpt>
      <trkpt lat="44.66409" lon="2.91629">
        <ele>1329.16</ele>
        <time>2020-09-02T11:32:17Z</time>
      </trkpt>
      <trkpt lat="44.66426" lon="2.91605">
        <ele>1328.2</ele>
        <time>2020-09-02T11:32:32Z</time>
      </trkpt>
      <trkpt lat="44.66443" lon="2.91593">
        <ele>1328.68</ele>
        <time>2020-09-02T11:32:47Z</time>
      </trkpt>
      <trkpt lat="44.66455" lon="2.91579">
        <ele>1329.16</ele>
        <time>2020-09-02T11:33:02Z</time>
      </trkpt>
      <trkpt lat="44.66466" lon="2.91566">
        <ele>1330.6</ele>
        <time>2020-09-02T11:33:17Z</time>
      </trkpt>
      <trkpt lat="44.66474" lon="2.91555">
        <ele>1330.12</ele>
        <time>2020-09-02T11:33:32Z</time>
      </trkpt>
      <trkpt lat="44.66491" lon="2.91541">
        <ele>1328.68</ele>
        <time>2020-09-02T11:33:47Z</time>
      </trkpt>
      <trkpt lat="44.66504" lon="2.91524">
        <ele>1327.24</ele>
        <time>2020-09-02T11:34:02Z</time>
      </trkpt>
      <trkpt lat="44.66513" lon="2.91514">
        <ele>1326.76</ele>
        <time>2020-09-02T11:34:17Z</time>
      </trkpt>
      <trkpt lat="44.66515" lon="2.91515">
        <ele>1327.24</ele>
        <time>2020-09-02T11:34:31Z</time>
      </trkpt>
      <trkpt lat="44.66526" lon="2.91494">
        <ele>1325.8</ele>
        <time>2020-09-02T11:34:47Z</time>
      </trkpt>
      <trkpt lat="44.66541" lon="2.91474">
        <ele>1324.83</ele>
        <time>2020-09-02T11:35:02Z</time>
      </trkpt>
      <trkpt lat="44.66555" lon="2.91448">
        <ele>1326.28</ele>
        <time>2020-09-02T11:35:17Z</time>
      </trkpt>
      <trkpt lat="44.66567" lon="2.91421">
        <ele>1327.72</ele>
        <time>2020-09-02T11:35:32Z</time>
      </trkpt>
      <trkpt lat="44.66573" lon="2.914">
        <ele>1327.72</ele>
        <time>2020-09-02T11:35:47Z</time>
      </trkpt>
      <trkpt lat="44.66577" lon="2.91384">
        <ele>1328.68</ele>
        <time>2020-09-02T11:36:02Z</time>
      </trkpt>
      <trkpt lat="44.66583" lon="2.91362">
        <ele>1329.64</ele>
        <time>2020-09-02T11:36:17Z</time>
      </trkpt>
      <trkpt lat="44.66586" lon="2.91347">
        <ele>1330.6</ele>
        <time>2020-09-02T11:36:32Z</time>
      </trkpt>
      <trkpt lat="44.6659" lon="2.9133">
        <ele>1330.6</ele>
        <time>2020-09-02T11:36:47Z</time>
      </trkpt>
      <trkpt lat="44.66594" lon="2.91315">
        <ele>1331.56</ele>
        <time>2020-09-02T11:37:02Z</time>
      </trkpt>
      <trkpt lat="44.66598" lon="2.91299">
        <ele>1332.04</ele>
        <time>2020-09-02T11:37:17Z</time>
      </trkpt>
      <trkpt lat="44.66603" lon="2.91279">
        <ele>1331.56</ele>
        <time>2020-09-02T11:37:32Z</time>
      </trkpt>
      <trkpt lat="44.66615" lon="2.91245">
        <ele>1332.04</ele>
        <time>2020-09-02T11:37:47Z</time>
      </trkpt>
      <trkpt lat="44.66625" lon="2.91211">
        <ele>1333.01</ele>
        <time>2020-09-02T11:38:02Z</time>
      </trkpt>
      <trkpt lat="44.66636" lon="2.91179">
        <ele>1332.04</ele>
        <time>2020-09-02T11:38:17Z</time>
      </trkpt>
      <trkpt lat="44.66644" lon="2.9115">
        <ele>1332.04</ele>
        <time>2020-09-02T11:38:32Z</time>
      </trkpt>
      <trkpt lat="44.66651" lon="2.91122">
        <ele>1332.52</ele>
        <time>2020-09-02T11:38:47Z</time>
      </trkpt>
      <trkpt lat="44.66658" lon="2.91099">
        <ele>1333.01</ele>
        <time>2020-09-02T11:39:02Z</time>
      </trkpt>
      <trkpt lat="44.66665" lon="2.91074">
        <ele>1332.04</ele>
        <time>2020-09-02T11:39:17Z</time>
      </trkpt>
      <trkpt lat="44.66674" lon="2.91052">
        <ele>1332.52</ele>
        <time>2020-09-02T11:39:32Z</time>
      </trkpt>
      <trkpt lat="44.66676" lon="2.91032">
        <ele>1331.08</ele>
        <time>2020-09-02T11:39:47Z</time>
      </trkpt>
      <trkpt lat="44.66678" lon="2.91007">
        <ele>1329.64</ele>
        <time>2020-09-02T11:40:02Z</time>
      </trkpt>
      <trkpt lat="44.66676" lon="2.9099">
        <ele>1327.72</ele>
        <time>2020-09-02T11:40:17Z</time>
      </trkpt>
      <trkpt lat="44.66675" lon="2.90965">
        <ele>1325.8</ele>
        <time>2020-09-02T11:40:32Z</time>
      </trkpt>
      <trkpt lat="44.66674" lon="2.90941">
        <ele>1324.35</ele>
        <time>2020-09-02T11:40:47Z</time>
      </trkpt>
      <trkpt lat="44.66673" lon="2.90917">
        <ele>1321.95</ele>
        <time>2020-09-02T11:41:02Z</time>
      </trkpt>
      <trkpt lat="44.66677" lon="2.90891">
        <ele>1320.03</ele>
        <time>2020-09-02T11:41:17Z</time>
      </trkpt>
      <trkpt lat="44.66677" lon="2.90866">
        <ele>1317.14</ele>
        <time>2020-09-02T11:41:32Z</time>
      </trkpt>
      <trkpt lat="44.66677" lon="2.90842">
        <ele>1315.22</ele>
        <time>2020-09-02T11:41:47Z</time>
      </trkpt>
      <trkpt lat="44.66679" lon="2.90818">
        <ele>1313.3</ele>
        <time>2020-09-02T11:42:02Z</time>
      </trkpt>
      <trkpt lat="44.66683" lon="2.90797">
        <ele>1310.41</ele>
        <time>2020-09-02T11:42:17Z</time>
      </trkpt>
      <trkpt lat="44.66689" lon="2.90776">
        <ele>1309.93</ele>
        <time>2020-09-02T11:42:32Z</time>
      </trkpt>
      <trkpt lat="44.66686" lon="2.90769">
        <ele>1309.93</ele>
        <time>2020-09-02T11:42:47Z</time>
      </trkpt>
      <trkpt lat="44.66686" lon="2.90761">
        <ele>1309.93</ele>
        <time>2020-09-02T11:43:02Z</time>
      </trkpt>
      <trkpt lat="44.66689" lon="2.90751">
        <ele>1310.41</ele>
        <time>2020-09-02T11:43:17Z</time>
      </trkpt>
      <trkpt lat="44.66686" lon="2.90751">
        <ele>1310.41</ele>
        <time>2020-09-02T11:43:32Z</time>
      </trkpt>
      <trkpt lat="44.66692" lon="2.90749">
        <ele>1310.41</ele>
        <time>2020-09-02T11:43:47Z</time>
      </trkpt>
      <trkpt lat="44.66692" lon="2.90749">
        <ele>1309.93</ele>
        <time>2020-09-02T11:44:02Z</time>
      </trkpt>
      <trkpt lat="44.66691" lon="2.9075">
        <ele>1309.93</ele>
        <time>2020-09-02T11:44:17Z</time>
      </trkpt>
      <trkpt lat="44.6669" lon="2.9075">
        <ele>1309.93</ele>
        <time>2020-09-02T11:44:32Z</time>
      </trkpt>
      <trkpt lat="44.66689" lon="2.90748">
        <ele>1309.93</ele>
        <time>2020-09-02T11:44:47Z</time>
      </trkpt>
      <trkpt lat="44.6669" lon="2.90748">
        <ele>1309.93</ele>
        <time>2020-09-02T11:45:02Z</time>
      </trkpt>
      <trkpt lat="44.66689" lon="2.90747">
        <ele>1309.45</ele>
        <time>2020-09-02T11:45:17Z</time>
      </trkpt>
      <trkpt lat="44.66691" lon="2.90749">
        <ele>1308.49</ele>
        <time>2020-09-02T11:45:32Z</time>
      </trkpt>
      <trkpt lat="44.66694" lon="2.90746">
        <ele>1308.49</ele>
        <time>2020-09-02T11:45:47Z</time>
      </trkpt>
      <trkpt lat="44.66697" lon="2.90739">
        <ele>1306.57</ele>
        <time>2020-09-02T11:46:02Z</time>
      </trkpt>
      <trkpt lat="44.66701" lon="2.9072">
        <ele>1305.13</ele>
        <time>2020-09-02T11:46:17Z</time>
      </trkpt>
      <trkpt lat="44.66709" lon="2.907">
        <ele>1302.72</ele>
        <time>2020-09-02T11:46:32Z</time>
      </trkpt>
      <trkpt lat="44.66714" lon="2.90678">
        <ele>1299.84</ele>
        <time>2020-09-02T11:46:47Z</time>
      </trkpt>
      <trkpt lat="44.66719" lon="2.90662">
        <ele>1299.36</ele>
        <time>2020-09-02T11:47:02Z</time>
      </trkpt>
      <trkpt lat="44.66718" lon="2.90662">
        <ele>1299.36</ele>
        <time>2020-09-02T11:47:17Z</time>
      </trkpt>
      <trkpt lat="44.66719" lon="2.90665">
        <ele>1298.88</ele>
        <time>2020-09-02T11:47:32Z</time>
      </trkpt>
      <trkpt lat="44.66718" lon="2.90665">
        <ele>1298.4</ele>
        <time>2020-09-02T11:47:47Z</time>
      </trkpt>
      <trkpt lat="44.66719" lon="2.90664">
        <ele>1298.88</ele>
        <time>2020-09-02T11:48:02Z</time>
      </trkpt>
      <trkpt lat="44.66721" lon="2.90666">
        <ele>1299.36</ele>
        <time>2020-09-02T11:48:17Z</time>
      </trkpt>
      <trkpt lat="44.66719" lon="2.90665">
        <ele>1298.88</ele>
        <time>2020-09-02T11:48:32Z</time>
      </trkpt>
      <trkpt lat="44.66719" lon="2.90666">
        <ele>1297.92</ele>
        <time>2020-09-02T11:48:47Z</time>
      </trkpt>
      <trkpt lat="44.6672" lon="2.90654">
        <ele>1297.44</ele>
        <time>2020-09-02T11:49:02Z</time>
      </trkpt>
      <trkpt lat="44.66726" lon="2.90632">
        <ele>1296.48</ele>
        <time>2020-09-02T11:49:17Z</time>
      </trkpt>
      <trkpt lat="44.66736" lon="2.90606">
        <ele>1295.99</ele>
        <time>2020-09-02T11:49:32Z</time>
      </trkpt>
      <trkpt lat="44.66744" lon="2.90581">
        <ele>1295.51</ele>
        <time>2020-09-02T11:49:47Z</time>
      </trkpt>
      <trkpt lat="44.66753" lon="2.90554">
        <ele>1295.51</ele>
        <time>2020-09-02T11:50:02Z</time>
      </trkpt>
      <trkpt lat="44.66764" lon="2.90538">
        <ele>1295.51</ele>
        <time>2020-09-02T11:50:17Z</time>
      </trkpt>
      <trkpt lat="44.66779" lon="2.90518">
        <ele>1295.03</ele>
        <time>2020-09-02T11:50:32Z</time>
      </trkpt>
      <trkpt lat="44.66791" lon="2.90501">
        <ele>1293.59</ele>
        <time>2020-09-02T11:50:47Z</time>
      </trkpt>
      <trkpt lat="44.668" lon="2.90482">
        <ele>1293.11</ele>
        <time>2020-09-02T11:51:02Z</time>
      </trkpt>
      <trkpt lat="44.66813" lon="2.90461">
        <ele>1291.19</ele>
        <time>2020-09-02T11:51:17Z</time>
      </trkpt>
      <trkpt lat="44.66818" lon="2.90441">
        <ele>1290.71</ele>
        <time>2020-09-02T11:51:32Z</time>
      </trkpt>
      <trkpt lat="44.6683" lon="2.90417">
        <ele>1287.82</ele>
        <time>2020-09-02T11:51:47Z</time>
      </trkpt>
      <trkpt lat="44.66845" lon="2.90395">
        <ele>1286.38</ele>
        <time>2020-09-02T11:52:02Z</time>
      </trkpt>
      <trkpt lat="44.66856" lon="2.90373">
        <ele>1283.98</ele>
        <time>2020-09-02T11:52:17Z</time>
      </trkpt>
      <trkpt lat="44.66867" lon="2.9035">
        <ele>1281.57</ele>
        <time>2020-09-02T11:52:32Z</time>
      </trkpt>
      <trkpt lat="44.66881" lon="2.90336">
        <ele>1281.09</ele>
        <time>2020-09-02T11:52:47Z</time>
      </trkpt>
      <trkpt lat="44.66897" lon="2.90317">
        <ele>1279.65</ele>
        <time>2020-09-02T11:53:02Z</time>
      </trkpt>
      <trkpt lat="44.66912" lon="2.90299">
        <ele>1277.25</ele>
        <time>2020-09-02T11:53:17Z</time>
      </trkpt>
      <trkpt lat="44.66926" lon="2.90279">
        <ele>1276.29</ele>
        <time>2020-09-02T11:53:32Z</time>
      </trkpt>
      <trkpt lat="44.66935" lon="2.9026">
        <ele>1274.85</ele>
        <time>2020-09-02T11:53:47Z</time>
      </trkpt>
      <trkpt lat="44.66943" lon="2.90231">
        <ele>1273.4</ele>
        <time>2020-09-02T11:54:02Z</time>
      </trkpt>
      <trkpt lat="44.66949" lon="2.90214">
        <ele>1272.44</ele>
        <time>2020-09-02T11:54:17Z</time>
      </trkpt>
      <trkpt lat="44.6695" lon="2.902">
        <ele>1271</ele>
        <time>2020-09-02T11:54:32Z</time>
      </trkpt>
      <trkpt lat="44.66959" lon="2.9018">
        <ele>1267.64</ele>
        <time>2020-09-02T11:54:47Z</time>
      </trkpt>
      <trkpt lat="44.6697" lon="2.90164">
        <ele>1264.27</ele>
        <time>2020-09-02T11:55:02Z</time>
      </trkpt>
      <trkpt lat="44.66983" lon="2.9015">
        <ele>1260.91</ele>
        <time>2020-09-02T11:55:17Z</time>
      </trkpt>
      <trkpt lat="44.6699" lon="2.90132">
        <ele>1257.54</ele>
        <time>2020-09-02T11:55:32Z</time>
      </trkpt>
      <trkpt lat="44.66997" lon="2.90114">
        <ele>1254.18</ele>
        <time>2020-09-02T11:55:47Z</time>
      </trkpt>
      <trkpt lat="44.67002" lon="2.90099">
        <ele>1250.81</ele>
        <time>2020-09-02T11:56:02Z</time>
      </trkpt>
      <trkpt lat="44.67008" lon="2.90084">
        <ele>1247.93</ele>
        <time>2020-09-02T11:56:17Z</time>
      </trkpt>
      <trkpt lat="44.67017" lon="2.9007">
        <ele>1246.01</ele>
        <time>2020-09-02T11:56:32Z</time>
      </trkpt>
      <trkpt lat="44.67023" lon="2.90049">
        <ele>1243.6</ele>
        <time>2020-09-02T11:56:47Z</time>
      </trkpt>
      <trkpt lat="44.67032" lon="2.90027">
        <ele>1241.68</ele>
        <time>2020-09-02T11:57:02Z</time>
      </trkpt>
      <trkpt lat="44.67039" lon="2.9001">
        <ele>1240.72</ele>
        <time>2020-09-02T11:57:17Z</time>
      </trkpt>
      <trkpt lat="44.67041" lon="2.90013">
        <ele>1241.68</ele>
        <time>2020-09-02T11:57:32Z</time>
      </trkpt>
      <trkpt lat="44.67044" lon="2.9">
        <ele>1239.28</ele>
        <time>2020-09-02T11:57:47Z</time>
      </trkpt>
      <trkpt lat="44.67043" lon="2.90001">
        <ele>1238.8</ele>
        <time>2020-09-02T11:58:02Z</time>
      </trkpt>
      <trkpt lat="44.67051" lon="2.89983">
        <ele>1235.43</ele>
        <time>2020-09-02T11:58:17Z</time>
      </trkpt>
      <trkpt lat="44.67057" lon="2.89958">
        <ele>1233.03</ele>
        <time>2020-09-02T11:58:32Z</time>
      </trkpt>
      <trkpt lat="44.67063" lon="2.89931">
        <ele>1229.66</ele>
        <time>2020-09-02T11:58:47Z</time>
      </trkpt>
      <trkpt lat="44.67072" lon="2.89906">
        <ele>1228.22</ele>
        <time>2020-09-02T11:59:02Z</time>
      </trkpt>
      <trkpt lat="44.67082" lon="2.89881">
        <ele>1227.74</ele>
        <time>2020-09-02T11:59:17Z</time>
      </trkpt>
      <trkpt lat="44.67093" lon="2.89861">
        <ele>1228.7</ele>
        <time>2020-09-02T11:59:32Z</time>
      </trkpt>
      <trkpt lat="44.67107" lon="2.89839">
        <ele>1230.62</ele>
        <time>2020-09-02T11:59:47Z</time>
      </trkpt>
      <trkpt lat="44.67121" lon="2.89821">
        <ele>1231.59</ele>
        <time>2020-09-02T12:00:02Z</time>
      </trkpt>
      <trkpt lat="44.67134" lon="2.89804">
        <ele>1232.55</ele>
        <time>2020-09-02T12:00:17Z</time>
      </trkpt>
      <trkpt lat="44.67146" lon="2.89784">
        <ele>1232.55</ele>
        <time>2020-09-02T12:00:32Z</time>
      </trkpt>
      <trkpt lat="44.67156" lon="2.89761">
        <ele>1233.51</ele>
        <time>2020-09-02T12:00:47Z</time>
      </trkpt>
      <trkpt lat="44.67168" lon="2.8974">
        <ele>1234.95</ele>
        <time>2020-09-02T12:01:02Z</time>
      </trkpt>
      <trkpt lat="44.67181" lon="2.89722">
        <ele>1234.95</ele>
        <time>2020-09-02T12:01:17Z</time>
      </trkpt>
      <trkpt lat="44.67188" lon="2.89698">
        <ele>1234.47</ele>
        <time>2020-09-02T12:01:32Z</time>
      </trkpt>
      <trkpt lat="44.67197" lon="2.89675">
        <ele>1233.51</ele>
        <time>2020-09-02T12:01:47Z</time>
      </trkpt>
      <trkpt lat="44.67203" lon="2.89652">
        <ele>1231.59</ele>
        <time>2020-09-02T12:02:02Z</time>
      </trkpt>
      <trkpt lat="44.6721" lon="2.89628">
        <ele>1230.14</ele>
        <time>2020-09-02T12:02:17Z</time>
      </trkpt>
      <trkpt lat="44.67218" lon="2.89607">
        <ele>1227.26</ele>
        <time>2020-09-02T12:02:32Z</time>
      </trkpt>
      <trkpt lat="44.67226" lon="2.89588">
        <ele>1225.82</ele>
        <time>2020-09-02T12:02:47Z</time>
      </trkpt>
      <trkpt lat="44.67232" lon="2.89568">
        <ele>1223.9</ele>
        <time>2020-09-02T12:03:02Z</time>
      </trkpt>
      <trkpt lat="44.67234" lon="2.89547">
        <ele>1220.05</ele>
        <time>2020-09-02T12:03:17Z</time>
      </trkpt>
      <trkpt lat="44.67229" lon="2.89525">
        <ele>1218.13</ele>
        <time>2020-09-02T12:03:32Z</time>
      </trkpt>
      <trkpt lat="44.67221" lon="2.89508">
        <ele>1215.24</ele>
        <time>2020-09-02T12:03:47Z</time>
      </trkpt>
      <trkpt lat="44.67212" lon="2.89499">
        <ele>1212.84</ele>
        <time>2020-09-02T12:04:02Z</time>
      </trkpt>
      <trkpt lat="44.67203" lon="2.89482">
        <ele>1210.92</ele>
        <time>2020-09-02T12:04:17Z</time>
      </trkpt>
      <trkpt lat="44.67193" lon="2.89469">
        <ele>1208.03</ele>
        <time>2020-09-02T12:04:32Z</time>
      </trkpt>
      <trkpt lat="44.67185" lon="2.89464">
        <ele>1203.71</ele>
        <time>2020-09-02T12:04:47Z</time>
      </trkpt>
      <trkpt lat="44.67172" lon="2.89456">
        <ele>1201.79</ele>
        <time>2020-09-02T12:05:02Z</time>
      </trkpt>
      <trkpt lat="44.67163" lon="2.89453">
        <ele>1199.38</ele>
        <time>2020-09-02T12:05:17Z</time>
      </trkpt>
      <trkpt lat="44.67156" lon="2.89451">
        <ele>1196.98</ele>
        <time>2020-09-02T12:05:32Z</time>
      </trkpt>
      <trkpt lat="44.6714" lon="2.89444">
        <ele>1193.61</ele>
        <time>2020-09-02T12:05:47Z</time>
      </trkpt>
      <trkpt lat="44.67127" lon="2.89428">
        <ele>1191.21</ele>
        <time>2020-09-02T12:06:02Z</time>
      </trkpt>
      <trkpt lat="44.67113" lon="2.89406">
        <ele>1188.81</ele>
        <time>2020-09-02T12:06:17Z</time>
      </trkpt>
      <trkpt lat="44.67098" lon="2.89386">
        <ele>1185.92</ele>
        <time>2020-09-02T12:06:32Z</time>
      </trkpt>
      <trkpt lat="44.67088" lon="2.89359">
        <ele>1184.48</ele>
        <time>2020-09-02T12:06:47Z</time>
      </trkpt>
      <trkpt lat="44.67078" lon="2.89333">
        <ele>1183.52</ele>
        <time>2020-09-02T12:07:02Z</time>
      </trkpt>
      <trkpt lat="44.67071" lon="2.89308">
        <ele>1183.04</ele>
        <time>2020-09-02T12:07:17Z</time>
      </trkpt>
      <trkpt lat="44.67064" lon="2.89285">
        <ele>1180.64</ele>
        <time>2020-09-02T12:07:32Z</time>
      </trkpt>
      <trkpt lat="44.67057" lon="2.89263">
        <ele>1181.12</ele>
        <time>2020-09-02T12:07:47Z</time>
      </trkpt>
      <trkpt lat="44.67055" lon="2.89254">
        <ele>1180.16</ele>
        <time>2020-09-02T12:08:02Z</time>
      </trkpt>
      <trkpt lat="44.67055" lon="2.89253">
        <ele>1180.16</ele>
        <time>2020-09-02T12:08:17Z</time>
      </trkpt>
      <trkpt lat="44.6705" lon="2.89245">
        <ele>1180.64</ele>
        <time>2020-09-02T12:08:32Z</time>
      </trkpt>
      <trkpt lat="44.67051" lon="2.89242">
        <ele>1180.64</ele>
        <time>2020-09-02T12:08:47Z</time>
      </trkpt>
      <trkpt lat="44.67048" lon="2.89239">
        <ele>1179.67</ele>
        <time>2020-09-02T12:09:02Z</time>
      </trkpt>
      <trkpt lat="44.67047" lon="2.89234">
        <ele>1180.64</ele>
        <time>2020-09-02T12:09:17Z</time>
      </trkpt>
      <trkpt lat="44.67046" lon="2.89211">
        <ele>1181.12</ele>
        <time>2020-09-02T12:09:32Z</time>
      </trkpt>
      <trkpt lat="44.67045" lon="2.89198">
        <ele>1181.6</ele>
        <time>2020-09-02T12:09:47Z</time>
      </trkpt>
      <trkpt lat="44.67044" lon="2.89181">
        <ele>1182.08</ele>
        <time>2020-09-02T12:10:02Z</time>
      </trkpt>
      <trkpt lat="44.67043" lon="2.8917">
        <ele>1182.08</ele>
        <time>2020-09-02T12:10:17Z</time>
      </trkpt>
      <trkpt lat="44.67045" lon="2.89148">
        <ele>1183.04</ele>
        <time>2020-09-02T12:10:32Z</time>
      </trkpt>
      <trkpt lat="44.67047" lon="2.89133">
        <ele>1182.56</ele>
        <time>2020-09-02T12:10:47Z</time>
      </trkpt>
      <trkpt lat="44.67049" lon="2.8913">
        <ele>1182.56</ele>
        <time>2020-09-02T12:11:02Z</time>
      </trkpt>
      <trkpt lat="44.67048" lon="2.89127">
        <ele>1182.08</ele>
        <time>2020-09-02T12:11:17Z</time>
      </trkpt>
      <trkpt lat="44.67046" lon="2.89127">
        <ele>1182.56</ele>
        <time>2020-09-02T12:11:32Z</time>
      </trkpt>
      <trkpt lat="44.67043" lon="2.89119">
        <ele>1181.12</ele>
        <time>2020-09-02T12:11:47Z</time>
      </trkpt>
      <trkpt lat="44.6704" lon="2.89092">
        <ele>1180.16</ele>
        <time>2020-09-02T12:12:02Z</time>
      </trkpt>
      <trkpt lat="44.67038" lon="2.89066">
        <ele>1179.19</ele>
        <time>2020-09-02T12:12:17Z</time>
      </trkpt>
      <trkpt lat="44.67037" lon="2.8904">
        <ele>1177.75</ele>
        <time>2020-09-02T12:12:32Z</time>
      </trkpt>
      <trkpt lat="44.67035" lon="2.89014">
        <ele>1176.79</ele>
        <time>2020-09-02T12:12:47Z</time>
      </trkpt>
      <trkpt lat="44.67034" lon="2.88987">
        <ele>1176.31</ele>
        <time>2020-09-02T12:13:02Z</time>
      </trkpt>
      <trkpt lat="44.67033" lon="2.88961">
        <ele>1174.87</ele>
        <time>2020-09-02T12:13:17Z</time>
      </trkpt>
      <trkpt lat="44.67031" lon="2.88935">
        <ele>1174.87</ele>
        <time>2020-09-02T12:13:32Z</time>
      </trkpt>
      <trkpt lat="44.67029" lon="2.88909">
        <ele>1172.47</ele>
        <time>2020-09-02T12:13:47Z</time>
      </trkpt>
      <trkpt lat="44.67026" lon="2.88883">
        <ele>1171.02</ele>
        <time>2020-09-02T12:14:02Z</time>
      </trkpt>
      <trkpt lat="44.67027" lon="2.88861">
        <ele>1169.1</ele>
        <time>2020-09-02T12:14:17Z</time>
      </trkpt>
      <trkpt lat="44.67027" lon="2.8886">
        <ele>1169.1</ele>
        <time>2020-09-02T12:14:32Z</time>
      </trkpt>
      <trkpt lat="44.67025" lon="2.88839">
        <ele>1166.7</ele>
        <time>2020-09-02T12:14:47Z</time>
      </trkpt>
      <trkpt lat="44.67024" lon="2.88813">
        <ele>1163.81</ele>
        <time>2020-09-02T12:15:02Z</time>
      </trkpt>
      <trkpt lat="44.67024" lon="2.88789">
        <ele>1160.93</ele>
        <time>2020-09-02T12:15:17Z</time>
      </trkpt>
      <trkpt lat="44.67022" lon="2.88766">
        <ele>1157.56</ele>
        <time>2020-09-02T12:15:32Z</time>
      </trkpt>
      <trkpt lat="44.67023" lon="2.88744">
        <ele>1154.68</ele>
        <time>2020-09-02T12:15:47Z</time>
      </trkpt>
      <trkpt lat="44.67022" lon="2.88719">
        <ele>1152.76</ele>
        <time>2020-09-02T12:16:02Z</time>
      </trkpt>
      <trkpt lat="44.67021" lon="2.88692">
        <ele>1150.35</ele>
        <time>2020-09-02T12:16:17Z</time>
      </trkpt>
      <trkpt lat="44.6702" lon="2.88665">
        <ele>1149.39</ele>
        <time>2020-09-02T12:16:32Z</time>
      </trkpt>
      <trkpt lat="44.67021" lon="2.88643">
        <ele>1147.95</ele>
        <time>2020-09-02T12:16:47Z</time>
      </trkpt>
      <trkpt lat="44.67021" lon="2.8862">
        <ele>1146.51</ele>
        <time>2020-09-02T12:17:02Z</time>
      </trkpt>
      <trkpt lat="44.67022" lon="2.88596">
        <ele>1145.55</ele>
        <time>2020-09-02T12:17:17Z</time>
      </trkpt>
      <trkpt lat="44.67022" lon="2.88588">
        <ele>1145.07</ele>
        <time>2020-09-02T12:17:32Z</time>
      </trkpt>
      <trkpt lat="44.6702" lon="2.88583">
        <ele>1145.07</ele>
        <time>2020-09-02T12:17:47Z</time>
      </trkpt>
      <trkpt lat="44.6702" lon="2.88557">
        <ele>1141.7</ele>
        <time>2020-09-02T12:18:02Z</time>
      </trkpt>
      <trkpt lat="44.67022" lon="2.88531">
        <ele>1139.78</ele>
        <time>2020-09-02T12:18:17Z</time>
      </trkpt>
      <trkpt lat="44.67021" lon="2.88506">
        <ele>1137.38</ele>
        <time>2020-09-02T12:18:32Z</time>
      </trkpt>
      <trkpt lat="44.67027" lon="2.8848">
        <ele>1135.45</ele>
        <time>2020-09-02T12:18:47Z</time>
      </trkpt>
      <trkpt lat="44.67031" lon="2.88448">
        <ele>1133.05</ele>
        <time>2020-09-02T12:19:02Z</time>
      </trkpt>
      <trkpt lat="44.6703" lon="2.88425">
        <ele>1131.61</ele>
        <time>2020-09-02T12:19:17Z</time>
      </trkpt>
      <trkpt lat="44.67033" lon="2.88399">
        <ele>1129.21</ele>
        <time>2020-09-02T12:19:32Z</time>
      </trkpt>
      <trkpt lat="44.67037" lon="2.88377">
        <ele>1127.28</ele>
        <time>2020-09-02T12:19:47Z</time>
      </trkpt>
      <trkpt lat="44.6704" lon="2.8835">
        <ele>1125.84</ele>
        <time>2020-09-02T12:20:02Z</time>
      </trkpt>
      <trkpt lat="44.6704" lon="2.88319">
        <ele>1123.44</ele>
        <time>2020-09-02T12:20:17Z</time>
      </trkpt>
      <trkpt lat="44.6704" lon="2.88297">
        <ele>1121.52</ele>
        <time>2020-09-02T12:20:32Z</time>
      </trkpt>
      <trkpt lat="44.67039" lon="2.88276">
        <ele>1119.59</ele>
        <time>2020-09-02T12:20:47Z</time>
      </trkpt>
      <trkpt lat="44.67038" lon="2.88251">
        <ele>1118.15</ele>
        <time>2020-09-02T12:21:02Z</time>
      </trkpt>
      <trkpt lat="44.67036" lon="2.8822">
        <ele>1117.67</ele>
        <time>2020-09-02T12:21:17Z</time>
      </trkpt>
      <trkpt lat="44.67034" lon="2.88194">
        <ele>1116.71</ele>
        <time>2020-09-02T12:21:32Z</time>
      </trkpt>
      <trkpt lat="44.67033" lon="2.88168">
        <ele>1115.75</ele>
        <time>2020-09-02T12:21:47Z</time>
      </trkpt>
      <trkpt lat="44.67031" lon="2.88141">
        <ele>1115.75</ele>
        <time>2020-09-02T12:22:02Z</time>
      </trkpt>
      <trkpt lat="44.67032" lon="2.88117">
        <ele>1114.79</ele>
        <time>2020-09-02T12:22:17Z</time>
      </trkpt>
      <trkpt lat="44.67031" lon="2.88089">
        <ele>1114.31</ele>
        <time>2020-09-02T12:22:32Z</time>
      </trkpt>
      <trkpt lat="44.6703" lon="2.88064">
        <ele>1111.42</ele>
        <time>2020-09-02T12:22:47Z</time>
      </trkpt>
      <trkpt lat="44.67024" lon="2.88039">
        <ele>1110.94</ele>
        <time>2020-09-02T12:23:02Z</time>
      </trkpt>
      <trkpt lat="44.67019" lon="2.88017">
        <ele>1109.5</ele>
        <time>2020-09-02T12:23:17Z</time>
      </trkpt>
      <trkpt lat="44.67014" lon="2.8799">
        <ele>1109.02</ele>
        <time>2020-09-02T12:23:32Z</time>
      </trkpt>
      <trkpt lat="44.67011" lon="2.87964">
        <ele>1108.54</ele>
        <time>2020-09-02T12:23:47Z</time>
      </trkpt>
      <trkpt lat="44.67009" lon="2.87939">
        <ele>1108.06</ele>
        <time>2020-09-02T12:24:02Z</time>
      </trkpt>
      <trkpt lat="44.67006" lon="2.87914">
        <ele>1108.06</ele>
        <time>2020-09-02T12:24:17Z</time>
      </trkpt>
      <trkpt lat="44.67005" lon="2.87914">
        <ele>1108.06</ele>
        <time>2020-09-02T12:24:32Z</time>
      </trkpt>
      <trkpt lat="44.67002" lon="2.87899">
        <ele>1106.61</ele>
        <time>2020-09-02T12:24:47Z</time>
      </trkpt>
      <trkpt lat="44.66997" lon="2.87872">
        <ele>1105.65</ele>
        <time>2020-09-02T12:25:02Z</time>
      </trkpt>
      <trkpt lat="44.66992" lon="2.87844">
        <ele>1105.65</ele>
        <time>2020-09-02T12:25:17Z</time>
      </trkpt>
      <trkpt lat="44.66986" lon="2.87818">
        <ele>1104.21</ele>
        <time>2020-09-02T12:25:32Z</time>
      </trkpt>
      <trkpt lat="44.66982" lon="2.87795">
        <ele>1101.81</ele>
        <time>2020-09-02T12:25:47Z</time>
      </trkpt>
      <trkpt lat="44.6698" lon="2.87767">
        <ele>1099.89</ele>
        <time>2020-09-02T12:26:02Z</time>
      </trkpt>
      <trkpt lat="44.66972" lon="2.87738">
        <ele>1097.96</ele>
        <time>2020-09-02T12:26:17Z</time>
      </trkpt>
      <trkpt lat="44.66967" lon="2.87716">
        <ele>1097.48</ele>
        <time>2020-09-02T12:26:32Z</time>
      </trkpt>
      <trkpt lat="44.66964" lon="2.87693">
        <ele>1097</ele>
        <time>2020-09-02T12:26:47Z</time>
      </trkpt>
      <trkpt lat="44.66959" lon="2.87668">
        <ele>1096.04</ele>
        <time>2020-09-02T12:27:02Z</time>
      </trkpt>
      <trkpt lat="44.66955" lon="2.87638">
        <ele>1095.56</ele>
        <time>2020-09-02T12:27:17Z</time>
      </trkpt>
      <trkpt lat="44.66951" lon="2.8761">
        <ele>1094.6</ele>
        <time>2020-09-02T12:27:32Z</time>
      </trkpt>
      <trkpt lat="44.66949" lon="2.87585">
        <ele>1093.16</ele>
        <time>2020-09-02T12:27:47Z</time>
      </trkpt>
      <trkpt lat="44.66946" lon="2.8756">
        <ele>1092.2</ele>
        <time>2020-09-02T12:28:02Z</time>
      </trkpt>
      <trkpt lat="44.66948" lon="2.87536">
        <ele>1090.75</ele>
        <time>2020-09-02T12:28:17Z</time>
      </trkpt>
      <trkpt lat="44.66944" lon="2.87512">
        <ele>1088.83</ele>
        <time>2020-09-02T12:28:32Z</time>
      </trkpt>
      <trkpt lat="44.66941" lon="2.87486">
        <ele>1086.91</ele>
        <time>2020-09-02T12:28:47Z</time>
      </trkpt>
      <trkpt lat="44.66939" lon="2.87459">
        <ele>1084.5</ele>
        <time>2020-09-02T12:29:02Z</time>
      </trkpt>
      <trkpt lat="44.66935" lon="2.8743">
        <ele>1083.54</ele>
        <time>2020-09-02T12:29:17Z</time>
      </trkpt>
      <trkpt lat="44.66931" lon="2.87407">
        <ele>1082.1</ele>
        <time>2020-09-02T12:29:32Z</time>
      </trkpt>
      <trkpt lat="44.66925" lon="2.87384">
        <ele>1081.14</ele>
        <time>2020-09-02T12:29:47Z</time>
      </trkpt>
      <trkpt lat="44.66919" lon="2.87358">
        <ele>1080.18</ele>
        <time>2020-09-02T12:30:02Z</time>
      </trkpt>
      <trkpt lat="44.66913" lon="2.87333">
        <ele>1080.66</ele>
        <time>2020-09-02T12:30:17Z</time>
      </trkpt>
      <trkpt lat="44.66907" lon="2.87307">
        <ele>1080.18</ele>
        <time>2020-09-02T12:30:32Z</time>
      </trkpt>
      <trkpt lat="44.66901" lon="2.87281">
        <ele>1080.18</ele>
        <time>2020-09-02T12:30:47Z</time>
      </trkpt>
      <trkpt lat="44.66895" lon="2.87255">
        <ele>1079.22</ele>
        <time>2020-09-02T12:31:02Z</time>
      </trkpt>
      <trkpt lat="44.6689" lon="2.8723">
        <ele>1079.22</ele>
        <time>2020-09-02T12:31:17Z</time>
      </trkpt>
      <trkpt lat="44.66885" lon="2.87203">
        <ele>1079.7</ele>
        <time>2020-09-02T12:31:32Z</time>
      </trkpt>
      <trkpt lat="44.66885" lon="2.87178">
        <ele>1079.7</ele>
        <time>2020-09-02T12:31:47Z</time>
      </trkpt>
      <trkpt lat="44.66885" lon="2.87155">
        <ele>1080.18</ele>
        <time>2020-09-02T12:32:02Z</time>
      </trkpt>
      <trkpt lat="44.66892" lon="2.87133">
        <ele>1081.62</ele>
        <time>2020-09-02T12:32:17Z</time>
      </trkpt>
      <trkpt lat="44.66901" lon="2.87113">
        <ele>1082.1</ele>
        <time>2020-09-02T12:32:32Z</time>
      </trkpt>
      <trkpt lat="44.6691" lon="2.87093">
        <ele>1081.14</ele>
        <time>2020-09-02T12:32:47Z</time>
      </trkpt>
      <trkpt lat="44.66917" lon="2.87072">
        <ele>1081.62</ele>
        <time>2020-09-02T12:33:02Z</time>
      </trkpt>
      <trkpt lat="44.66926" lon="2.87052">
        <ele>1082.1</ele>
        <time>2020-09-02T12:33:17Z</time>
      </trkpt>
      <trkpt lat="44.66934" lon="2.87033">
        <ele>1083.06</ele>
        <time>2020-09-02T12:33:32Z</time>
      </trkpt>
      <trkpt lat="44.66935" lon="2.87013">
        <ele>1083.54</ele>
        <time>2020-09-02T12:33:47Z</time>
      </trkpt>
      <trkpt lat="44.66935" lon="2.8701">
        <ele>1083.06</ele>
        <time>2020-09-02T12:34:02Z</time>
      </trkpt>
      <trkpt lat="44.66934" lon="2.87009">
        <ele>1083.06</ele>
        <time>2020-09-02T12:34:17Z</time>
      </trkpt>
      <trkpt lat="44.66935" lon="2.8701">
        <ele>1083.54</ele>
        <time>2020-09-02T12:34:32Z</time>
      </trkpt>
      <trkpt lat="44.66936" lon="2.87012">
        <ele>1083.06</ele>
        <time>2020-09-02T12:34:47Z</time>
      </trkpt>
      <trkpt lat="44.66937" lon="2.87013">
        <ele>1083.06</ele>
        <time>2020-09-02T12:35:02Z</time>
      </trkpt>
      <trkpt lat="44.66937" lon="2.87011">
        <ele>1083.06</ele>
        <time>2020-09-02T12:35:17Z</time>
      </trkpt>
      <trkpt lat="44.66936" lon="2.87011">
        <ele>1083.06</ele>
        <time>2020-09-02T12:35:32Z</time>
      </trkpt>
      <trkpt lat="44.66935" lon="2.87011">
        <ele>1083.06</ele>
        <time>2020-09-02T12:35:47Z</time>
      </trkpt>
      <trkpt lat="44.66935" lon="2.8701">
        <ele>1083.06</ele>
        <time>2020-09-02T12:36:02Z</time>
      </trkpt>
      <trkpt lat="44.66936" lon="2.87011">
        <ele>1082.58</ele>
        <time>2020-09-02T12:36:17Z</time>
      </trkpt>
      <trkpt lat="44.66936" lon="2.87012">
        <ele>1082.1</ele>
        <time>2020-09-02T12:36:32Z</time>
      </trkpt>
      <trkpt lat="44.66936" lon="2.87011">
        <ele>1082.58</ele>
        <time>2020-09-02T12:36:47Z</time>
      </trkpt>
      <trkpt lat="44.66936" lon="2.87012">
        <ele>1082.1</ele>
        <time>2020-09-02T12:37:02Z</time>
      </trkpt>
      <trkpt lat="44.66935" lon="2.87012">
        <ele>1082.58</ele>
        <time>2020-09-02T12:37:17Z</time>
      </trkpt>
      <trkpt lat="44.66936" lon="2.87012">
        <ele>1082.1</ele>
        <time>2020-09-02T12:37:32Z</time>
      </trkpt>
      <trkpt lat="44.66936" lon="2.87012">
        <ele>1081.62</ele>
        <time>2020-09-02T12:37:47Z</time>
      </trkpt>
      <trkpt lat="44.66936" lon="2.87012">
        <ele>1082.1</ele>
        <time>2020-09-02T12:38:02Z</time>
      </trkpt>
      <trkpt lat="44.66935" lon="2.87012">
        <ele>1081.62</ele>
        <time>2020-09-02T12:38:17Z</time>
      </trkpt>
      <trkpt lat="44.66934" lon="2.87011">
        <ele>1081.62</ele>
        <time>2020-09-02T12:38:32Z</time>
      </trkpt>
      <trkpt lat="44.66933" lon="2.87011">
        <ele>1081.14</ele>
        <time>2020-09-02T12:38:47Z</time>
      </trkpt>
      <trkpt lat="44.66933" lon="2.87009">
        <ele>1081.62</ele>
        <time>2020-09-02T12:39:02Z</time>
      </trkpt>
      <trkpt lat="44.66933" lon="2.87008">
        <ele>1081.14</ele>
        <time>2020-09-02T12:39:17Z</time>
      </trkpt>
      <trkpt lat="44.66937" lon="2.87009">
        <ele>1081.14</ele>
        <time>2020-09-02T12:39:32Z</time>
      </trkpt>
      <trkpt lat="44.66942" lon="2.86998">
        <ele>1082.1</ele>
        <time>2020-09-02T12:39:47Z</time>
      </trkpt>
      <trkpt lat="44.6695" lon="2.8698">
        <ele>1083.06</ele>
        <time>2020-09-02T12:40:02Z</time>
      </trkpt>
      <trkpt lat="44.66958" lon="2.86964">
        <ele>1084.99</ele>
        <time>2020-09-02T12:40:17Z</time>
      </trkpt>
      <trkpt lat="44.66966" lon="2.86947">
        <ele>1085.47</ele>
        <time>2020-09-02T12:40:32Z</time>
      </trkpt>
      <trkpt lat="44.66973" lon="2.86926">
        <ele>1086.43</ele>
        <time>2020-09-02T12:40:47Z</time>
      </trkpt>
      <trkpt lat="44.66978" lon="2.86904">
        <ele>1087.39</ele>
        <time>2020-09-02T12:41:02Z</time>
      </trkpt>
      <trkpt lat="44.66982" lon="2.8688">
        <ele>1087.87</ele>
        <time>2020-09-02T12:41:17Z</time>
      </trkpt>
      <trkpt lat="44.66983" lon="2.86857">
        <ele>1088.83</ele>
        <time>2020-09-02T12:41:32Z</time>
      </trkpt>
      <trkpt lat="44.66982" lon="2.86833">
        <ele>1089.31</ele>
        <time>2020-09-02T12:41:47Z</time>
      </trkpt>
      <trkpt lat="44.66978" lon="2.86811">
        <ele>1090.27</ele>
        <time>2020-09-02T12:42:02Z</time>
      </trkpt>
      <trkpt lat="44.66974" lon="2.86787">
        <ele>1091.23</ele>
        <time>2020-09-02T12:42:17Z</time>
      </trkpt>
      <trkpt lat="44.66969" lon="2.86765">
        <ele>1092.68</ele>
        <time>2020-09-02T12:42:32Z</time>
      </trkpt>
      <trkpt lat="44.66963" lon="2.86742">
        <ele>1094.12</ele>
        <time>2020-09-02T12:42:47Z</time>
      </trkpt>
      <trkpt lat="44.6696" lon="2.8672">
        <ele>1094.12</ele>
        <time>2020-09-02T12:43:02Z</time>
      </trkpt>
      <trkpt lat="44.66956" lon="2.86696">
        <ele>1094.12</ele>
        <time>2020-09-02T12:43:17Z</time>
      </trkpt>
      <trkpt lat="44.6695" lon="2.86672">
        <ele>1095.08</ele>
        <time>2020-09-02T12:43:32Z</time>
      </trkpt>
      <trkpt lat="44.66945" lon="2.86648">
        <ele>1095.56</ele>
        <time>2020-09-02T12:43:47Z</time>
      </trkpt>
      <trkpt lat="44.6694" lon="2.86624">
        <ele>1096.04</ele>
        <time>2020-09-02T12:44:02Z</time>
      </trkpt>
      <trkpt lat="44.66933" lon="2.86602">
        <ele>1096.04</ele>
        <time>2020-09-02T12:44:17Z</time>
      </trkpt>
      <trkpt lat="44.66926" lon="2.8658">
        <ele>1097</ele>
        <time>2020-09-02T12:44:32Z</time>
      </trkpt>
      <trkpt lat="44.6692" lon="2.86557">
        <ele>1097.48</ele>
        <time>2020-09-02T12:44:47Z</time>
      </trkpt>
      <trkpt lat="44.66913" lon="2.86534">
        <ele>1097.96</ele>
        <time>2020-09-02T12:45:02Z</time>
      </trkpt>
      <trkpt lat="44.66907" lon="2.8651">
        <ele>1097.48</ele>
        <time>2020-09-02T12:45:17Z</time>
      </trkpt>
      <trkpt lat="44.66899" lon="2.86485">
        <ele>1096.52</ele>
        <time>2020-09-02T12:45:32Z</time>
      </trkpt>
      <trkpt lat="44.66893" lon="2.86461">
        <ele>1097</ele>
        <time>2020-09-02T12:45:47Z</time>
      </trkpt>
      <trkpt lat="44.66884" lon="2.86438">
        <ele>1097</ele>
        <time>2020-09-02T12:46:02Z</time>
      </trkpt>
      <trkpt lat="44.66876" lon="2.86416">
        <ele>1097.96</ele>
        <time>2020-09-02T12:46:17Z</time>
      </trkpt>
      <trkpt lat="44.66866" lon="2.86397">
        <ele>1097.96</ele>
        <time>2020-09-02T12:46:32Z</time>
      </trkpt>
      <trkpt lat="44.66856" lon="2.86375">
        <ele>1097.96</ele>
        <time>2020-09-02T12:46:47Z</time>
      </trkpt>
      <trkpt lat="44.66845" lon="2.86353">
        <ele>1098.44</ele>
        <time>2020-09-02T12:47:02Z</time>
      </trkpt>
      <trkpt lat="44.66835" lon="2.86331">
        <ele>1098.92</ele>
        <time>2020-09-02T12:47:17Z</time>
      </trkpt>
      <trkpt lat="44.66828" lon="2.8631">
        <ele>1099.4</ele>
        <time>2020-09-02T12:47:32Z</time>
      </trkpt>
      <trkpt lat="44.66821" lon="2.8629">
        <ele>1099.89</ele>
        <time>2020-09-02T12:47:47Z</time>
      </trkpt>
      <trkpt lat="44.66813" lon="2.86273">
        <ele>1099.89</ele>
        <time>2020-09-02T12:48:02Z</time>
      </trkpt>
      <trkpt lat="44.66814" lon="2.86273">
        <ele>1099.89</ele>
        <time>2020-09-02T12:48:17Z</time>
      </trkpt>
      <trkpt lat="44.66815" lon="2.86271">
        <ele>1099.89</ele>
        <time>2020-09-02T12:48:32Z</time>
      </trkpt>
      <trkpt lat="44.66814" lon="2.86272">
        <ele>1099.4</ele>
        <time>2020-09-02T12:48:47Z</time>
      </trkpt>
      <trkpt lat="44.66808" lon="2.86263">
        <ele>1099.4</ele>
        <time>2020-09-02T12:49:02Z</time>
      </trkpt>
      <trkpt lat="44.66797" lon="2.8624">
        <ele>1099.89</ele>
        <time>2020-09-02T12:49:17Z</time>
      </trkpt>
      <trkpt lat="44.66788" lon="2.86218">
        <ele>1100.37</ele>
        <time>2020-09-02T12:49:32Z</time>
      </trkpt>
      <trkpt lat="44.66782" lon="2.86195">
        <ele>1100.37</ele>
        <time>2020-09-02T12:49:47Z</time>
      </trkpt>
      <trkpt lat="44.66774" lon="2.86176">
        <ele>1100.85</ele>
        <time>2020-09-02T12:50:02Z</time>
      </trkpt>
      <trkpt lat="44.66765" lon="2.86154">
        <ele>1101.33</ele>
        <time>2020-09-02T12:50:17Z</time>
      </trkpt>
      <trkpt lat="44.66757" lon="2.86131">
        <ele>1102.29</ele>
        <time>2020-09-02T12:50:32Z</time>
      </trkpt>
      <trkpt lat="44.66751" lon="2.86107">
        <ele>1102.29</ele>
        <time>2020-09-02T12:50:47Z</time>
      </trkpt>
      <trkpt lat="44.66743" lon="2.86082">
        <ele>1102.29</ele>
        <time>2020-09-02T12:51:02Z</time>
      </trkpt>
      <trkpt lat="44.66741" lon="2.86063">
        <ele>1103.25</ele>
        <time>2020-09-02T12:51:17Z</time>
      </trkpt>
      <trkpt lat="44.66737" lon="2.86037">
        <ele>1103.25</ele>
        <time>2020-09-02T12:51:32Z</time>
      </trkpt>
      <trkpt lat="44.66734" lon="2.86012">
        <ele>1102.77</ele>
        <time>2020-09-02T12:51:47Z</time>
      </trkpt>
      <trkpt lat="44.6673" lon="2.85987">
        <ele>1104.21</ele>
        <time>2020-09-02T12:52:02Z</time>
      </trkpt>
      <trkpt lat="44.66728" lon="2.85963">
        <ele>1104.69</ele>
        <time>2020-09-02T12:52:17Z</time>
      </trkpt>
      <trkpt lat="44.66727" lon="2.85938">
        <ele>1105.17</ele>
        <time>2020-09-02T12:52:32Z</time>
      </trkpt>
      <trkpt lat="44.66732" lon="2.85916">
        <ele>1107.1</ele>
        <time>2020-09-02T12:52:47Z</time>
      </trkpt>
      <trkpt lat="44.66739" lon="2.85895">
        <ele>1107.58</ele>
        <time>2020-09-02T12:53:02Z</time>
      </trkpt>
      <trkpt lat="44.66741" lon="2.85884">
        <ele>1107.1</ele>
        <time>2020-09-02T12:53:17Z</time>
      </trkpt>
      <trkpt lat="44.66739" lon="2.85884">
        <ele>1107.58</ele>
        <time>2020-09-02T12:53:32Z</time>
      </trkpt>
      <trkpt lat="44.66738" lon="2.85881">
        <ele>1108.06</ele>
        <time>2020-09-02T12:53:47Z</time>
      </trkpt>
      <trkpt lat="44.66748" lon="2.85877">
        <ele>1108.06</ele>
        <time>2020-09-02T12:54:02Z</time>
      </trkpt>
      <trkpt lat="44.66764" lon="2.85862">
        <ele>1107.1</ele>
        <time>2020-09-02T12:54:17Z</time>
      </trkpt>
      <trkpt lat="44.66776" lon="2.85841">
        <ele>1106.61</ele>
        <time>2020-09-02T12:54:32Z</time>
      </trkpt>
      <trkpt lat="44.66788" lon="2.85818">
        <ele>1106.61</ele>
        <time>2020-09-02T12:54:47Z</time>
      </trkpt>
      <trkpt lat="44.66799" lon="2.85795">
        <ele>1105.65</ele>
        <time>2020-09-02T12:55:02Z</time>
      </trkpt>
      <trkpt lat="44.66811" lon="2.85775">
        <ele>1106.13</ele>
        <time>2020-09-02T12:55:17Z</time>
      </trkpt>
      <trkpt lat="44.66823" lon="2.85756">
        <ele>1105.65</ele>
        <time>2020-09-02T12:55:32Z</time>
      </trkpt>
      <trkpt lat="44.66835" lon="2.85735">
        <ele>1105.17</ele>
        <time>2020-09-02T12:55:47Z</time>
      </trkpt>
      <trkpt lat="44.66838" lon="2.85729">
        <ele>1105.17</ele>
        <time>2020-09-02T12:56:02Z</time>
      </trkpt>
      <trkpt lat="44.66846" lon="2.85718">
        <ele>1104.69</ele>
        <time>2020-09-02T12:56:17Z</time>
      </trkpt>
      <trkpt lat="44.6686" lon="2.85698">
        <ele>1103.73</ele>
        <time>2020-09-02T12:56:32Z</time>
      </trkpt>
      <trkpt lat="44.66871" lon="2.85677">
        <ele>1103.25</ele>
        <time>2020-09-02T12:56:47Z</time>
      </trkpt>
      <trkpt lat="44.66875" lon="2.85668">
        <ele>1102.77</ele>
        <time>2020-09-02T12:57:02Z</time>
      </trkpt>
      <trkpt lat="44.66875" lon="2.85667">
        <ele>1102.29</ele>
        <time>2020-09-02T12:57:17Z</time>
      </trkpt>
      <trkpt lat="44.66874" lon="2.85668">
        <ele>1102.29</ele>
        <time>2020-09-02T12:57:32Z</time>
      </trkpt>
      <trkpt lat="44.66875" lon="2.85668">
        <ele>1103.25</ele>
        <time>2020-09-02T12:57:47Z</time>
      </trkpt>
      <trkpt lat="44.66876" lon="2.85669">
        <ele>1103.25</ele>
        <time>2020-09-02T12:58:02Z</time>
      </trkpt>
      <trkpt lat="44.66876" lon="2.85665">
        <ele>1102.29</ele>
        <time>2020-09-02T12:58:17Z</time>
      </trkpt>
      <trkpt lat="44.66883" lon="2.85641">
        <ele>1100.85</ele>
        <time>2020-09-02T12:58:32Z</time>
      </trkpt>
      <trkpt lat="44.66891" lon="2.85615">
        <ele>1099.4</ele>
        <time>2020-09-02T12:58:47Z</time>
      </trkpt>
      <trkpt lat="44.66902" lon="2.85589">
        <ele>1097</ele>
        <time>2020-09-02T12:59:02Z</time>
      </trkpt>
      <trkpt lat="44.66914" lon="2.85567">
        <ele>1096.52</ele>
        <time>2020-09-02T12:59:17Z</time>
      </trkpt>
      <trkpt lat="44.66926" lon="2.85547">
        <ele>1093.16</ele>
        <time>2020-09-02T12:59:32Z</time>
      </trkpt>
      <trkpt lat="44.66936" lon="2.85528">
        <ele>1090.75</ele>
        <time>2020-09-02T12:59:47Z</time>
      </trkpt>
      <trkpt lat="44.66943" lon="2.85502">
        <ele>1088.35</ele>
        <time>2020-09-02T13:00:02Z</time>
      </trkpt>
      <trkpt lat="44.66953" lon="2.85475">
        <ele>1084.5</ele>
        <time>2020-09-02T13:00:17Z</time>
      </trkpt>
      <trkpt lat="44.66965" lon="2.85448">
        <ele>1083.06</ele>
        <time>2020-09-02T13:00:32Z</time>
      </trkpt>
      <trkpt lat="44.66977" lon="2.85422">
        <ele>1080.66</ele>
        <time>2020-09-02T13:00:47Z</time>
      </trkpt>
      <trkpt lat="44.66988" lon="2.85401">
        <ele>1079.7</ele>
        <time>2020-09-02T13:01:02Z</time>
      </trkpt>
      <trkpt lat="44.66995" lon="2.85379">
        <ele>1079.7</ele>
        <time>2020-09-02T13:01:17Z</time>
      </trkpt>
      <trkpt lat="44.67005" lon="2.85355">
        <ele>1077.78</ele>
        <time>2020-09-02T13:01:32Z</time>
      </trkpt>
      <trkpt lat="44.67015" lon="2.8533">
        <ele>1077.29</ele>
        <time>2020-09-02T13:01:47Z</time>
      </trkpt>
      <trkpt lat="44.67025" lon="2.85307">
        <ele>1076.33</ele>
        <time>2020-09-02T13:02:02Z</time>
      </trkpt>
      <trkpt lat="44.67036" lon="2.85288">
        <ele>1074.89</ele>
        <time>2020-09-02T13:02:17Z</time>
      </trkpt>
      <trkpt lat="44.67046" lon="2.85269">
        <ele>1074.41</ele>
        <time>2020-09-02T13:02:32Z</time>
      </trkpt>
      <trkpt lat="44.67057" lon="2.85253">
        <ele>1073.45</ele>
        <time>2020-09-02T13:02:47Z</time>
      </trkpt>
      <trkpt lat="44.67069" lon="2.85234">
        <ele>1072.01</ele>
        <time>2020-09-02T13:03:02Z</time>
      </trkpt>
      <trkpt lat="44.67079" lon="2.85216">
        <ele>1071.53</ele>
        <time>2020-09-02T13:03:17Z</time>
      </trkpt>
      <trkpt lat="44.67093" lon="2.85196">
        <ele>1071.05</ele>
        <time>2020-09-02T13:03:32Z</time>
      </trkpt>
      <trkpt lat="44.67108" lon="2.85177">
        <ele>1071.05</ele>
        <time>2020-09-02T13:03:47Z</time>
      </trkpt>
      <trkpt lat="44.67123" lon="2.85159">
        <ele>1071.05</ele>
        <time>2020-09-02T13:04:02Z</time>
      </trkpt>
      <trkpt lat="44.67139" lon="2.85144">
        <ele>1070.08</ele>
        <time>2020-09-02T13:04:17Z</time>
      </trkpt>
      <trkpt lat="44.67155" lon="2.85136">
        <ele>1068.16</ele>
        <time>2020-09-02T13:04:32Z</time>
      </trkpt>
      <trkpt lat="44.6717" lon="2.85128">
        <ele>1066.24</ele>
        <time>2020-09-02T13:04:47Z</time>
      </trkpt>
      <trkpt lat="44.67184" lon="2.85115">
        <ele>1064.8</ele>
        <time>2020-09-02T13:05:02Z</time>
      </trkpt>
      <trkpt lat="44.67194" lon="2.85103">
        <ele>1063.36</ele>
        <time>2020-09-02T13:05:17Z</time>
      </trkpt>
      <trkpt lat="44.67205" lon="2.85088">
        <ele>1061.91</ele>
        <time>2020-09-02T13:05:32Z</time>
      </trkpt>
      <trkpt lat="44.67217" lon="2.85075">
        <ele>1060.95</ele>
        <time>2020-09-02T13:05:47Z</time>
      </trkpt>
      <trkpt lat="44.6723" lon="2.85062">
        <ele>1059.51</ele>
        <time>2020-09-02T13:06:02Z</time>
      </trkpt>
      <trkpt lat="44.67241" lon="2.85045">
        <ele>1058.55</ele>
        <time>2020-09-02T13:06:17Z</time>
      </trkpt>
      <trkpt lat="44.67255" lon="2.85028">
        <ele>1057.11</ele>
        <time>2020-09-02T13:06:32Z</time>
      </trkpt>
      <trkpt lat="44.67267" lon="2.85009">
        <ele>1056.63</ele>
        <time>2020-09-02T13:06:47Z</time>
      </trkpt>
      <trkpt lat="44.67277" lon="2.84987">
        <ele>1055.18</ele>
        <time>2020-09-02T13:07:02Z</time>
      </trkpt>
      <trkpt lat="44.673" lon="2.84981">
        <ele>1055.18</ele>
        <time>2020-09-02T13:07:17Z</time>
      </trkpt>
      <trkpt lat="44.67314" lon="2.84974">
        <ele>1056.63</ele>
        <time>2020-09-02T13:07:32Z</time>
      </trkpt>
      <trkpt lat="44.6732" lon="2.84975">
        <ele>1056.15</ele>
        <time>2020-09-02T13:07:47Z</time>
      </trkpt>
      <trkpt lat="44.67329" lon="2.84974">
        <ele>1054.7</ele>
        <time>2020-09-02T13:08:02Z</time>
      </trkpt>
      <trkpt lat="44.67333" lon="2.84964">
        <ele>1054.7</ele>
        <time>2020-09-02T13:08:17Z</time>
      </trkpt>
      <trkpt lat="44.6734" lon="2.84968">
        <ele>1054.22</ele>
        <time>2020-09-02T13:08:32Z</time>
      </trkpt>
      <trkpt lat="44.67339" lon="2.84977">
        <ele>1056.15</ele>
        <time>2020-09-02T13:08:47Z</time>
      </trkpt>
      <trkpt lat="44.67344" lon="2.84984">
        <ele>1057.59</ele>
        <time>2020-09-02T13:09:02Z</time>
      </trkpt>
      <trkpt lat="44.67361" lon="2.84991">
        <ele>1056.63</ele>
        <time>2020-09-02T13:09:17Z</time>
      </trkpt>
      <trkpt lat="44.67377" lon="2.84999">
        <ele>1056.15</ele>
        <time>2020-09-02T13:09:32Z</time>
      </trkpt>
      <trkpt lat="44.67382" lon="2.85006">
        <ele>1056.63</ele>
        <time>2020-09-02T13:09:47Z</time>
      </trkpt>
      <trkpt lat="44.67396" lon="2.85027">
        <ele>1054.7</ele>
        <time>2020-09-02T13:10:02Z</time>
      </trkpt>
      <trkpt lat="44.67413" lon="2.85042">
        <ele>1053.74</ele>
        <time>2020-09-02T13:10:17Z</time>
      </trkpt>
      <trkpt lat="44.67429" lon="2.85055">
        <ele>1052.78</ele>
        <time>2020-09-02T13:10:32Z</time>
      </trkpt>
      <trkpt lat="44.67444" lon="2.8507">
        <ele>1051.82</ele>
        <time>2020-09-02T13:10:47Z</time>
      </trkpt>
      <trkpt lat="44.67461" lon="2.85087">
        <ele>1050.38</ele>
        <time>2020-09-02T13:11:02Z</time>
      </trkpt>
      <trkpt lat="44.67474" lon="2.85101">
        <ele>1049.42</ele>
        <time>2020-09-02T13:11:17Z</time>
      </trkpt>
      <trkpt lat="44.6749" lon="2.85117">
        <ele>1048.45</ele>
        <time>2020-09-02T13:11:32Z</time>
      </trkpt>
      <trkpt lat="44.67506" lon="2.85128">
        <ele>1047.49</ele>
        <time>2020-09-02T13:11:47Z</time>
      </trkpt>
      <trkpt lat="44.67524" lon="2.85149">
        <ele>1046.05</ele>
        <time>2020-09-02T13:12:02Z</time>
      </trkpt>
      <trkpt lat="44.67538" lon="2.85166">
        <ele>1045.09</ele>
        <time>2020-09-02T13:12:17Z</time>
      </trkpt>
      <trkpt lat="44.67553" lon="2.85185">
        <ele>1044.13</ele>
        <time>2020-09-02T13:12:32Z</time>
      </trkpt>
      <trkpt lat="44.67567" lon="2.85203">
        <ele>1042.21</ele>
        <time>2020-09-02T13:12:47Z</time>
      </trkpt>
      <trkpt lat="44.67579" lon="2.85218">
        <ele>1041.73</ele>
        <time>2020-09-02T13:13:02Z</time>
      </trkpt>
      <trkpt lat="44.67591" lon="2.85236">
        <ele>1040.76</ele>
        <time>2020-09-02T13:13:17Z</time>
      </trkpt>
      <trkpt lat="44.67594" lon="2.85261">
        <ele>1039.8</ele>
        <time>2020-09-02T13:13:32Z</time>
      </trkpt>
      <trkpt lat="44.67589" lon="2.85281">
        <ele>1039.32</ele>
        <time>2020-09-02T13:13:47Z</time>
      </trkpt>
      <trkpt lat="44.67582" lon="2.85301">
        <ele>1037.88</ele>
        <time>2020-09-02T13:14:02Z</time>
      </trkpt>
      <trkpt lat="44.67571" lon="2.85322">
        <ele>1037.4</ele>
        <time>2020-09-02T13:14:17Z</time>
      </trkpt>
      <trkpt lat="44.67566" lon="2.85337">
        <ele>1036.92</ele>
        <time>2020-09-02T13:14:32Z</time>
      </trkpt>
      <trkpt lat="44.67561" lon="2.85352">
        <ele>1035.96</ele>
        <time>2020-09-02T13:14:47Z</time>
      </trkpt>
      <trkpt lat="44.67557" lon="2.85375">
        <ele>1034.52</ele>
        <time>2020-09-02T13:15:02Z</time>
      </trkpt>
      <trkpt lat="44.67561" lon="2.85403">
        <ele>1034.04</ele>
        <time>2020-09-02T13:15:17Z</time>
      </trkpt>
      <trkpt lat="44.67558" lon="2.85407">
        <ele>1034.52</ele>
        <time>2020-09-02T13:15:32Z</time>
      </trkpt>
      <trkpt lat="44.67552" lon="2.85405">
        <ele>1034.04</ele>
        <time>2020-09-02T13:15:47Z</time>
      </trkpt>
      <trkpt lat="44.67554" lon="2.85415">
        <ele>1034.52</ele>
        <time>2020-09-02T13:16:02Z</time>
      </trkpt>
      <trkpt lat="44.67561" lon="2.85432">
        <ele>1035</ele>
        <time>2020-09-02T13:16:17Z</time>
      </trkpt>
      <trkpt lat="44.6757" lon="2.85456">
        <ele>1036.92</ele>
        <time>2020-09-02T13:16:32Z</time>
      </trkpt>
      <trkpt lat="44.67584" lon="2.85481">
        <ele>1037.88</ele>
        <time>2020-09-02T13:16:47Z</time>
      </trkpt>
      <trkpt lat="44.67598" lon="2.85495">
        <ele>1039.32</ele>
        <time>2020-09-02T13:17:02Z</time>
      </trkpt>
      <trkpt lat="44.67611" lon="2.85498">
        <ele>1040.76</ele>
        <time>2020-09-02T13:17:17Z</time>
      </trkpt>
      <trkpt lat="44.67624" lon="2.85495">
        <ele>1042.21</ele>
        <time>2020-09-02T13:17:32Z</time>
      </trkpt>
      <trkpt lat="44.6764" lon="2.85496">
        <ele>1042.69</ele>
        <time>2020-09-02T13:17:47Z</time>
      </trkpt>
      <trkpt lat="44.67654" lon="2.8549">
        <ele>1043.65</ele>
        <time>2020-09-02T13:18:02Z</time>
      </trkpt>
      <trkpt lat="44.67668" lon="2.85484">
        <ele>1044.61</ele>
        <time>2020-09-02T13:18:17Z</time>
      </trkpt>
      <trkpt lat="44.67683" lon="2.85477">
        <ele>1045.57</ele>
        <time>2020-09-02T13:18:32Z</time>
      </trkpt>
      <trkpt lat="44.67701" lon="2.85476">
        <ele>1047.01</ele>
        <time>2020-09-02T13:18:47Z</time>
      </trkpt>
      <trkpt lat="44.67717" lon="2.85473">
        <ele>1047.97</ele>
        <time>2020-09-02T13:19:02Z</time>
      </trkpt>
      <trkpt lat="44.67734" lon="2.85472">
        <ele>1048.45</ele>
        <time>2020-09-02T13:19:17Z</time>
      </trkpt>
      <trkpt lat="44.67751" lon="2.85474">
        <ele>1048.45</ele>
        <time>2020-09-02T13:19:32Z</time>
      </trkpt>
      <trkpt lat="44.67767" lon="2.85474">
        <ele>1048.94</ele>
        <time>2020-09-02T13:19:47Z</time>
      </trkpt>
      <trkpt lat="44.67781" lon="2.85467">
        <ele>1050.38</ele>
        <time>2020-09-02T13:20:02Z</time>
      </trkpt>
      <trkpt lat="44.67793" lon="2.85454">
        <ele>1050.86</ele>
        <time>2020-09-02T13:20:17Z</time>
      </trkpt>
      <trkpt lat="44.67805" lon="2.85439">
        <ele>1051.82</ele>
        <time>2020-09-02T13:20:32Z</time>
      </trkpt>
      <trkpt lat="44.67817" lon="2.85423">
        <ele>1052.78</ele>
        <time>2020-09-02T13:20:47Z</time>
      </trkpt>
      <trkpt lat="44.67826" lon="2.85403">
        <ele>1052.78</ele>
        <time>2020-09-02T13:21:02Z</time>
      </trkpt>
      <trkpt lat="44.67839" lon="2.85384">
        <ele>1053.74</ele>
        <time>2020-09-02T13:21:17Z</time>
      </trkpt>
      <trkpt lat="44.67851" lon="2.85366">
        <ele>1054.22</ele>
        <time>2020-09-02T13:21:32Z</time>
      </trkpt>
      <trkpt lat="44.67853" lon="2.85363">
        <ele>1053.26</ele>
        <time>2020-09-02T13:21:47Z</time>
      </trkpt>
      <trkpt lat="44.67857" lon="2.85357">
        <ele>1053.74</ele>
        <time>2020-09-02T13:22:02Z</time>
      </trkpt>
      <trkpt lat="44.67856" lon="2.85355">
        <ele>1053.74</ele>
        <time>2020-09-02T13:22:17Z</time>
      </trkpt>
      <trkpt lat="44.67861" lon="2.85348">
        <ele>1053.74</ele>
        <time>2020-09-02T13:22:32Z</time>
      </trkpt>
      <trkpt lat="44.67868" lon="2.8534">
        <ele>1053.74</ele>
        <time>2020-09-02T13:22:47Z</time>
      </trkpt>
      <trkpt lat="44.6788" lon="2.85319">
        <ele>1053.74</ele>
        <time>2020-09-02T13:23:02Z</time>
      </trkpt>
      <trkpt lat="44.67894" lon="2.85297">
        <ele>1053.74</ele>
        <time>2020-09-02T13:23:17Z</time>
      </trkpt>
      <trkpt lat="44.67907" lon="2.85278">
        <ele>1052.78</ele>
        <time>2020-09-02T13:23:32Z</time>
      </trkpt>
      <trkpt lat="44.6792" lon="2.85256">
        <ele>1052.3</ele>
        <time>2020-09-02T13:23:47Z</time>
      </trkpt>
      <trkpt lat="44.67932" lon="2.85238">
        <ele>1052.3</ele>
        <time>2020-09-02T13:24:02Z</time>
      </trkpt>
      <trkpt lat="44.67942" lon="2.85222">
        <ele>1051.34</ele>
        <time>2020-09-02T13:24:17Z</time>
      </trkpt>
      <trkpt lat="44.67953" lon="2.85206">
        <ele>1051.34</ele>
        <time>2020-09-02T13:24:32Z</time>
      </trkpt>
      <trkpt lat="44.67966" lon="2.85192">
        <ele>1050.86</ele>
        <time>2020-09-02T13:24:47Z</time>
      </trkpt>
      <trkpt lat="44.67984" lon="2.85186">
        <ele>1048.94</ele>
        <time>2020-09-02T13:25:02Z</time>
      </trkpt>
      <trkpt lat="44.68" lon="2.85186">
        <ele>1046.53</ele>
        <time>2020-09-02T13:25:17Z</time>
      </trkpt>
      <trkpt lat="44.68006" lon="2.85185">
        <ele>1047.01</ele>
        <time>2020-09-02T13:25:32Z</time>
      </trkpt>
      <trkpt lat="44.68007" lon="2.85188">
        <ele>1047.01</ele>
        <time>2020-09-02T13:25:47Z</time>
      </trkpt>
      <trkpt lat="44.68006" lon="2.85191">
        <ele>1047.01</ele>
        <time>2020-09-02T13:26:02Z</time>
      </trkpt>
      <trkpt lat="44.68005" lon="2.8519">
        <ele>1046.53</ele>
        <time>2020-09-02T13:26:17Z</time>
      </trkpt>
      <trkpt lat="44.68021" lon="2.85198">
        <ele>1045.09</ele>
        <time>2020-09-02T13:26:32Z</time>
      </trkpt>
      <trkpt lat="44.68032" lon="2.85215">
        <ele>1043.65</ele>
        <time>2020-09-02T13:26:47Z</time>
      </trkpt>
      <trkpt lat="44.68046" lon="2.85238">
        <ele>1041.73</ele>
        <time>2020-09-02T13:27:02Z</time>
      </trkpt>
      <trkpt lat="44.68061" lon="2.85245">
        <ele>1040.28</ele>
        <time>2020-09-02T13:27:17Z</time>
      </trkpt>
      <trkpt lat="44.68076" lon="2.85243">
        <ele>1037.88</ele>
        <time>2020-09-02T13:27:32Z</time>
      </trkpt>
      <trkpt lat="44.68089" lon="2.85232">
        <ele>1035</ele>
        <time>2020-09-02T13:27:47Z</time>
      </trkpt>
      <trkpt lat="44.68104" lon="2.85219">
        <ele>1033.55</ele>
        <time>2020-09-02T13:28:02Z</time>
      </trkpt>
      <trkpt lat="44.68118" lon="2.85205">
        <ele>1032.11</ele>
        <time>2020-09-02T13:28:17Z</time>
      </trkpt>
      <trkpt lat="44.68137" lon="2.85197">
        <ele>1030.19</ele>
        <time>2020-09-02T13:28:32Z</time>
      </trkpt>
      <trkpt lat="44.68152" lon="2.85185">
        <ele>1028.75</ele>
        <time>2020-09-02T13:28:47Z</time>
      </trkpt>
      <trkpt lat="44.6817" lon="2.8518">
        <ele>1028.27</ele>
        <time>2020-09-02T13:29:02Z</time>
      </trkpt>
      <trkpt lat="44.68188" lon="2.85177">
        <ele>1027.79</ele>
        <time>2020-09-02T13:29:17Z</time>
      </trkpt>
      <trkpt lat="44.68205" lon="2.85177">
        <ele>1026.83</ele>
        <time>2020-09-02T13:29:32Z</time>
      </trkpt>
      <trkpt lat="44.68222" lon="2.85175">
        <ele>1026.83</ele>
        <time>2020-09-02T13:29:47Z</time>
      </trkpt>
      <trkpt lat="44.68233" lon="2.85171">
        <ele>1026.34</ele>
        <time>2020-09-02T13:30:02Z</time>
      </trkpt>
      <trkpt lat="44.68249" lon="2.8516">
        <ele>1025.38</ele>
        <time>2020-09-02T13:30:17Z</time>
      </trkpt>
      <trkpt lat="44.6826" lon="2.85146">
        <ele>1024.9</ele>
        <time>2020-09-02T13:30:32Z</time>
      </trkpt>
      <trkpt lat="44.68264" lon="2.85146">
        <ele>1024.9</ele>
        <time>2020-09-02T13:30:47Z</time>
      </trkpt>
      <trkpt lat="44.68264" lon="2.85151">
        <ele>1025.38</ele>
        <time>2020-09-02T13:31:02Z</time>
      </trkpt>
      <trkpt lat="44.68264" lon="2.85151">
        <ele>1025.38</ele>
        <time>2020-09-02T13:31:17Z</time>
      </trkpt>
      <trkpt lat="44.68265" lon="2.85148">
        <ele>1025.38</ele>
        <time>2020-09-02T13:31:32Z</time>
      </trkpt>
      <trkpt lat="44.68268" lon="2.85138">
        <ele>1023.94</ele>
        <time>2020-09-02T13:31:47Z</time>
      </trkpt>
      <trkpt lat="44.68278" lon="2.85124">
        <ele>1023.94</ele>
        <time>2020-09-02T13:32:02Z</time>
      </trkpt>
      <trkpt lat="44.68286" lon="2.8512">
        <ele>1024.42</ele>
        <time>2020-09-02T13:32:17Z</time>
      </trkpt>
      <trkpt lat="44.68287" lon="2.85121">
        <ele>1024.42</ele>
        <time>2020-09-02T13:32:32Z</time>
      </trkpt>
      <trkpt lat="44.68286" lon="2.85122">
        <ele>1024.42</ele>
        <time>2020-09-02T13:32:47Z</time>
      </trkpt>
      <trkpt lat="44.68284" lon="2.85123">
        <ele>1024.9</ele>
        <time>2020-09-02T13:33:02Z</time>
      </trkpt>
      <trkpt lat="44.68284" lon="2.8511">
        <ele>1024.9</ele>
        <time>2020-09-02T13:33:17Z</time>
      </trkpt>
      <trkpt lat="44.68288" lon="2.85098">
        <ele>1024.9</ele>
        <time>2020-09-02T13:33:32Z</time>
      </trkpt>
      <trkpt lat="44.683" lon="2.85086">
        <ele>1024.42</ele>
        <time>2020-09-02T13:33:47Z</time>
      </trkpt>
      <trkpt lat="44.6831" lon="2.85069">
        <ele>1023.94</ele>
        <time>2020-09-02T13:34:02Z</time>
      </trkpt>
      <trkpt lat="44.68316" lon="2.85049">
        <ele>1024.9</ele>
        <time>2020-09-02T13:34:17Z</time>
      </trkpt>
      <trkpt lat="44.6832" lon="2.85025">
        <ele>1025.38</ele>
        <time>2020-09-02T13:34:32Z</time>
      </trkpt>
      <trkpt lat="44.68325" lon="2.84997">
        <ele>1024.9</ele>
        <time>2020-09-02T13:34:47Z</time>
      </trkpt>
      <trkpt lat="44.68333" lon="2.84986">
        <ele>1024.9</ele>
        <time>2020-09-02T13:35:02Z</time>
      </trkpt>
      <trkpt lat="44.68342" lon="2.84962">
        <ele>1025.38</ele>
        <time>2020-09-02T13:35:17Z</time>
      </trkpt>
      <trkpt lat="44.68351" lon="2.84951">
        <ele>1026.83</ele>
        <time>2020-09-02T13:35:32Z</time>
      </trkpt>
      <trkpt lat="44.68354" lon="2.84917">
        <ele>1026.83</ele>
        <time>2020-09-02T13:35:47Z</time>
      </trkpt>
      <trkpt lat="44.68358" lon="2.84876">
        <ele>1027.31</ele>
        <time>2020-09-02T13:36:02Z</time>
      </trkpt>
      <trkpt lat="44.68367" lon="2.84856">
        <ele>1026.34</ele>
        <time>2020-09-02T13:36:17Z</time>
      </trkpt>
      <trkpt lat="44.68375" lon="2.84836">
        <ele>1025.86</ele>
        <time>2020-09-02T13:36:32Z</time>
      </trkpt>
      <trkpt lat="44.68383" lon="2.84821">
        <ele>1025.86</ele>
        <time>2020-09-02T13:36:47Z</time>
      </trkpt>
      <trkpt lat="44.68391" lon="2.848">
        <ele>1025.38</ele>
        <time>2020-09-02T13:37:02Z</time>
      </trkpt>
      <trkpt lat="44.68401" lon="2.84784">
        <ele>1024.42</ele>
        <time>2020-09-02T13:37:17Z</time>
      </trkpt>
      <trkpt lat="44.68409" lon="2.8477">
        <ele>1023.94</ele>
        <time>2020-09-02T13:37:32Z</time>
      </trkpt>
      <trkpt lat="44.68415" lon="2.84758">
        <ele>1023.46</ele>
        <time>2020-09-02T13:37:47Z</time>
      </trkpt>
      <trkpt lat="44.6842" lon="2.84734">
        <ele>1022.5</ele>
        <time>2020-09-02T13:38:02Z</time>
      </trkpt>
      <trkpt lat="44.68433" lon="2.84719">
        <ele>1021.54</ele>
        <time>2020-09-02T13:38:17Z</time>
      </trkpt>
      <trkpt lat="44.68448" lon="2.84699">
        <ele>1021.54</ele>
        <time>2020-09-02T13:38:32Z</time>
      </trkpt>
      <trkpt lat="44.68445" lon="2.84674">
        <ele>1021.06</ele>
        <time>2020-09-02T13:38:47Z</time>
      </trkpt>
      <trkpt lat="44.68418" lon="2.84656">
        <ele>1021.06</ele>
        <time>2020-09-02T13:39:02Z</time>
      </trkpt>
      <trkpt lat="44.68412" lon="2.84635">
        <ele>1020.58</ele>
        <time>2020-09-02T13:39:17Z</time>
      </trkpt>
      <trkpt lat="44.68402" lon="2.8461">
        <ele>1020.1</ele>
        <time>2020-09-02T13:39:32Z</time>
      </trkpt>
      <trkpt lat="44.68396" lon="2.84584">
        <ele>1019.62</ele>
        <time>2020-09-02T13:39:47Z</time>
      </trkpt>
      <trkpt lat="44.68397" lon="2.84561">
        <ele>1019.62</ele>
        <time>2020-09-02T13:40:02Z</time>
      </trkpt>
      <trkpt lat="44.68396" lon="2.84547">
        <ele>1021.54</ele>
        <time>2020-09-02T13:40:17Z</time>
      </trkpt>
      <trkpt lat="44.68402" lon="2.84534">
        <ele>1022.98</ele>
        <time>2020-09-02T13:40:32Z</time>
      </trkpt>
      <trkpt lat="44.68411" lon="2.84532">
        <ele>1023.94</ele>
        <time>2020-09-02T13:40:47Z</time>
      </trkpt>
      <trkpt lat="44.68411" lon="2.84525">
        <ele>1022.5</ele>
        <time>2020-09-02T13:41:02Z</time>
      </trkpt>
      <trkpt lat="44.68407" lon="2.84526">
        <ele>1023.46</ele>
        <time>2020-09-02T13:41:17Z</time>
      </trkpt>
    </trkseg>
  </trk>
</gpx>